GFSSW_250_rhum_000.txt.gz
RH
19 16 15 15 20 22 48 42 45 53 43 40 33 34 31 30 31 28 25 30 30 30 35 38 33 34 35 37 40 39 32 32 36 39 39 42 47 54 38 100 100 100 100 100 100
22 21 19 17 22 43 62 72 75 79 56 42 46 47 41 40 39 32 30 32 37 47 49 58 61 43 41 43 48 59 54 45 45 63 49 47 57 69 81 83 100 100 100 100 100
25 25 18 17 23 61 77 78 78 70 47 52 42 44 39 37 40 36 30 38 52 60 57 63 60 55 57 54 51 62 81 79 82 72 76 59 48 54 72 100 100 100 100 100 100
26 22 18 20 28 59 68 68 59 47 41 35 27 30 34 35 38 35 36 44 60 63 68 60 56 62 57 54 68 70 86 100 100 94 88 88 62 94 90 72 97 100 100 100 100
28 22 18 21 44 64 64 53 34 25 19 17 18 19 18 20 24 29 39 54 67 64 79 71 64 69 80 86 95 100 97 100 100 100 100 100 100 100 98 100 100 100 100 100 100
24 21 17 27 60 63 46 29 18 14 14 15 14 14 15 18 23 31 45 64 68 80 81 73 71 73 88 100 100 98 90 88 95 98 100 100 100 100 100 100 100 100 100 100 100
24 20 19 53 63 56 34 19 15 15 16 15 13 13 15 20 22 31 51 66 77 75 83 87 79 98 100 98 100 93 96 99 99 100 100 100 100 100 100 94 93 90 100 100 100
23 17 28 54 60 46 23 16 16 18 18 16 14 15 15 20 27 38 50 62 71 76 87 82 86 100 100 100 91 87 95 99 90 94 95 93 97 99 99 93 87 100 100 100 100
24 18 37 52 55 29 16 15 18 18 18 16 18 20 21 26 33 41 48 57 67 86 91 88 92 84 73 70 60 79 99 100 97 84 78 74 74 72 75 76 76 75 74 78 76
19 20 44 50 26 17 14 18 18 19 19 19 18 19 37 46 46 52 58 65 70 70 75 67 72 74 68 70 67 60 61 70 79 83 79 70 64 44 45 52 54 50 44 40 37
17 28 45 28 16 14 16 17 17 19 21 24 24 26 31 45 50 52 51 48 54 47 46 50 52 54 41 37 26 21 20 18 11 14 25 39 46 42 34 15 9 8 16 20 32
18 38 41 16 14 14 15 15 17 19 20 19 18 18 20 22 26 26 25 26 33 38 39 37 32 24 14 7 5 7 7 8 14 21 19 17 15 12 18 39 59 68 73 86 92
20 44 29 14 14 13 17 15 16 16 16 17 16 15 16 16 16 16 15 16 18 16 13 12 11 12 13 17 26 25 21 19 17 15 23 35 51 84 90 89 88 84 82 71 53
29 45 17 14 14 15 16 16 15 16 16 14 13 13 13 14 15 13 9 9 8 10 12 15 16 18 19 19 22 36 42 41 43 68 89 90 76 69 60 55 49 41 32 26 23
41 39 15 15 16 15 16 17 17 19 16 14 17 15 15 20 20 27 29 27 28 29 27 31 37 42 39 55 58 58 76 73 63 48 38 37 32 26 28 20 20 20 18 18 22
48 20 17 17 18 19 17 24 28 28 37 40 45 44 51 54 44 54 60 62 65 66 69 70 60 64 69 66 59 42 27 23 22 22 28 27 25 25 24 23 25 27 30 42 50
54 11 17 17 21 30 28 39 44 50 56 60 63 64 64 65 63 57 51 46 44 38 37 48 41 41 30 20 21 23 23 26 27 27 30 28 29 32 33 42 52 52 48 44 46
60 17 28 28 44 46 47 50 53 64 58 55 67 57 42 38 34 33 24 19 20 18 18 20 18 16 17 22 24 21 20 22 26 34 38 41 48 52 51 47 44 47 50 55 58
46 30 53 58 61 58 54 61 66 69 57 53 38 26 27 26 24 25 24 23 23 24 28 26 26 24 22 27 39 50 52 49 46 40 40 41 44 45 48 49 54 60 60 57 52
25 39 68 79 67 80 71 67 61 63 42 32 28 28 30 33 40 42 41 39 34 27 24 21 22 45 56 54 48 48 43 45 46 46 44 47 47 49 52 51 50 49 47 44 41
22 47 71 76 83 82 81 71 68 51 28 32 30 30 38 48 52 48 36 28 24 20 23 44 58 55 49 47 45 44 46 54 54 55 51 55 55 53 48 44 41 38 36 34 33
35 57 82 75 91 79 78 69 51 34 27 38 36 34 39 51 59 49 29 32 28 37 62 58 52 52 57 59 60 58 57 59 59 59 57 52 48 44 43 42 40 40 43 42 41
64 73 81 98 89 75 73 70 42 41 44 37 33 39 52 60 56 44 51 55 58 64 59 51 59 67 69 69 68 62 61 65 66 58 51 51 50 47 44 44 42 48 49 44 42
54 66 87 90 77 72 73 75 49 56 50 35 36 46 54 54 59 62 66 61 56 62 58 56 59 67 71 73 67 62 62 61 61 54 56 52 52 51 49 47 49 52 54 61 62
61 83 100 78 80 73 65 69 61 56 48 36 43 50 58 68 74 65 64 70 66 64 62 66 71 72 74 72 64 63 65 62 57 55 55 47 55 54 55 53 54 59 47 54 64
78 100 100 80 84 72 73 72 58 57 56 42 51 59 61 79 89 86 86 84 82 78 84 85 83 76 66 63 64 71 70 66 60 63 66 73 73 71 63 52 60 75 70 55 58
98 100 99 83 81 75 66 69 68 67 62 50 55 63 66 72 79 94 100 100 97 100 98 88 79 69 70 67 70 80 61 68 67 76 77 89 70 73 56 55 77 86 83 72 70

GFSSW_250_rhum_003.txt.gz
RH
30 28 24 17 19 20 19 20 23 42 56 56 52 39 30 25 29 32 29 27 34 32 33 30 26 23 27 26 27 31 41 48 43 40 37 33 31 34 34 37 39 42 61 100 100
36 29 24 18 20 21 19 19 29 53 60 63 53 39 37 36 42 40 38 48 55 54 52 50 50 51 44 42 47 55 64 65 59 56 68 61 55 44 44 51 47 86 68 100 100
36 42 29 21 24 22 18 20 38 58 66 59 45 53 38 38 32 43 49 58 63 63 54 57 66 74 74 81 91 82 78 83 86 77 75 80 79 75 74 72 67 70 99 100 100
33 37 31 21 24 21 18 28 48 58 56 40 34 35 40 38 39 44 47 71 78 69 69 81 93 96 95 95 83 84 100 100 98 100 100 93 92 96 90 69 72 71 84 98 100
31 34 34 27 28 22 24 48 53 44 32 23 19 20 23 29 44 48 53 69 73 69 80 100 96 100 95 88 98 100 100 100 100 100 100 100 99 93 93 84 67 96 96 93 100
31 36 37 30 27 22 29 47 46 35 23 16 13 14 15 19 25 40 50 48 55 75 95 96 99 100 99 100 100 100 100 100 100 100 100 100 100 100 99 92 87 84 80 100 100
33 36 37 30 29 23 38 44 38 28 18 13 13 16 15 16 19 25 32 38 49 71 90 99 100 100 100 100 100 100 95 100 100 100 100 100 100 100 100 100 100 100 100 100 100
34 36 34 31 27 26 44 45 28 20 16 16 18 15 13 16 18 23 29 35 42 72 86 93 94 99 100 100 98 94 100 100 100 100 99 97 100 99 99 99 94 100 100 100 99
34 36 30 30 26 34 38 29 19 17 18 20 18 15 15 17 22 27 30 43 57 76 91 98 84 98 100 98 100 100 100 90 91 100 100 100 100 98 95 92 96 100 100 100 99
34 35 26 27 23 34 22 16 15 19 18 19 17 20 19 20 25 36 45 58 77 86 94 100 100 100 89 88 89 100 100 100 100 100 100 95 94 85 75 70 58 53 64 73 76
35 38 30 25 25 26 14 14 17 17 17 18 18 18 20 24 31 40 49 55 66 70 85 92 96 91 96 99 97 100 100 99 94 85 79 75 66 63 68 64 51 32 23 21 21
34 37 27 21 31 16 14 16 17 15 18 21 22 21 30 45 51 63 68 76 77 78 82 84 94 96 98 97 82 66 46 30 24 19 16 17 20 30 36 40 39 36 30 25 30
33 34 25 21 27 15 14 16 16 17 20 22 22 24 27 39 50 52 58 59 71 66 56 58 58 58 52 45 36 16 8 6 9 12 20 24 28 34 36 28 27 42 56 66 70
36 34 21 30 18 16 14 17 16 18 18 18 18 17 18 20 24 26 24 24 24 30 37 43 40 27 16 14 13 16 24 26 24 30 49 77 93 99 86 74 68 53 34 25 21
37 30 20 29 18 16 17 17 15 16 16 17 16 16 16 15 16 14 14 16 18 17 17 14 16 18 21 24 25 26 36 50 67 98 94 81 63 57 49 34 20 17 20 29 35
37 29 23 22 19 16 18 15 15 17 18 16 19 18 17 18 16 15 14 13 14 14 17 17 18 23 29 38 37 56 82 84 50 32 33 25 20 17 17 22 26 32 39 47 54
39 25 31 23 18 17 17 17 20 23 25 40 35 38 39 43 37 32 31 30 33 46 60 61 63 70 59 63 62 46 33 24 21 22 21 23 24 26 31 37 52 57 51 49 47
44 23 40 37 15 18 19 20 26 43 54 65 58 62 66 59 62 59 56 61 53 52 59 58 48 40 43 33 20 22 24 24 25 31 38 44 51 58 57 53 52 56 59 59 61
39 24 46 33 15 26 28 36 47 62 62 61 64 63 66 61 57 47 29 22 25 21 22 19 20 23 27 26 25 28 39 53 64 68 64 62 60 58 57 53 51 56 60 53 40
36 26 51 30 22 37 48 55 58 56 58 65 62 47 38 32 26 24 20 19 20 22 26 26 29 29 29 40 50 54 52 55 57 54 53 50 50 52 51 53 52 48 42 37 36
34 38 62 40 42 51 65 60 58 66 56 51 34 25 28 26 32 38 38 39 39 36 30 29 28 45 54 51 49 49 46 44 45 49 52 56 56 52 49 46 44 44 42 42 46
35 62 77 51 60 66 76 65 66 62 45 37 28 30 32 40 53 62 60 46 36 28 26 44 51 46 46 50 55 58 58 56 56 59 63 61 56 51 47 48 49 48 48 50 55
36 72 72 61 79 82 86 72 65 57 36 33 31 32 36 56 72 73 56 44 31 40 62 57 52 51 59 65 67 69 65 63 64 63 67 65 60 59 59 59 57 53 58 54 49
36 68 55 71 73 87 85 78 68 50 30 33 35 33 40 56 64 66 49 45 49 62 66 58 57 63 70 74 76 74 66 64 65 65 62 59 66 70 77 77 68 62 64 62 50
53 77 82 88 79 96 79 74 61 34 32 36 36 36 48 61 70 64 73 79 78 68 73 63 60 66 73 76 76 75 72 69 73 70 70 63 68 62 85 90 77 70 65 52 64
73 94 100 90 85 95 74 70 68 38 33 36 35 40 53 64 67 71 70 83 81 75 69 69 75 80 83 83 86 93 88 75 73 68 68 75 83 60 75 88 74 75 64 62 75
100 99 100 86 80 88 72 70 79 43 45 44 36 41 61 68 82 85 87 91 86 84 82 84 90 93 94 98 92 100 76 81 76 77 75 89 79 78 84 89 94 79 63 83 76

GFSSW_250_rhum_009.txt.gz
RH
56 59 50 43 40 36 34 29 26 21 25 24 21 20 40 44 48 43 47 59 37 34 24 19 19 21 35 32 26 19 24 22 22 20 21 38 18 12 13 11 10 98 16 21 18
76 59 57 47 40 35 39 33 25 21 26 22 22 22 41 37 29 30 36 48 42 41 58 36 26 40 50 42 44 47 46 42 34 28 51 51 28 23 18 26 37 24 32 50 91
80 66 64 54 43 36 33 32 28 26 25 27 25 25 38 31 21 23 41 50 42 45 51 57 56 77 73 78 51 51 50 43 87 88 60 55 47 46 50 70 79 79 65 84 58
82 81 76 65 50 37 35 30 30 26 38 31 26 28 32 22 17 17 32 44 44 55 64 72 78 69 64 58 80 88 81 98 94 100 100 85 82 88 87 100 100 93 81 81 89
79 82 81 68 60 50 33 31 28 37 42 30 26 26 23 16 13 14 31 52 59 70 73 85 88 88 87 92 100 100 100 100 100 100 100 94 100 100 94 97 100 99 80 78 77
85 91 82 69 60 52 38 32 34 35 37 34 25 25 16 14 14 15 26 47 64 76 86 95 98 88 99 100 94 100 100 100 100 100 94 100 98 97 99 95 86 84 94 98 88
82 94 87 73 64 55 40 37 41 32 39 32 26 18 14 13 17 16 22 39 60 91 100 99 97 98 100 100 100 100 100 100 99 100 100 99 100 100 100 100 100 100 100 96 99
89 94 83 87 64 54 46 39 35 38 34 35 25 15 15 17 16 17 20 49 71 94 97 100 100 100 100 100 100 100 100 100 100 100 100 97 93 97 99 100 100 95 86 84 81
100 86 79 70 59 58 46 39 39 40 36 35 23 16 19 19 14 18 23 54 79 97 99 100 100 100 100 100 100 100 100 100 98 95 95 100 100 100 98 95 96 90 88 100 100
99 98 83 65 57 53 50 38 42 37 38 35 20 18 20 17 16 19 26 55 76 75 89 100 100 100 100 100 100 100 100 100 99 99 93 99 100 100 91 94 98 100 100 100 100
100 89 78 64 61 55 46 44 46 33 36 33 18 17 20 18 17 20 25 46 56 69 100 100 100 100 100 100 100 100 100 94 100 100 100 100 100 80 87 100 100 94 94 90 93
85 72 63 59 56 50 43 66 51 46 39 28 16 17 19 18 20 22 26 35 48 81 93 100 100 100 100 100 100 95 100 99 100 99 91 94 98 99 95 96 93 89 86 84 78
82 70 68 67 58 46 48 75 55 41 37 27 15 18 20 18 22 26 34 40 63 91 100 100 100 100 100 100 100 96 100 100 100 100 99 83 84 82 77 71 54 31 23 29 32
77 68 69 70 54 49 52 60 65 40 41 26 16 21 24 23 31 33 45 70 83 95 95 92 99 100 100 93 98 100 100 100 96 79 71 57 34 17 15 12 17 27 30 30 46
88 79 77 56 42 47 49 54 55 51 42 24 16 21 23 25 43 43 50 65 98 97 100 99 100 100 100 100 99 100 94 93 72 52 24 10 17 65 35 53 78 70 73 66 43
81 87 72 53 46 67 58 52 47 77 48 22 15 17 18 20 37 56 60 61 68 74 89 99 98 93 88 84 91 80 69 55 27 14 14 32 58 42 66 57 39 32 24 25 37
70 72 58 55 64 68 71 55 40 68 52 18 15 16 16 17 21 39 58 66 70 70 77 85 92 63 49 52 54 45 25 22 20 26 32 72 72 51 27 30 23 27 44 44 39
46 50 47 56 60 56 72 66 43 59 56 16 16 16 14 13 15 18 27 32 32 38 38 36 36 38 38 33 26 25 29 44 69 93 70 29 27 26 31 33 47 42 38 40 44
46 43 60 57 61 65 73 67 58 62 39 17 17 16 13 13 15 16 16 16 21 21 22 26 30 28 34 48 68 67 84 92 73 35 29 39 57 54 47 43 42 41 44 48 47
48 44 55 47 54 64 76 75 74 62 25 22 18 19 18 17 17 18 20 22 20 19 18 23 32 62 90 100 89 63 49 37 36 45 62 60 54 52 50 52 52 52 52 54 56
38 43 52 65 65 58 91 78 72 51 19 26 32 35 34 46 55 54 55 56 60 63 68 73 74 78 81 69 39 33 42 64 71 67 56 52 50 58 62 62 65 63 61 59 57
41 60 81 99 84 79 93 96 75 36 22 45 57 59 64 65 59 53 37 35 35 32 38 44 39 35 31 34 35 56 78 78 71 63 62 64 70 68 71 69 68 67 67 70 75
64 98 100 100 81 93 98 100 49 28 40 69 64 63 61 59 46 29 23 21 22 26 29 28 29 34 38 51 69 75 75 74 73 73 76 71 74 71 72 67 60 58 62 62 71
76 63 74 79 88 93 92 73 44 28 65 70 69 62 49 33 29 29 35 41 46 45 39 44 42 47 56 72 81 78 76 77 78 78 77 67 62 58 60 62 62 66 66 66 69
49 75 75 93 98 92 84 48 36 51 81 69 60 56 37 28 43 49 52 55 45 41 36 35 38 68 77 72 71 78 83 81 78 76 76 61 62 52 67 73 70 76 78 76 82
42 55 72 77 75 68 55 44 50 79 84 63 53 43 31 42 47 54 57 54 44 36 31 38 72 75 66 73 77 92 93 76 74 76 79 71 80 45 45 57 64 72 78 80 80
37 36 49 48 57 54 46 53 74 96 74 57 50 38 33 43 47 54 58 55 45 33 39 73 76 66 66 72 82 89 76 75 69 69 62 69 69 66 65 66 76 78 77 82 77

GFSSW_250_rhum_012.txt.gz
RH
71 61 62 59 57 62 68 67 52 54 43 32 31 28 22 27 24 29 30 26 25 32 32 28 27 23 23 15 11 9 12 20 23 19 30 34 37 72 77 43 44 38 31 61 99
78 73 71 48 57 78 64 72 63 53 42 31 35 32 24 25 21 20 21 20 22 33 40 37 33 40 33 34 27 28 28 22 20 27 59 84 100 100 88 92 62 16 49 95 100
95 78 71 54 51 68 64 56 59 56 38 32 35 30 28 20 14 14 16 16 21 42 50 57 51 50 62 54 59 61 42 38 44 36 98 100 100 97 67 54 24 85 74 100 100
96 86 81 59 54 64 62 53 54 57 38 35 38 34 30 17 12 13 14 14 26 47 52 90 100 90 80 100 85 78 68 66 80 100 94 82 92 100 96 62 78 100 95 68 67
100 95 83 57 51 78 76 70 63 52 42 38 38 32 34 15 13 14 15 14 35 52 69 87 87 98 100 100 100 88 100 100 100 100 100 95 84 68 75 62 98 100 100 100 74
100 100 88 66 57 77 81 73 62 57 45 39 39 35 33 16 17 18 18 17 39 58 69 85 93 100 100 93 99 78 100 100 100 100 100 100 100 61 90 100 100 100 100 99 100
100 99 75 74 62 83 93 78 61 44 38 37 41 41 30 16 19 18 19 18 35 60 73 97 98 97 97 100 100 100 100 100 100 100 100 100 100 76 86 94 100 100 100 100 100
99 84 84 80 79 90 96 74 49 44 46 38 40 43 30 16 20 18 18 19 31 53 92 98 100 98 100 100 100 100 100 100 100 100 96 87 89 94 100 100 90 92 98 99 98
84 83 88 88 94 83 77 51 49 45 47 39 41 41 32 16 19 20 18 18 40 73 98 97 100 100 100 100 100 100 100 100 100 95 100 96 100 100 93 100 100 100 99 75 73
69 98 92 78 70 68 54 48 53 48 49 37 43 49 32 16 20 22 20 24 55 82 96 100 100 100 100 100 100 100 100 100 92 95 100 79 100 100 100 100 100 100 70 77 88
95 95 100 94 84 54 49 57 48 46 50 34 44 45 27 17 22 23 22 25 62 83 93 100 100 100 100 100 100 100 100 79 96 98 94 76 79 74 100 100 100 98 100 98 82
71 77 96 74 73 63 51 62 50 56 49 39 38 40 25 19 23 22 24 28 46 65 84 98 100 100 100 100 100 100 100 100 98 93 100 100 100 100 100 98 80 71 78 74 76
36 50 85 73 77 49 46 53 60 63 48 42 37 40 22 22 27 23 23 26 40 54 70 89 98 100 100 100 100 100 100 89 80 86 100 78 84 79 78 80 76 82 77 75 84
34 48 85 75 70 38 47 54 62 62 50 54 37 40 24 21 27 28 27 31 33 38 60 83 85 99 100 100 100 100 82 78 74 95 100 96 79 85 86 71 50 30 17 13 13
32 34 48 55 48 44 48 52 64 61 42 50 38 38 27 20 23 30 36 38 46 56 72 90 96 89 94 99 95 72 82 72 76 100 90 97 78 70 34 19 83 60 55 55 40
44 38 46 50 44 60 62 60 61 68 48 45 38 40 27 20 19 26 47 45 56 78 93 89 99 96 93 94 83 92 80 90 99 94 84 86 38 52 52 98 96 100 99 62 43
66 55 71 66 47 65 73 64 56 56 47 46 39 36 32 21 18 24 42 55 56 64 85 74 100 100 100 100 100 99 95 87 88 72 52 26 49 62 73 89 100 100 100 46 27
62 64 74 81 67 62 80 54 57 45 40 50 39 39 35 22 19 18 26 53 63 67 71 72 93 72 88 82 87 74 72 67 54 33 34 57 91 98 65 77 67 99 67 44 49
64 63 82 96 84 75 65 54 74 55 47 50 39 40 33 24 18 16 16 22 51 68 67 76 90 92 89 76 44 41 46 34 25 51 92 96 58 39 33 35 40 57 51 48 39
50 50 84 88 82 76 57 62 76 64 45 44 47 51 27 28 20 19 17 17 21 34 51 69 64 45 37 37 37 30 36 54 94 93 60 34 37 48 58 56 52 43 43 40 36
38 68 73 87 70 68 57 77 57 56 47 43 48 55 26 33 29 30 23 19 19 23 28 24 19 28 30 32 31 68 99 84 61 39 39 50 61 55 50 46 43 41 37 35 42
40 65 53 73 71 73 71 74 59 46 54 55 45 46 34 48 56 55 52 46 46 36 32 39 41 54 62 96 97 98 66 34 36 56 70 70 65 56 49 44 43 45 48 54 55
41 65 64 70 55 85 100 74 60 63 68 60 53 54 51 64 71 65 59 61 60 63 69 80 88 89 100 84 60 43 31 55 78 75 67 58 55 47 50 57 61 59 54 51 53
29 37 44 46 76 74 71 66 67 75 75 67 58 64 66 72 71 65 52 48 38 38 37 38 50 61 44 30 35 38 78 85 81 66 60 49 52 60 63 68 62 58 50 48 50
28 32 40 39 69 95 86 97 96 77 92 78 57 51 73 79 61 42 42 31 22 21 22 26 28 27 30 37 42 80 88 84 80 61 65 52 63 56 59 63 65 58 59 57 61
20 30 43 74 100 94 93 98 97 75 78 60 62 58 74 72 47 41 32 28 36 43 44 39 35 36 39 49 82 82 82 79 62 60 71 71 70 54 64 57 54 47 45 66 81
18 30 40 72 80 77 100 100 100 86 54 57 48 65 71 62 42 40 38 42 50 45 47 41 31 33 42 89 80 79 67 64 69 72 71 76 74 59 48 68 65 58 66 73 74

GFSSW_250_rhum_015.txt.gz
RH
93 92 98 100 91 72 51 42 40 27 35 44 36 32 29 32 32 23 12 11 13 16 18 22 32 28 26 23 21 16 16 19 13 15 10 21 36 27 24 25 35 31 18 44 88
89 100 100 100 100 89 61 58 39 32 41 40 40 29 33 34 35 19 13 11 12 13 17 31 35 35 46 36 56 67 60 28 14 11 29 57 94 100 58 59 39 42 60 98 100
94 100 100 100 100 100 82 63 45 33 54 61 36 33 33 34 36 16 15 14 13 13 26 42 39 53 82 79 72 89 51 38 51 29 47 82 68 53 73 64 93 71 100 97 100
91 100 100 100 100 100 100 69 48 42 56 56 30 34 34 37 32 15 17 16 14 16 35 51 57 81 100 100 100 84 53 54 34 79 100 100 100 100 74 62 93 100 100 100 100
100 100 100 100 100 100 86 63 46 40 63 43 30 32 33 38 32 14 16 17 16 28 40 59 85 69 100 100 100 92 93 80 48 100 100 87 96 100 100 99 74 100 77 98 100
100 100 100 100 100 100 91 54 46 44 34 31 30 38 34 40 34 14 17 16 18 28 57 70 100 98 100 100 100 98 100 100 100 100 100 100 100 100 100 100 100 100 96 100 100
100 100 100 100 100 98 85 43 47 55 33 30 33 36 34 38 38 15 18 17 19 28 57 66 100 98 100 100 100 99 98 100 100 100 100 100 100 100 100 99 90 98 93 99 94
100 100 100 100 100 100 92 54 51 53 32 33 34 39 31 38 38 15 18 17 21 25 63 76 84 100 100 100 100 100 100 100 100 100 99 82 100 100 78 59 68 99 96 100 99
100 100 100 100 100 100 85 65 53 52 31 35 31 42 32 39 46 16 18 19 23 48 73 89 100 99 93 92 94 100 100 100 100 100 100 100 92 94 86 100 90 99 100 100 100
100 100 100 100 100 94 84 74 53 39 33 35 35 43 30 37 40 17 20 20 26 57 77 94 100 100 100 100 100 100 100 100 100 100 82 100 84 100 100 100 100 100 100 97 91
100 100 100 100 100 91 82 77 39 34 36 33 37 41 31 35 37 18 22 22 26 55 82 90 96 100 100 100 100 100 87 100 100 78 86 94 100 84 100 100 100 76 100 100 100
100 100 100 100 100 98 93 68 30 31 31 46 42 44 35 33 34 20 24 24 30 50 74 90 94 100 98 100 100 99 78 100 100 100 79 100 100 67 94 98 100 100 100 98 100
99 100 100 100 94 100 89 56 35 28 37 43 48 45 35 33 34 25 22 30 31 49 67 74 86 85 80 95 95 92 99 100 100 100 96 73 95 100 100 100 100 98 95 88 65
100 100 100 100 82 86 93 52 33 35 36 39 50 49 36 30 34 27 19 28 31 36 53 50 64 75 71 68 79 96 89 89 97 81 71 86 100 86 88 73 65 59 76 77 70
100 100 100 100 82 75 75 47 45 35 31 37 48 48 39 31 32 30 18 22 38 38 41 45 60 69 65 65 79 90 90 90 97 77 81 71 84 77 93 66 52 44 53 81 98
100 100 100 97 74 65 59 50 48 33 29 31 50 55 42 32 31 30 19 20 44 46 60 73 88 100 96 94 75 92 98 91 74 88 100 82 60 95 93 62 34 29 60 45 46
76 78 70 67 71 53 52 50 44 39 30 28 46 52 43 42 30 35 19 20 36 51 71 77 96 88 90 93 94 87 82 76 100 95 82 78 84 71 47 19 88 85 76 37 44
59 50 47 53 60 53 41 35 39 43 28 27 47 54 48 35 32 33 18 20 27 58 66 75 80 96 96 99 99 100 72 76 100 92 97 79 82 44 21 64 94 100 60 60 84
61 49 48 56 67 61 52 48 61 64 30 37 41 57 45 34 37 34 18 19 20 42 61 58 73 95 85 71 98 86 96 88 88 75 64 61 37 32 94 95 82 74 87 99 86
62 52 60 58 64 68 69 61 63 53 36 44 54 59 55 34 37 37 20 21 21 21 38 66 66 72 72 70 81 83 88 57 48 46 44 59 78 72 58 43 36 44 46 79 94
51 48 50 52 49 41 52 61 73 42 43 63 71 70 64 36 37 45 22 27 24 19 22 36 46 60 60 48 82 86 42 37 33 60 99 92 83 50 38 41 43 54 52 43 44
55 74 61 41 42 56 70 62 54 37 50 60 77 70 73 47 32 42 24 54 52 34 22 22 29 33 37 39 38 36 31 30 79 84 83 64 40 40 63 60 53 42 53 50 44
44 87 89 55 66 62 67 55 44 44 77 81 80 74 81 51 32 31 27 64 72 70 75 55 38 30 35 37 30 29 54 99 98 53 39 36 39 55 55 55 56 56 43 50 52
38 63 55 46 61 69 74 64 65 48 80 76 76 76 68 45 38 32 32 57 66 59 65 65 70 88 78 67 77 82 90 93 56 34 31 56 58 63 50 60 60 57 53 39 42
34 53 45 42 50 68 83 81 64 59 65 77 95 88 62 40 37 39 34 62 64 51 49 41 50 53 64 71 70 71 50 29 27 27 57 62 62 52 66 70 71 72 50 58 68
28 40 36 35 42 49 52 53 50 51 84 85 88 72 67 47 44 40 32 67 48 41 34 24 23 25 26 23 30 27 29 30 32 41 66 47 57 48 63 69 71 52 45 55 72
21 35 35 34 40 39 47 59 71 57 54 89 82 66 59 39 53 49 51 64 44 33 34 37 45 43 44 37 35 39 29 32 58 58 50 52 56 57 68 75 73 77 73 69 65

GFSSW_250_rhum_018.txt.gz
RH
100 100 100 100 100 90 89 100 100 100 85 53 50 36 26 24 21 26 26 16 13 13 12 13 17 22 26 36 27 28 17 12 13 12 12 10 11 14 32 50 42 89 28 14 14
90 97 100 100 100 70 97 98 100 100 58 47 54 40 35 26 22 26 26 15 14 13 12 15 27 32 39 37 35 28 18 18 26 14 12 21 40 48 53 56 64 18 16 31 66
100 100 100 100 99 76 83 100 100 72 55 51 57 41 36 28 25 27 27 15 14 12 14 23 39 47 45 45 46 66 35 32 25 24 75 95 89 100 100 64 36 25 17 99 100
95 100 100 100 99 95 91 100 85 63 52 66 63 45 30 28 25 30 27 14 16 14 18 39 45 46 60 64 61 54 79 52 32 93 100 100 100 100 90 41 37 54 100 100 100
78 99 100 100 100 100 100 100 96 72 62 70 65 56 28 24 25 30 27 16 17 15 20 51 56 69 100 76 73 89 100 73 90 100 100 100 100 100 100 86 69 100 100 100 100
87 100 100 100 100 100 100 100 97 86 78 84 73 54 28 27 24 32 28 18 18 16 21 53 65 84 100 99 93 97 91 100 100 100 100 100 99 100 100 100 100 100 100 100 100
92 100 100 100 100 100 100 100 100 99 88 76 66 41 28 32 31 31 29 18 19 18 26 59 83 95 100 100 100 99 100 100 100 100 100 100 100 100 65 100 100 100 100 100 100
85 100 100 100 100 100 100 100 100 100 88 87 68 44 25 41 37 34 30 18 20 20 29 68 89 100 92 100 100 100 100 100 100 100 100 100 100 100 100 100 93 99 100 100 100
100 100 100 100 100 100 100 100 100 100 86 85 62 46 26 30 38 37 28 18 20 21 39 69 88 97 100 97 100 100 100 100 100 90 100 100 100 100 100 100 92 96 100 100 100
100 100 100 100 100 100 100 100 85 76 93 83 62 49 31 29 39 34 31 18 22 23 34 72 79 88 100 100 100 96 100 100 100 96 97 100 100 100 100 98 71 65 84 100 100
100 100 100 100 99 100 100 100 96 71 89 77 67 52 32 27 36 30 31 19 24 28 31 60 81 86 100 97 100 100 92 100 100 100 89 93 100 100 96 99 100 100 95 100 100
100 100 100 100 100 100 100 96 76 78 96 73 72 56 33 26 32 28 30 24 19 30 31 60 87 89 85 95 100 100 98 100 90 100 100 73 82 100 93 98 100 100 93 99 84
100 100 100 100 98 98 92 85 93 92 100 86 72 56 37 29 30 28 29 30 17 31 34 44 86 75 82 96 100 100 82 92 82 86 90 88 95 95 92 88 100 100 96 96 75
100 100 100 100 100 100 98 99 100 100 100 80 71 55 39 28 32 30 30 30 17 25 36 42 67 75 76 91 93 95 100 95 100 100 100 100 98 85 94 93 85 97 75 100 100
100 100 100 100 100 100 100 100 100 100 100 81 70 52 40 27 32 33 31 31 19 19 41 46 63 71 75 100 90 100 100 99 95 100 98 84 84 82 100 100 99 100 99 99 81
100 100 100 100 100 100 100 100 100 100 100 90 71 51 38 27 29 35 37 33 18 18 39 51 57 58 77 90 96 88 90 97 100 97 82 89 85 78 85 82 63 87 93 97 77
100 100 100 100 100 100 100 100 100 100 100 86 62 39 36 27 31 43 39 37 22 17 20 51 59 73 81 83 97 87 76 87 87 81 76 72 78 64 65 78 72 60 44 25 35
100 100 100 100 100 100 100 100 100 100 90 72 55 42 40 31 29 43 44 42 26 20 16 34 57 73 90 95 98 100 88 85 94 88 66 86 78 70 78 79 56 26 20 30 39
91 100 100 100 100 100 100 94 90 78 66 62 56 53 46 33 29 48 48 42 29 22 18 17 55 53 73 98 100 83 92 76 72 94 78 94 92 91 68 37 28 35 34 44 47
71 93 100 100 100 100 99 92 78 69 50 41 42 54 55 37 28 41 54 47 32 23 20 17 30 60 54 72 91 82 85 100 100 99 90 67 64 51 42 63 62 79 55 35 32
73 77 100 89 82 84 93 100 87 71 51 39 43 51 58 43 27 47 50 44 34 25 25 17 20 46 42 48 60 66 66 64 74 95 56 41 34 24 26 54 69 48 43 59 63
90 63 96 71 70 78 81 71 86 66 62 60 51 53 58 39 34 51 53 44 35 28 25 23 20 21 24 31 34 66 74 54 79 53 41 29 25 39 53 66 44 75 71 59 56
100 88 84 46 65 75 59 64 87 66 71 59 58 62 55 38 46 42 53 47 34 30 28 28 43 31 22 28 24 30 32 35 41 37 48 51 52 65 46 34 57 62 62 67 71
99 68 99 35 92 93 61 80 98 68 57 54 55 50 49 39 49 44 69 51 33 33 26 41 50 55 61 46 40 54 51 48 55 77 79 81 62 36 31 64 61 56 58 60 63
60 52 66 94 99 99 76 99 100 53 56 59 61 60 52 45 54 70 83 34 29 33 33 55 62 54 55 62 70 96 92 94 90 92 86 61 40 24 58 67 78 73 56 52 50
36 55 66 99 100 93 84 88 89 82 91 82 88 77 61 70 78 91 60 30 36 36 48 59 62 43 30 38 47 54 61 67 58 52 33 25 27 32 80 87 87 72 71 78 80
17 49 81 100 100 90 100 100 100 100 91 72 87 72 62 56 54 91 60 42 48 39 60 60 53 40 24 22 23 29 26 23 25 24 33 32 50 76 84 78 75 78 80 75 65

GFSSW_250_rhum_021.txt.gz
RH
100 100 100 100 87 69 66 100 100 100 94 100 100 78 60 35 31 30 33 19 15 17 13 13 14 16 18 20 27 33 38 31 23 20 18 14 14 15 15 21 47 100 72 81 80
100 100 100 100 100 81 67 99 100 100 100 100 100 95 65 35 30 34 32 20 16 18 14 14 16 25 33 30 30 36 40 31 25 29 19 19 24 27 38 67 100 89 100 56 59
100 100 100 98 100 96 81 100 100 100 100 100 100 100 71 55 35 46 34 21 18 18 16 16 19 37 39 47 41 42 42 37 28 46 30 95 98 100 100 93 100 81 32 22 36
96 100 100 97 99 97 64 72 87 100 100 100 100 100 85 62 48 46 34 26 22 19 18 18 29 47 44 60 52 47 36 32 47 71 99 100 100 100 100 98 27 43 86 45 74
94 81 100 96 94 93 82 70 84 100 100 100 100 100 100 64 57 44 36 28 23 19 19 21 38 56 48 75 66 71 66 42 76 100 100 100 100 100 95 56 69 79 100 88 99
100 100 100 100 100 95 80 62 85 100 100 100 100 99 100 63 61 44 37 27 24 20 21 23 41 64 75 83 99 78 86 96 100 100 100 100 100 100 82 90 99 100 100 100 100
100 100 100 99 100 100 92 69 90 100 100 100 100 100 100 60 68 44 41 28 23 20 23 23 46 72 70 84 95 86 100 100 100 100 100 100 100 100 89 100 100 100 100 100 100
100 100 100 100 100 100 81 64 93 100 100 100 100 80 68 68 63 46 42 31 24 20 23 24 50 68 96 66 88 100 100 100 100 100 100 100 100 100 96 100 100 100 100 100 100
90 100 100 100 100 98 71 82 80 100 100 100 91 92 72 76 64 48 45 35 24 21 20 25 49 78 79 100 95 100 100 100 100 100 100 98 100 100 100 100 100 100 100 100 100
71 60 99 100 100 100 82 97 99 94 77 74 88 78 70 78 72 53 50 37 21 21 17 27 51 80 97 86 96 100 92 100 100 100 100 94 100 92 99 100 100 100 100 100 100
63 51 54 61 100 100 99 100 100 100 87 84 83 73 81 73 77 56 49 36 20 22 16 29 42 74 86 98 99 100 100 93 100 100 100 100 100 96 100 100 100 90 84 100 100
74 79 57 61 67 99 86 92 100 100 72 71 79 85 86 80 84 63 49 35 22 23 17 29 35 68 84 85 96 100 100 97 76 94 93 97 100 100 100 99 72 80 70 71 70
42 57 51 49 58 99 97 100 100 98 100 88 98 81 96 92 88 68 53 31 22 23 18 24 37 51 87 96 100 100 100 100 100 100 100 98 100 100 100 100 81 100 100 97 98
39 48 51 46 51 50 100 100 100 100 100 100 100 93 98 96 90 70 47 31 24 24 19 21 39 46 85 100 100 84 96 71 97 99 99 100 100 92 86 85 87 96 100 100 100
39 42 46 47 43 66 96 100 100 100 100 99 96 92 100 100 89 72 42 33 23 26 21 19 35 46 70 82 88 99 92 67 66 84 99 94 73 96 89 93 100 94 83 75 95
54 48 46 54 54 66 89 100 100 100 100 100 97 90 98 98 91 69 43 35 27 28 26 18 25 53 58 60 90 99 100 81 74 69 96 100 100 100 99 99 90 98 80 61 58
94 93 66 65 50 68 99 96 100 100 100 99 98 98 100 100 87 63 45 37 31 32 29 19 18 50 67 71 95 99 100 100 95 100 76 80 86 64 69 82 86 89 90 96 77
99 100 72 74 58 64 78 100 100 100 100 100 100 100 100 100 87 55 47 35 32 35 26 22 17 31 63 80 83 88 90 100 100 100 97 84 80 71 71 78 77 87 85 87 69
97 98 85 100 79 66 70 93 100 100 98 100 100 100 100 90 68 42 34 32 33 34 30 26 17 17 44 66 73 69 75 82 87 93 84 66 81 88 76 80 67 53 58 47 28
86 99 98 100 98 74 71 84 100 100 100 100 100 100 90 70 51 37 30 31 33 39 33 27 20 19 21 53 60 66 66 79 82 88 81 74 91 100 85 85 65 44 27 40 62
94 86 99 100 96 80 78 100 100 100 100 100 100 100 92 73 54 42 44 41 34 36 34 24 26 22 18 31 34 49 66 79 83 78 79 74 96 94 65 53 49 26 31 61 53
68 86 100 84 77 89 85 100 100 100 100 100 100 100 100 80 64 59 45 45 35 31 32 25 29 29 24 16 19 40 49 58 62 78 80 66 78 61 36 39 41 85 63 51 45
65 74 100 64 77 91 100 100 100 100 100 100 100 100 96 85 73 63 51 47 34 32 28 27 30 33 39 28 20 18 26 32 39 63 46 39 46 30 42 56 86 74 51 47 65
46 55 94 38 96 100 100 100 100 100 100 100 100 99 75 67 76 58 52 48 38 32 32 28 30 34 54 43 42 33 24 20 26 32 25 29 28 38 84 79 54 59 84 75 64
27 40 57 71 86 100 100 100 100 99 100 100 91 92 68 66 72 68 63 52 40 34 38 38 31 32 51 54 55 56 54 53 58 59 67 68 84 80 94 62 47 86 86 73 69
16 30 36 99 100 100 100 100 100 97 100 98 98 93 75 87 88 81 70 55 40 45 36 35 33 34 49 60 53 30 42 39 36 40 66 68 55 61 44 41 59 76 75 67 74
12 17 48 97 94 93 86 100 100 100 100 100 100 99 94 100 89 76 73 61 51 41 38 34 30 36 56 54 51 24 21 18 21 29 42 45 44 33 34 42 64 62 64 78 79

GFSSW_250_rhum_024.txt.gz
RH
100 100 100 100 100 100 100 100 100 94 97 75 64 66 100 100 100 79 97 65 42 24 22 18 15 17 18 27 28 27 28 35 42 38 25 19 20 19 20 19 20 19 21 20 34
100 93 100 100 100 100 100 100 100 100 100 76 60 54 100 100 100 100 86 66 32 25 23 18 17 19 22 29 35 34 38 35 39 44 28 30 41 30 29 26 38 51 41 50 47
100 100 100 100 99 95 93 83 90 90 86 82 63 67 100 100 100 93 89 67 30 26 23 20 19 22 28 32 46 70 58 51 60 45 40 38 58 44 87 65 100 100 99 52 80
74 77 80 85 76 78 82 85 89 93 81 80 70 73 100 100 100 89 87 54 29 26 24 21 19 25 39 38 43 72 69 62 53 59 79 70 95 100 100 100 100 100 63 65 89
99 86 68 54 77 83 88 58 70 96 97 82 59 73 100 100 93 99 78 44 31 28 24 24 19 28 47 53 55 68 49 44 62 88 100 100 100 100 100 100 100 100 96 99 95
100 100 97 96 90 100 100 98 100 100 79 66 75 93 100 100 98 90 55 42 38 32 26 22 19 28 52 64 67 83 71 80 96 100 100 100 100 100 80 81 85 100 93 100 100
100 100 100 100 100 100 100 100 100 100 79 79 89 88 100 87 84 59 52 46 40 30 28 21 20 29 52 54 79 97 94 92 100 100 100 100 100 100 86 100 100 100 100 100 100
89 87 82 87 83 75 100 100 100 100 100 90 89 89 93 86 75 73 66 55 43 26 32 19 19 31 56 65 98 99 82 99 100 100 98 90 100 92 90 93 100 100 100 100 100
77 63 69 75 66 73 84 94 96 98 100 100 96 100 97 94 76 70 61 56 46 28 37 21 18 32 67 69 86 100 68 89 81 92 100 98 98 100 100 100 100 100 100 100 100
45 58 52 65 68 76 80 92 84 77 86 100 100 94 95 97 72 60 59 57 44 35 39 22 19 33 62 72 91 82 100 84 97 100 100 76 98 100 100 100 100 100 100 100 100
74 74 77 93 77 94 94 89 93 73 72 90 99 89 85 80 66 63 72 54 42 35 41 22 19 35 57 76 84 87 100 100 92 84 86 93 76 100 100 100 100 100 100 100 100
84 85 99 99 100 100 100 100 98 64 52 53 100 100 98 78 62 88 66 63 53 34 43 26 21 34 40 76 87 97 94 100 100 93 86 100 82 91 99 100 100 100 100 100 100
100 100 100 100 100 98 97 76 72 92 50 50 100 100 98 70 87 91 61 71 66 41 40 28 22 32 40 69 96 100 94 100 94 84 88 100 100 100 95 100 99 76 72 86 84
92 98 76 83 79 57 51 79 65 52 58 45 71 100 100 73 99 82 58 87 75 53 38 23 25 23 46 46 87 84 86 96 97 100 99 100 88 95 100 100 97 78 68 60 61
62 54 63 39 34 51 33 40 62 46 46 40 52 74 100 100 92 63 67 82 78 58 38 23 26 19 47 50 64 84 96 100 97 83 98 100 93 86 86 84 74 58 76 72 71
34 42 31 26 33 28 36 42 44 34 40 40 46 99 100 100 82 67 66 97 78 57 39 22 22 22 32 58 57 74 92 87 100 79 97 95 98 94 88 86 83 100 82 79 75
24 29 21 28 30 29 50 65 58 44 53 45 61 68 100 100 91 67 93 100 79 48 34 21 21 27 20 56 60 61 92 78 82 91 91 99 98 100 100 100 100 100 85 80 84
26 24 26 28 28 38 54 73 95 57 77 85 93 84 79 77 76 93 100 100 70 43 36 27 23 26 22 38 59 60 78 77 95 100 100 90 100 83 97 100 85 85 80 86 78
27 22 29 31 36 39 44 46 100 100 100 100 96 100 98 84 64 88 100 99 60 49 38 28 23 26 23 21 44 63 62 76 84 94 100 95 93 89 77 83 94 100 95 94 96
20 24 29 35 53 43 39 69 100 100 100 100 100 97 100 67 65 99 100 94 67 58 43 33 27 26 25 22 22 48 58 66 78 80 83 76 75 100 93 96 87 91 100 96 80
16 23 29 33 39 36 48 79 100 100 100 100 100 100 100 77 92 100 100 87 70 63 50 39 35 25 27 25 20 21 46 64 77 83 81 86 92 83 97 91 98 95 77 58 54
12 18 28 36 31 45 58 99 100 100 100 100 100 100 100 100 100 100 100 99 93 72 58 42 34 26 26 26 24 29 23 45 63 89 100 98 98 100 100 99 100 97 48 39 44
8 16 27 37 17 51 80 91 100 100 100 100 100 100 100 100 100 100 100 100 90 73 58 45 38 26 29 26 24 39 39 22 45 57 64 61 65 50 84 96 100 71 36 54 86
7 12 24 25 26 54 99 100 100 100 100 100 100 100 100 100 100 100 100 100 85 71 50 51 42 28 30 26 29 48 52 37 22 26 31 35 28 26 54 74 76 77 92 69 60
5 8 19 22 24 66 100 100 100 90 98 100 100 100 100 100 100 100 100 99 80 64 58 54 42 31 29 25 28 62 58 58 50 38 38 37 48 50 46 92 100 100 85 54 36
4 8 13 27 31 53 100 100 100 88 97 100 100 100 100 100 100 100 100 97 78 69 64 58 46 30 35 26 28 62 50 42 47 57 64 79 84 72 72 80 94 90 62 43 35
4 7 13 24 27 40 71 100 100 100 100 100 100 100 100 100 100 100 100 91 86 82 70 70 55 39 34 34 28 55 54 52 33 22 32 34 34 29 35 44 46 43 36 48 68

GFSSW_250_rhum_027.txt.gz
RH
82 68 85 86 100 100 100 100 100 98 98 89 98 83 75 69 76 66 78 58 45 45 47 44 25 23 18 13 18 26 29 29 37 40 42 39 33 37 50 32 17 20 17 24 43
97 90 72 71 72 80 100 100 100 100 100 96 83 85 58 66 87 90 84 49 45 38 44 35 27 25 20 17 22 32 32 45 48 45 53 46 73 48 46 52 37 33 21 29 41
81 76 78 73 66 72 85 100 92 86 73 65 73 53 68 87 79 76 83 54 49 44 54 39 27 25 22 19 28 35 40 57 54 63 65 87 84 98 64 64 97 96 82 79 55
100 100 88 75 66 73 84 73 78 78 64 68 68 84 94 74 89 75 77 64 57 58 56 33 24 26 21 22 37 40 45 67 80 75 75 75 87 100 99 100 100 100 100 61 33
83 100 100 100 91 87 99 84 73 78 99 84 68 84 92 88 87 77 70 54 65 76 50 34 25 25 20 23 48 50 38 57 80 93 96 100 100 100 100 100 100 100 95 56 69
51 100 100 100 100 99 92 80 78 89 100 100 100 95 67 99 99 89 62 70 76 63 41 33 24 28 20 28 54 57 54 44 95 100 100 100 100 100 100 100 100 100 95 74 84
31 40 100 100 100 100 100 100 100 100 100 100 94 98 99 100 99 82 70 74 73 51 34 30 24 31 21 30 55 67 58 56 99 97 100 100 100 100 100 100 100 78 91 95 100
41 27 57 99 98 100 100 100 88 88 91 97 83 84 84 85 79 75 82 71 64 53 34 28 26 34 22 31 58 69 71 72 94 100 99 88 100 100 100 100 94 99 96 98 100
62 53 29 61 43 61 86 86 86 85 82 85 81 85 83 66 63 53 73 61 59 45 34 29 27 31 23 29 59 67 77 83 67 88 80 92 99 96 98 100 98 100 100 95 100
99 88 40 34 45 43 79 75 61 73 83 84 100 84 99 90 82 69 62 57 58 42 37 30 31 33 24 30 47 75 83 76 76 84 72 75 87 93 96 100 100 100 100 100 100
100 100 83 52 43 52 46 57 49 60 74 90 100 100 100 93 73 81 59 58 56 44 36 31 33 35 24 24 43 66 76 94 85 63 74 76 88 100 100 100 100 100 100 100 100
100 100 100 85 63 59 57 56 73 64 82 100 100 92 87 83 67 64 56 70 53 43 39 32 35 31 26 23 41 62 73 78 90 99 83 89 72 84 80 96 100 100 100 100 100
100 100 100 100 98 71 71 75 90 95 64 100 100 95 72 66 50 58 52 50 44 49 42 34 40 27 26 23 44 50 89 74 84 100 94 82 74 76 95 82 100 100 100 99 84
100 100 100 100 100 94 96 97 98 100 100 100 100 91 72 45 53 54 48 44 85 50 45 39 47 31 23 24 39 56 74 97 99 100 100 100 100 99 96 95 93 100 100 95 91
100 92 100 100 100 100 100 100 100 100 100 100 87 80 68 46 53 48 43 60 90 60 49 46 54 36 24 25 28 56 56 78 100 94 99 98 92 99 79 99 100 100 95 72 65
99 79 78 91 100 100 100 100 100 100 100 100 80 62 48 57 84 50 40 51 41 68 54 61 55 36 24 24 24 42 61 66 83 90 99 99 100 100 92 76 84 89 79 75 85
100 98 94 95 100 100 100 100 100 100 100 75 70 58 98 99 97 53 66 63 44 60 54 72 56 37 32 26 25 27 70 67 72 90 97 100 100 100 91 90 80 79 97 82 99
56 53 56 88 100 77 94 77 79 83 47 54 63 45 64 99 100 72 95 74 45 44 44 70 58 42 38 33 26 26 36 73 72 72 90 99 99 78 78 86 100 100 100 98 94
26 26 32 42 44 42 92 85 37 39 40 47 43 51 62 98 100 100 100 80 44 36 47 73 62 51 39 33 27 27 26 46 73 72 93 100 100 100 74 88 90 83 100 95 84
16 18 23 28 32 29 26 28 46 36 36 38 38 87 75 100 100 100 98 92 46 46 65 76 65 58 43 35 29 29 32 26 57 71 81 99 100 100 100 100 100 100 93 95 96
6 8 14 21 25 23 20 27 32 34 38 38 51 94 99 100 100 100 100 82 47 63 77 78 83 62 47 35 35 28 31 26 37 80 72 73 93 88 100 100 100 100 100 99 93
5 4 8 10 14 14 21 28 33 33 38 44 87 100 99 100 100 95 100 95 52 86 100 83 86 58 48 36 32 29 29 30 23 46 58 82 99 68 87 100 97 96 100 100 91
5 7 6 7 9 10 20 29 34 36 39 53 94 100 100 93 100 98 100 83 85 100 100 99 87 65 46 35 34 30 30 29 38 41 45 76 96 52 55 87 98 96 100 96 80
4 5 6 4 5 9 16 32 33 45 42 73 72 99 100 100 100 95 100 87 100 100 100 99 74 61 50 39 34 30 30 33 44 50 32 44 55 50 56 70 76 84 80 69 75
3 4 5 4 4 8 18 29 36 51 46 84 71 100 100 100 100 100 100 92 100 100 100 93 78 69 56 39 37 34 33 30 51 53 57 42 38 38 44 40 38 44 56 59 48
3 4 4 6 8 9 17 26 44 68 71 64 92 100 100 100 100 100 100 100 100 100 100 99 93 77 52 39 43 39 31 37 37 52 51 54 67 56 63 74 86 100 99 83 63
4 4 5 7 6 8 18 31 65 100 85 88 100 100 100 100 100 100 100 100 100 100 98 90 78 64 49 39 54 41 39 40 36 52 54 35 57 59 70 74 73 79 85 93 72

GFSSW_250_rhum_030.txt.gz
RH
87 89 100 89 92 94 94 95 87 94 94 93 100 93 90 85 63 60 57 47 45 36 26 42 41 44 29 25 21 15 29 39 34 35 37 39 44 51 45 42 20 13 18 18 28
87 77 97 95 98 97 85 71 89 77 88 93 100 83 69 75 75 56 59 52 52 27 35 44 40 38 27 25 19 17 38 41 40 42 44 48 66 73 57 46 56 20 29 42 45
36 41 55 96 87 71 71 60 72 82 86 89 87 80 68 65 66 65 43 41 36 48 37 43 53 41 26 25 17 19 41 40 46 52 62 98 100 100 80 84 88 70 71 49 48
42 38 50 63 72 95 68 53 73 69 81 99 99 63 56 89 59 59 52 53 50 48 30 56 44 32 27 24 18 22 46 44 47 64 72 72 100 100 100 100 100 100 100 100 98
47 44 40 41 40 94 100 92 87 95 100 100 91 76 100 85 84 64 81 51 41 34 41 42 43 32 28 28 20 25 48 41 43 67 76 80 99 100 100 100 100 100 100 70 79
69 54 50 50 38 94 100 100 100 100 100 98 99 100 100 94 79 85 62 42 35 30 28 42 40 33 30 32 22 32 52 46 42 71 88 100 100 100 100 100 100 100 99 92 94
84 99 64 59 47 52 100 100 100 100 100 100 100 94 100 94 65 53 56 38 40 41 49 34 39 34 32 30 22 40 59 53 67 64 89 100 100 100 100 100 100 100 90 100 100
60 100 98 66 53 40 70 100 100 100 100 100 90 93 81 77 59 58 52 66 58 41 52 44 37 34 38 26 23 40 69 74 67 58 73 73 92 81 82 100 98 97 79 99 100
37 90 100 100 71 51 46 100 100 100 93 88 85 87 92 64 71 68 71 46 50 54 53 45 31 36 39 27 23 32 67 81 84 67 58 70 70 91 94 100 82 77 66 85 93
39 74 89 100 100 72 59 61 92 72 47 47 80 76 74 70 78 100 96 55 52 50 43 45 26 40 50 30 25 28 53 70 93 79 69 74 94 84 89 84 86 100 99 79 97
32 65 53 100 100 100 85 62 72 62 53 54 59 75 49 64 100 100 100 89 55 62 56 46 28 35 48 38 27 27 51 70 76 89 77 76 99 100 84 87 79 100 100 100 100
35 35 69 60 80 100 100 96 63 67 67 50 51 50 53 68 97 100 100 89 78 68 46 51 31 30 50 39 30 25 45 62 72 77 79 72 81 89 96 76 79 77 89 100 98
71 60 70 57 80 90 82 100 97 83 69 63 64 61 61 80 99 100 100 78 57 62 60 55 33 28 53 40 32 24 29 60 51 69 88 70 76 69 81 91 84 94 99 100 74
79 87 100 99 74 77 96 100 100 100 90 79 82 78 74 99 100 100 100 100 69 66 52 55 39 26 43 42 34 26 26 53 58 68 88 95 79 75 85 88 84 92 100 100 100
100 100 100 99 100 93 66 100 100 100 100 91 100 92 92 100 100 100 100 98 74 77 63 50 44 30 27 42 41 32 26 37 66 68 85 100 100 95 86 71 89 95 100 100 97
100 100 100 100 100 100 100 76 94 94 100 100 98 100 100 100 100 100 100 100 100 100 64 46 46 32 33 44 43 33 29 31 61 72 87 83 98 100 100 77 73 95 93 95 97
100 87 99 100 83 100 100 100 98 84 89 100 100 100 100 100 100 100 100 100 100 100 92 47 44 28 36 50 45 38 33 31 37 73 78 77 91 95 88 84 96 79 92 94 98
49 85 63 100 88 85 100 100 100 100 100 100 100 100 100 100 100 100 100 99 92 97 93 54 51 28 29 51 49 42 36 34 32 47 73 81 82 78 74 82 87 80 81 80 76
24 29 34 52 100 81 100 78 88 100 90 100 100 88 100 100 100 100 100 100 78 89 95 69 59 33 36 57 51 45 42 36 33 35 57 82 84 80 77 85 87 91 90 89 84
10 12 20 34 54 50 50 47 77 86 100 100 96 100 93 100 100 100 100 85 79 100 100 68 52 34 54 64 51 44 42 35 34 37 42 77 90 76 69 64 66 87 89 95 84
5 5 9 16 22 22 20 22 51 100 100 100 97 100 98 99 100 84 100 67 51 100 100 66 50 38 73 79 57 44 43 36 33 37 39 64 78 78 60 63 74 79 93 98 100
6 6 7 7 10 10 11 22 26 71 100 100 100 100 93 100 100 98 100 56 100 100 98 72 46 55 94 86 64 45 38 37 38 37 46 39 65 78 74 68 73 80 91 91 91
3 5 7 7 5 4 8 15 17 28 79 90 100 97 80 64 98 68 61 55 100 100 89 100 46 90 100 86 69 51 39 39 30 33 60 46 43 51 54 72 78 76 74 82 81
2 3 4 5 5 5 6 7 13 19 25 44 54 47 40 41 42 49 40 80 100 92 88 80 52 69 100 98 75 50 47 37 32 36 38 60 61 43 30 39 61 88 86 79 81
2 2 3 4 6 8 8 7 9 10 21 28 35 38 35 42 43 42 59 100 100 100 100 100 79 63 100 100 81 56 46 39 43 38 36 48 60 56 48 34 36 54 59 56 54
2 3 4 5 5 5 6 8 8 10 15 26 34 38 42 42 40 88 100 92 100 100 74 100 70 74 100 99 80 72 37 41 39 38 44 41 52 55 54 56 43 43 45 59 65
3 4 3 4 4 3 6 8 12 14 17 25 40 46 45 45 45 99 100 100 100 100 80 100 74 98 100 89 81 83 49 41 43 46 46 40 47 49 47 39 44 64 78 97 100

GFSSW_250_rhum_033.txt.gz
RH
34 20 21 28 63 89 90 100 100 100 96 85 100 76 86 65 91 92 89 74 55 47 27 25 28 25 27 33 28 20 16 18 34 31 41 35 32 36 27 23 14 12 79 100 100
36 24 28 52 84 97 90 91 88 96 97 84 77 93 91 85 100 100 99 68 53 36 29 22 20 24 29 34 27 19 17 23 35 32 50 40 42 51 38 40 31 30 36 100 100
33 29 32 39 42 48 45 55 69 96 82 64 50 72 100 78 100 89 100 47 44 41 34 21 21 25 27 32 24 20 18 31 37 34 60 55 86 62 79 98 100 49 31 61 100
45 35 35 43 43 43 46 51 62 88 85 65 75 81 97 100 90 100 99 45 49 52 25 20 20 34 33 32 22 22 20 32 41 37 66 96 85 66 97 100 100 91 62 68 70
51 32 34 39 46 44 44 47 49 70 100 100 99 100 97 100 100 96 82 66 53 34 25 18 24 34 34 32 28 25 22 35 46 44 72 72 76 95 100 95 96 100 99 86 95
80 46 32 30 40 54 49 48 52 99 100 100 99 100 100 100 100 100 89 63 36 43 29 21 24 35 32 30 28 28 27 45 52 58 60 74 100 96 98 100 99 100 99 96 84
89 64 45 39 32 50 56 58 56 82 100 100 100 99 100 100 100 100 71 51 44 53 29 28 34 42 35 30 30 30 29 53 68 70 63 97 96 62 100 100 100 81 80 96 100
99 78 62 50 30 29 45 81 63 62 95 100 100 100 100 100 100 84 55 51 61 55 44 42 33 40 40 32 35 28 28 61 77 74 59 99 100 89 91 100 100 89 92 91 99
100 81 80 61 50 30 43 57 94 71 60 97 100 100 100 96 100 83 54 45 41 91 53 55 32 33 39 32 43 27 28 55 81 87 63 100 100 94 84 100 98 85 94 98 97
100 100 83 72 56 34 31 36 76 86 69 69 100 100 100 69 71 63 65 39 60 69 57 80 75 46 40 38 45 33 26 44 65 77 70 67 88 70 75 88 84 76 68 84 98
100 100 99 87 89 44 32 28 61 89 90 72 87 94 72 73 56 59 54 45 50 99 50 90 80 47 38 41 43 37 32 27 56 77 76 77 79 92 82 82 77 100 91 79 81
79 96 98 89 55 36 32 31 46 88 100 82 86 96 89 62 56 48 50 49 61 83 95 93 55 55 37 41 46 43 36 25 45 61 77 80 82 78 100 100 85 89 100 100 100
46 39 44 51 50 41 32 30 37 53 98 100 80 98 85 80 79 58 66 69 71 91 100 100 85 76 62 40 48 48 39 27 29 59 67 67 75 82 95 96 75 71 96 100 100
38 41 53 44 50 44 35 31 37 37 56 100 100 98 97 100 90 89 83 90 96 100 100 100 92 92 81 39 47 50 42 32 27 50 67 74 60 70 77 68 69 64 71 89 100
67 49 36 44 44 61 39 51 36 53 42 81 100 100 100 100 94 92 98 92 100 100 100 100 100 100 70 41 42 52 46 36 31 29 61 72 74 70 95 86 69 72 72 100 100
82 63 72 59 54 54 51 58 42 45 50 60 100 100 100 100 100 89 90 92 100 100 95 100 100 93 75 55 39 62 48 41 38 30 44 66 85 80 82 93 97 88 67 69 97
99 60 62 62 81 84 98 72 82 48 80 66 64 94 100 100 100 99 99 94 88 100 100 100 100 100 99 65 43 52 56 44 39 32 32 51 75 82 75 77 100 100 90 86 83
44 69 100 100 100 81 64 60 80 84 89 92 95 98 72 100 100 100 100 100 100 100 100 99 100 100 100 64 45 54 60 46 42 37 30 34 55 71 85 76 75 75 97 96 89
22 24 29 43 100 100 96 68 47 97 100 100 100 100 91 62 82 100 100 100 100 100 100 99 95 100 94 57 48 55 77 54 44 41 34 33 36 49 71 78 67 61 62 64 74
15 18 19 21 26 36 48 33 49 85 100 100 100 100 100 100 89 100 100 100 100 100 100 100 100 100 100 70 49 49 79 66 47 43 36 29 35 39 58 64 80 66 58 61 67
7 9 14 15 18 18 16 18 28 90 76 91 100 100 100 100 100 100 100 100 100 100 100 100 100 100 100 95 45 46 88 81 53 46 39 33 36 32 33 34 68 79 71 62 61
7 7 9 9 10 9 10 16 20 26 48 49 100 100 100 100 100 100 100 100 100 100 100 100 100 94 91 82 79 41 96 94 64 44 42 35 35 32 35 26 36 61 80 76 70
5 6 7 8 7 6 6 8 14 17 18 29 46 94 99 100 100 100 100 100 100 100 100 99 95 100 93 100 70 50 100 99 73 45 47 40 42 28 43 41 40 35 48 90 90
5 5 6 5 6 7 7 8 8 9 12 18 31 47 87 100 100 100 100 100 100 100 100 100 94 92 100 99 64 52 100 100 72 52 42 47 36 34 34 39 53 55 45 39 73
5 3 6 6 6 9 8 9 8 7 7 12 24 31 44 92 100 100 100 100 100 100 100 97 75 85 100 100 93 43 97 100 91 56 44 45 38 38 32 37 52 59 56 41 37
4 2 6 8 9 6 5 4 6 8 8 8 14 28 42 55 100 100 84 91 95 100 100 97 82 67 92 98 94 46 73 100 97 60 55 44 44 38 33 36 49 52 53 57 53
3 4 5 6 6 5 6 8 8 8 7 9 12 19 30 42 62 98 85 83 70 86 98 100 67 53 100 100 100 98 93 94 94 60 60 47 46 43 32 33 44 47 45 50 58

GFSSW_250_rhum_036.txt.gz
RH
89 89 66 66 51 46 28 22 19 62 99 100 100 100 94 77 77 66 77 100 100 85 58 42 24 25 19 22 20 24 22 15 13 24 17 19 75 69 32 96 100 100 100 100 100
89 79 96 78 65 46 31 24 36 50 75 71 64 73 74 76 54 55 81 100 96 52 67 41 34 21 18 22 24 25 26 16 18 24 22 33 31 100 100 100 95 100 100 100 100
100 90 96 87 64 40 34 29 30 40 53 50 51 71 61 60 44 70 96 100 93 60 78 54 36 22 19 20 22 26 27 17 22 27 32 47 41 86 100 100 100 99 93 97 100
100 81 100 99 66 48 48 33 36 42 46 47 45 56 59 66 98 100 100 100 96 76 78 38 31 25 21 22 24 26 27 18 30 27 38 52 100 100 100 100 100 100 85 98 100
96 100 100 89 80 59 53 35 34 39 40 42 59 61 48 75 87 100 100 100 88 85 67 41 30 23 22 27 27 34 27 19 34 31 38 42 93 95 99 93 100 100 97 98 100
97 100 100 100 99 71 52 39 33 35 39 43 69 96 56 51 90 100 84 96 94 100 55 34 32 22 27 33 29 42 31 21 36 36 60 66 79 52 46 76 96 77 75 65 98
100 100 100 100 98 89 85 60 46 30 29 40 55 96 99 61 99 100 100 100 96 62 44 46 47 24 34 34 32 52 37 28 35 56 88 95 79 76 76 69 61 61 56 69 71
100 92 100 100 100 100 92 76 54 48 31 34 41 75 100 100 100 100 100 100 100 76 46 49 41 41 43 34 34 50 44 34 21 56 100 100 100 100 100 100 66 85 83 81 80
100 100 100 100 100 100 100 88 66 59 43 31 33 56 78 100 100 98 100 100 91 58 54 42 44 47 67 38 45 40 51 38 24 46 68 100 100 100 100 68 97 58 79 81 100
100 100 100 100 100 100 100 99 84 74 59 39 33 37 60 82 100 100 100 99 59 42 34 42 55 71 80 44 50 40 46 41 29 24 49 86 98 100 100 100 55 73 61 85 100
100 100 100 100 100 100 100 100 100 84 72 63 40 34 42 70 100 100 100 70 50 42 33 46 60 95 100 63 63 37 30 46 40 28 33 50 47 98 100 100 70 76 82 89 84
92 97 96 81 100 100 100 100 100 100 87 79 48 28 38 47 91 100 99 59 55 49 46 57 64 100 98 90 77 63 37 49 44 31 28 58 45 80 94 100 60 76 100 89 92
100 89 76 99 100 100 100 100 100 100 97 88 57 30 29 57 53 57 45 50 54 58 63 78 96 100 99 100 67 82 41 39 51 40 35 44 64 62 51 67 100 99 97 66 100
100 100 100 85 78 67 71 76 73 74 67 91 59 38 30 52 100 88 76 73 59 75 72 88 96 100 100 100 93 90 71 43 48 44 36 30 48 66 69 66 67 82 68 82 98
95 100 100 87 72 59 50 43 39 42 50 58 51 34 35 36 96 100 100 90 96 100 63 94 94 100 100 100 100 96 70 48 35 52 38 32 31 52 72 66 62 67 69 77 65
69 87 87 95 94 76 50 49 47 45 50 44 46 44 38 33 41 98 100 100 100 100 100 100 76 86 95 100 100 96 59 61 37 61 42 40 31 31 54 72 63 65 84 75 71
65 47 73 82 80 74 65 70 53 41 46 55 42 35 48 42 34 56 96 100 100 100 100 100 89 67 82 100 100 100 65 65 44 58 55 40 34 29 29 48 76 67 98 100 69
63 48 48 60 51 73 72 65 55 54 47 57 51 40 40 43 57 53 61 97 100 100 100 100 100 100 85 100 100 100 87 66 58 43 68 47 39 35 31 26 72 77 67 90 100
38 35 39 46 57 71 60 52 35 62 54 72 61 58 39 54 63 77 62 85 100 100 100 100 100 100 100 100 100 100 98 70 78 38 77 59 51 40 27 28 32 65 72 62 52
25 25 24 28 33 36 38 32 49 83 84 70 54 66 45 49 78 99 94 91 100 100 100 100 100 94 100 100 100 100 100 97 91 35 81 71 52 40 36 25 29 34 54 67 73
15 16 18 20 20 17 17 22 28 69 75 100 82 60 50 62 81 90 100 100 100 100 100 100 100 91 100 100 100 100 100 100 62 38 57 80 60 47 39 30 27 34 28 42 68
8 10 14 13 14 12 14 18 20 22 22 38 69 37 51 68 93 86 100 100 100 100 100 100 100 100 100 100 100 100 100 80 60 42 97 99 70 50 42 41 29 26 28 36 30
8 8 10 10 6 7 9 11 14 16 20 24 27 40 54 50 63 97 100 100 100 100 100 100 100 100 100 100 100 100 100 61 71 65 76 100 82 59 45 42 35 30 30 38 59
7 6 8 6 7 7 9 10 10 13 13 16 20 23 37 83 60 80 100 100 100 100 100 100 100 100 100 100 100 100 100 82 86 79 54 93 100 73 54 47 41 30 25 36 45
6 5 6 6 8 10 9 15 10 10 9 9 12 16 21 34 95 57 100 100 100 100 100 100 100 100 100 100 100 100 100 99 95 96 51 52 100 72 54 51 45 32 33 29 38
8 5 7 10 12 12 10 13 12 10 10 8 7 9 18 24 44 68 86 99 100 100 100 100 100 100 100 100 100 100 100 98 100 100 79 46 100 85 56 52 50 34 31 30 40
7 6 6 8 12 13 11 21 22 24 9 9 8 12 14 18 28 33 56 80 91 100 100 100 100 100 100 100 100 88 95 100 78 79 51 63 100 92 63 54 53 36 33 33 36

GFSSW_250_rhum_039.txt.gz
RH
93 88 68 43 45 45 54 82 43 34 41 25 21 21 65 100 100 100 75 70 62 52 91 59 53 46 42 43 26 19 19 16 16 11 20 16 61 100 100 100 100 100 86 100 72
82 62 61 39 50 56 58 86 65 56 51 38 23 23 36 53 59 63 60 56 50 83 75 93 53 55 54 34 20 21 20 20 15 13 23 39 100 100 100 99 100 100 100 100 53
96 55 52 55 55 74 77 76 100 77 63 42 28 28 28 32 40 46 62 66 97 99 90 95 89 63 48 22 20 21 24 25 15 20 22 32 95 100 100 96 100 100 100 98 62
100 100 65 65 59 67 84 81 99 81 61 47 28 28 30 29 32 82 98 99 100 93 100 100 83 74 36 24 29 21 27 27 16 29 24 26 63 100 100 100 100 74 89 78 86
100 100 98 72 72 71 83 87 98 81 66 48 33 36 32 33 27 58 81 90 76 98 100 100 92 52 32 26 31 24 27 30 19 35 27 36 80 100 100 98 82 87 92 92 98
100 100 100 98 88 85 87 100 100 79 78 65 45 39 40 38 44 40 81 71 68 93 100 100 70 37 28 20 42 34 26 36 24 43 34 60 99 100 97 100 81 70 56 58 65
100 100 100 100 100 100 99 99 100 100 95 74 60 48 45 34 70 37 67 94 88 97 100 99 82 50 29 21 74 37 29 39 32 48 39 38 82 85 82 100 40 54 69 62 71
100 100 95 99 100 100 100 100 100 100 90 92 83 62 52 29 36 72 97 100 97 100 100 100 84 43 28 29 77 46 45 31 39 35 59 42 34 44 52 86 97 78 52 59 66
100 99 100 80 72 98 100 100 100 100 97 100 91 80 63 46 37 80 95 100 100 100 97 100 84 32 29 35 80 77 62 48 35 34 31 71 58 40 60 100 100 97 89 75 59
100 100 100 100 100 97 87 100 100 100 100 100 100 97 80 56 45 40 70 88 94 80 100 100 73 28 35 44 87 76 91 76 48 33 33 35 63 100 50 61 81 72 98 75 66
100 100 100 100 100 92 64 65 93 89 78 100 85 100 100 69 64 48 39 72 85 89 100 100 62 23 26 61 87 69 99 88 59 41 31 33 35 50 100 100 55 98 92 66 80
100 100 100 100 100 100 100 100 80 73 63 65 78 100 100 83 56 62 37 37 61 63 100 100 63 29 27 60 88 69 97 98 82 52 30 31 24 37 70 100 88 84 54 62 55
100 100 100 100 100 100 100 100 100 100 100 100 100 100 100 94 94 80 51 37 36 46 65 85 29 26 37 89 81 68 96 100 93 56 48 32 34 26 40 57 66 96 49 97 59
100 100 100 100 100 100 100 100 100 100 100 100 100 98 100 100 90 91 60 36 38 53 37 37 32 33 30 57 82 95 55 100 93 82 62 33 34 33 27 41 53 67 60 76 65
100 100 100 100 100 100 100 100 100 96 82 100 100 99 100 100 100 78 70 55 34 64 95 100 75 68 56 59 72 97 43 85 100 82 56 36 32 35 27 33 64 78 61 49 56
100 100 100 100 100 100 100 100 100 100 75 77 71 86 81 69 59 50 52 46 42 34 70 100 100 100 100 100 95 99 46 51 100 84 58 40 33 41 31 26 38 70 74 78 56
100 100 100 100 100 100 100 100 100 100 100 100 95 68 66 69 61 44 49 48 43 37 35 100 100 100 100 100 100 100 96 100 100 91 69 48 36 31 38 31 28 42 68 72 56
86 69 87 98 97 96 94 99 80 83 71 86 100 91 74 68 67 63 49 52 47 43 49 47 88 99 100 100 100 100 100 100 100 92 75 66 42 36 50 38 35 28 44 74 87
65 69 63 63 58 67 72 71 85 87 78 55 64 75 82 82 69 59 64 54 50 46 42 47 57 100 100 100 100 100 100 90 96 93 100 81 46 35 52 46 40 32 28 32 75
46 56 59 57 59 56 39 39 56 86 70 68 75 55 66 70 74 73 53 54 58 57 49 48 56 90 100 99 85 98 97 78 79 88 100 88 47 36 66 66 45 35 29 28 28
26 30 44 48 42 35 38 42 49 56 58 57 69 54 60 68 62 71 66 59 71 100 67 45 53 90 97 100 84 99 80 95 82 94 100 90 53 38 81 90 59 40 33 32 28
19 21 27 24 22 22 25 27 35 36 39 46 45 55 53 69 73 65 47 66 81 100 100 71 67 88 100 100 100 100 91 100 100 100 100 87 85 50 45 90 73 64 38 36 35
14 16 18 17 15 16 17 18 20 23 22 27 27 34 45 44 54 54 58 58 68 88 100 100 68 86 92 87 100 100 100 100 100 100 98 93 100 75 47 48 81 84 45 34 32
8 8 10 10 12 12 13 15 15 15 17 18 18 21 23 26 29 40 50 71 62 66 98 100 100 99 94 100 100 100 100 100 100 100 100 100 100 66 64 47 63 93 53 34 32
9 8 10 10 11 11 10 10 12 10 10 12 15 16 20 20 24 29 39 58 99 88 75 100 98 100 100 100 100 100 100 99 100 100 100 100 100 100 100 43 47 100 63 41 40
7 7 9 8 9 9 8 12 14 17 13 11 11 12 14 13 15 19 28 39 76 100 78 82 92 100 100 100 100 100 100 96 98 100 100 100 93 100 94 40 53 100 73 51 46
9 9 8 10 11 10 14 32 25 32 14 15 17 17 8 11 13 14 19 21 35 85 92 70 80 86 89 99 100 99 100 100 100 100 100 100 88 89 66 40 60 100 86 56 44

GFSSW_250_rhum_042.txt.gz
RH
46 40 74 100 100 100 89 98 66 47 42 42 33 30 52 38 24 20 24 75 99 97 74 57 59 76 64 59 62 42 25 25 15 17 14 16 25 85 99 72 100 100 97 90 84
61 62 92 100 100 100 82 88 79 54 44 50 40 33 71 39 30 20 22 52 65 68 55 56 84 72 90 83 60 31 24 19 18 16 18 23 68 94 100 98 100 100 96 72 60
72 85 100 100 100 100 100 82 88 50 46 55 70 53 73 38 29 22 22 26 42 66 81 98 72 100 97 73 64 45 24 22 22 16 22 27 94 100 100 100 100 100 100 63 71
100 88 92 98 100 100 100 85 79 58 56 64 84 74 72 37 36 37 26 29 92 99 95 68 81 100 100 72 26 44 32 25 25 18 29 37 91 100 100 92 99 68 83 58 54
100 94 90 100 100 100 100 94 72 69 64 58 90 80 71 45 45 40 33 30 55 74 60 63 79 100 87 65 51 30 58 36 26 23 34 53 55 100 100 85 83 92 92 75 51
100 100 100 100 100 100 100 100 98 80 76 71 67 86 74 71 48 41 37 33 49 55 42 70 100 100 95 83 55 32 52 34 30 29 30 79 75 96 100 74 64 73 88 88 47
100 100 100 100 98 100 81 100 100 96 91 88 91 100 91 76 51 50 36 39 38 46 42 44 93 100 98 64 44 32 49 40 52 39 29 43 69 63 75 71 60 72 53 64 56
100 100 100 100 100 92 99 86 100 100 100 100 100 98 100 95 77 66 56 41 42 44 62 77 97 100 100 95 56 39 49 41 45 53 36 33 43 44 57 61 44 51 48 39 38
100 100 100 100 100 100 100 98 62 91 100 100 100 100 100 99 92 81 67 48 44 67 62 57 97 98 100 99 45 39 44 77 47 62 47 31 34 31 46 48 42 43 53 52 62
100 100 100 100 100 100 100 100 99 93 94 100 100 100 100 100 100 91 73 75 43 54 76 74 64 66 98 100 49 23 34 55 78 43 75 51 34 28 40 60 53 53 62 52 55
100 100 100 100 100 88 100 100 100 100 77 72 92 100 100 100 100 100 84 80 68 37 47 54 75 42 65 100 80 42 28 44 78 50 83 56 33 32 28 34 47 72 67 73 77
100 96 96 100 100 100 100 87 76 69 76 72 72 75 100 100 100 100 100 99 92 58 33 41 44 73 59 81 80 27 39 55 69 67 90 67 36 33 32 27 39 84 100 86 58
100 100 100 100 100 100 100 100 75 52 64 96 99 95 76 88 96 67 99 100 98 60 54 42 41 40 49 48 50 28 31 64 64 61 60 81 49 36 31 30 26 40 55 78 84
100 100 100 100 100 100 100 100 100 100 100 100 92 54 57 67 83 96 100 100 95 100 94 58 41 38 41 41 39 39 30 68 97 56 66 73 66 34 36 31 25 34 48 57 69
100 96 96 100 100 100 100 100 100 100 96 100 100 100 100 73 97 100 96 76 100 100 82 70 45 42 53 78 60 59 78 88 100 95 72 72 73 47 38 40 32 23 34 46 52
100 100 100 100 100 86 97 99 99 99 100 100 100 100 100 100 100 100 100 100 100 100 100 93 73 54 36 59 94 92 98 100 100 100 97 83 66 56 44 43 35 24 23 32 39
100 100 94 100 100 98 83 99 92 95 100 100 100 100 100 100 100 100 100 100 100 100 100 88 61 43 42 34 49 92 73 85 100 100 94 81 58 93 57 39 35 35 24 26 27
98 88 98 100 99 99 92 96 98 100 100 100 100 95 99 100 100 100 100 94 73 89 85 68 58 43 44 34 32 63 56 67 100 97 99 56 58 100 67 46 46 30 34 29 29
71 73 100 100 100 100 73 87 100 100 100 100 100 100 100 100 100 100 100 83 78 79 67 69 73 55 39 33 32 36 61 94 98 97 58 68 58 87 83 61 41 30 29 36 35
44 63 77 80 85 91 88 99 100 90 96 100 98 100 100 99 98 100 100 100 100 100 100 94 84 75 57 39 34 39 50 83 87 84 73 85 56 88 90 75 54 39 29 39 37
29 32 58 49 43 49 75 100 100 99 100 91 100 93 96 88 96 100 100 88 75 78 86 100 90 84 66 43 39 37 45 92 83 76 63 84 74 94 99 78 63 47 40 29 31
22 24 30 30 31 37 49 63 79 85 79 79 80 81 93 96 91 70 65 68 79 74 62 78 86 77 72 70 55 37 45 96 97 91 60 90 100 89 97 83 65 64 50 38 27
15 18 20 20 22 29 39 37 48 60 60 64 77 78 75 77 69 74 76 66 86 80 80 85 83 85 76 65 63 61 70 94 100 99 66 79 100 100 93 98 72 68 62 45 35
12 12 13 15 19 20 22 25 30 38 39 42 45 50 69 70 65 71 75 70 70 96 100 93 81 93 83 83 87 76 87 94 100 92 79 78 100 100 100 95 85 53 73 63 68
8 10 12 14 16 18 18 20 22 25 24 24 26 32 39 45 40 42 51 57 58 57 94 100 98 77 74 91 86 72 73 90 93 99 84 100 100 100 100 93 78 60 64 51 68
6 8 9 11 12 13 14 18 21 20 19 20 21 23 20 23 23 25 25 27 33 48 60 56 65 60 57 78 98 100 79 100 97 89 82 82 96 100 100 96 89 78 64 60 54
8 8 10 11 11 11 13 18 12 9 10 13 14 16 13 15 17 20 20 21 24 30 36 28 44 55 60 76 91 100 85 95 100 100 100 100 100 100 100 100 100 83 64 68 58

GFSSW_250_rhum_045.txt.gz
RH
24 19 17 17 21 27 31 34 39 86 100 100 97 80 60 39 34 30 56 29 21 21 47 100 92 74 62 53 68 77 79 54 32 20 16 16 15 23 35 69 81 100 100 100 94
25 20 17 16 19 27 40 46 56 96 100 100 100 85 54 40 38 37 58 31 29 20 20 55 76 62 60 62 88 100 44 58 46 33 22 17 25 42 98 100 100 100 100 100 100
19 19 17 18 32 36 39 53 89 97 100 100 100 96 70 45 50 49 66 39 32 25 22 46 46 73 77 84 100 76 66 52 47 32 22 20 44 57 100 100 100 100 100 100 91
18 17 17 32 62 48 50 76 70 99 100 100 100 100 82 48 55 48 71 42 36 29 24 88 97 80 78 100 100 81 74 52 34 40 24 20 37 58 100 100 99 99 93 93 69
18 18 60 72 88 82 89 99 96 73 100 100 100 100 79 57 61 68 71 51 40 35 25 28 80 56 72 100 96 75 56 50 29 45 48 25 27 69 100 100 97 88 83 69 49
24 33 85 100 100 100 100 100 100 95 82 100 100 99 70 67 59 76 80 63 46 37 32 31 50 45 100 100 92 79 68 60 30 41 53 34 26 44 75 81 100 93 78 67 49
33 55 90 100 100 100 100 100 100 94 74 100 100 100 79 81 77 87 87 68 61 48 38 36 38 33 42 100 100 100 82 56 35 39 43 54 33 27 25 42 68 73 83 75 64
56 74 100 100 100 100 100 100 100 100 80 80 100 100 100 84 81 98 98 95 72 60 45 38 40 44 76 100 100 100 91 56 34 37 51 47 48 27 26 22 38 42 50 42 51
98 100 100 100 100 100 100 100 100 96 96 56 99 100 100 92 89 100 100 96 88 69 65 47 51 52 51 55 82 99 86 65 38 33 31 39 61 52 31 27 25 44 38 47 46
100 100 100 100 100 100 100 100 100 100 89 81 64 100 100 100 96 100 100 100 100 90 75 68 50 52 64 75 56 64 88 88 46 39 36 27 61 60 35 29 25 30 51 49 40
100 100 100 90 100 100 100 100 100 100 100 100 84 68 100 100 100 100 100 100 100 100 88 46 67 57 40 47 73 60 46 76 69 44 62 36 52 43 43 30 28 24 28 52 62
96 100 100 100 92 100 100 100 100 100 100 100 100 100 96 100 90 100 100 100 100 100 83 83 87 55 35 40 44 68 55 45 44 46 83 95 50 65 46 32 30 27 24 39 68
100 100 100 100 100 96 98 100 100 100 100 95 100 100 100 95 100 79 100 100 100 100 100 100 90 66 68 62 46 35 46 40 44 56 86 100 98 75 56 52 40 32 26 24 42
99 98 100 100 100 100 85 93 100 100 100 100 99 100 100 99 88 78 69 100 100 100 100 97 91 98 100 79 50 38 32 38 41 60 71 100 100 99 58 57 46 37 28 24 26
85 97 100 100 100 100 100 100 92 92 71 88 73 85 78 71 87 100 100 75 82 100 100 99 100 100 100 100 57 43 37 35 31 34 91 100 100 92 63 48 50 43 36 25 23
100 100 95 100 99 98 100 100 100 100 98 96 61 52 54 62 80 100 100 90 64 68 93 99 100 100 100 100 60 56 46 38 33 42 95 96 100 84 68 49 50 57 39 32 25
100 100 100 100 89 87 97 100 100 98 100 100 100 100 100 92 100 100 100 100 100 97 75 100 100 100 74 100 94 71 64 45 35 35 63 55 100 65 61 66 54 61 56 41 28
80 82 97 100 100 100 80 82 95 100 80 93 100 100 100 100 100 100 100 100 100 99 97 98 99 100 100 100 100 72 71 49 39 32 43 72 96 68 77 84 61 67 54 39 28
38 68 100 73 85 100 100 93 82 67 69 77 73 88 100 100 100 100 100 98 99 100 100 100 100 100 100 100 99 78 53 58 45 37 30 92 100 81 60 75 74 78 56 47 35
21 23 69 48 68 86 80 96 100 89 69 99 99 83 70 84 100 100 100 99 89 93 99 95 91 97 86 75 68 80 88 74 68 57 38 42 98 100 68 62 98 83 66 50 46
18 19 33 31 38 52 63 99 90 100 100 85 81 90 100 93 88 86 100 100 100 95 88 88 97 100 100 100 100 100 100 100 86 57 42 39 90 92 80 63 73 91 76 57 50
14 14 22 24 28 41 64 73 100 90 99 100 100 100 99 75 100 100 100 100 100 100 100 100 100 100 100 100 100 100 90 68 66 66 58 42 90 100 94 85 54 82 85 74 63
8 11 15 16 20 28 40 64 91 98 99 89 98 100 100 100 89 77 90 99 100 100 100 100 100 100 100 100 100 96 94 98 95 68 59 47 94 100 99 92 74 98 86 75 68
6 8 11 13 17 21 24 31 56 81 75 88 82 90 100 100 100 100 89 70 66 88 100 100 100 100 100 100 99 96 100 98 96 69 60 54 91 100 100 100 100 81 95 68 64
6 8 10 12 15 17 20 24 26 37 78 87 90 95 92 92 87 86 95 99 98 92 70 65 75 86 96 100 96 82 89 95 87 91 69 64 66 100 89 100 100 100 98 82 65
6 8 9 11 14 14 17 20 20 22 26 36 57 87 91 89 88 88 89 86 83 80 80 72 76 77 74 77 99 96 99 100 96 86 76 78 72 87 100 100 100 100 100 100 85
6 8 8 10 12 15 17 14 18 20 23 25 28 27 28 42 35 38 45 58 62 63 63 63 53 58 59 72 76 77 77 70 89 98 100 83 89 100 100 100 100 100 100 99 97

GFSSW_250_rhum_048.txt.gz
RH
66 64 51 38 33 34 39 31 32 23 20 21 20 32 38 69 100 100 71 60 34 45 39 30 18 23 68 85 73 51 61 100 70 66 54 40 21 14 15 27 56 59 69 100 100
75 67 52 48 34 42 47 40 31 27 23 18 26 47 69 100 100 97 73 58 38 44 51 35 19 22 38 50 52 60 98 100 82 72 44 34 21 15 28 61 77 100 86 99 100
52 51 41 34 30 25 19 24 24 24 23 25 57 81 57 100 100 100 80 54 46 53 49 35 22 23 51 73 73 82 100 95 76 43 40 31 24 20 35 79 81 82 90 100 100
49 35 25 28 28 25 18 21 23 46 42 46 93 87 76 100 100 96 79 61 49 64 51 36 24 26 64 87 64 100 100 83 67 53 33 34 44 24 27 59 99 98 83 93 86
30 33 22 19 21 21 18 23 45 77 59 79 94 98 89 100 100 95 80 66 51 65 60 40 28 26 30 64 70 100 94 85 75 48 37 32 48 42 30 25 34 95 100 90 95
21 21 21 18 19 18 21 51 99 100 100 95 100 100 100 100 100 100 89 67 57 72 76 45 34 33 36 59 70 100 100 100 82 65 36 34 38 54 51 27 25 34 92 90 91
20 21 18 17 17 25 35 74 100 100 100 100 100 100 86 100 100 100 99 65 58 83 86 53 47 38 36 49 45 99 95 100 94 94 45 30 32 34 39 28 25 23 26 69 82
22 20 18 18 19 39 91 95 96 100 99 100 100 100 88 100 100 100 97 73 56 80 79 78 69 57 42 45 47 45 82 77 54 92 58 43 36 40 35 38 25 26 22 39 47
24 21 20 19 32 74 100 100 100 100 89 100 100 100 100 95 100 100 100 88 70 76 87 99 89 71 50 44 52 58 80 64 43 70 61 50 31 48 45 46 33 25 24 25 44
24 24 25 28 58 93 100 100 100 100 92 93 100 100 100 100 100 100 100 93 84 80 63 100 99 84 56 49 43 72 66 71 66 56 69 51 44 54 71 71 38 31 25 23 22
25 31 39 54 79 97 100 100 100 100 86 100 100 100 100 100 91 100 100 100 79 97 100 100 100 100 74 57 61 51 45 44 45 57 46 48 66 65 79 92 58 30 24 26 21
28 40 51 67 100 100 100 100 100 100 100 100 100 100 100 100 92 65 100 100 98 99 100 100 100 100 73 74 81 71 55 52 39 38 47 41 69 70 98 87 52 34 30 27 26
30 52 68 82 100 100 100 100 100 99 100 100 100 100 100 100 100 86 68 100 100 100 100 100 100 100 82 77 90 59 87 55 44 27 45 42 54 84 99 64 55 33 25 36 37
31 52 80 99 100 100 100 100 100 100 100 99 100 100 100 100 100 100 84 99 100 80 100 100 100 100 100 91 90 69 47 82 54 31 32 37 45 76 100 65 63 41 26 27 37
31 49 63 85 100 100 100 88 100 100 93 100 96 100 100 100 100 100 100 100 100 95 85 90 100 100 93 98 65 99 85 100 59 41 36 36 37 100 100 71 66 48 33 27 35
29 35 58 78 98 99 100 100 100 100 100 100 100 100 100 100 100 100 99 100 100 100 79 78 100 100 100 100 100 100 93 92 49 55 42 41 36 100 81 84 73 58 44 35 27
27 30 46 80 82 100 100 85 77 100 65 100 100 100 100 100 100 100 100 100 100 100 90 98 100 100 100 100 100 100 72 37 46 71 57 60 37 100 60 92 82 76 69 47 32
26 29 40 69 86 100 97 91 92 96 97 72 99 100 100 100 100 100 100 100 100 100 97 89 94 99 84 77 69 56 33 30 94 100 75 82 44 47 39 59 100 81 94 73 48
24 28 29 36 52 90 92 93 86 93 98 86 61 83 98 100 77 80 98 99 85 99 100 99 96 72 83 79 71 71 48 88 65 95 100 86 61 56 46 40 88 90 100 90 73
23 26 32 28 26 36 53 82 98 76 100 88 100 93 100 100 100 100 69 82 63 66 74 65 70 69 64 61 60 55 70 93 100 100 100 88 86 73 50 49 70 97 100 100 83
24 22 32 23 22 20 25 60 100 100 99 87 84 100 100 96 100 100 100 100 98 79 100 100 100 100 100 100 100 94 100 100 100 94 79 99 97 88 66 54 63 100 100 100 87
17 16 24 18 16 17 23 36 85 100 100 100 99 68 90 100 85 68 100 100 100 97 84 90 100 100 100 100 100 100 100 100 71 75 98 100 96 94 76 62 73 100 100 100 100
12 14 16 16 12 16 20 25 60 89 100 100 99 100 100 84 86 91 69 72 78 78 72 84 87 80 76 86 87 72 81 89 91 75 83 99 99 100 95 68 58 100 94 100 100
8 9 10 10 9 11 17 22 29 72 85 100 97 100 100 100 100 85 89 80 90 77 73 85 90 73 65 98 93 95 96 100 100 100 100 100 100 100 94 72 57 67 95 99 100
8 10 9 9 9 9 11 18 22 30 63 90 100 100 100 100 100 100 98 91 81 95 100 91 98 100 100 100 100 100 100 100 100 99 86 95 86 99 100 92 71 57 74 99 98
9 8 8 8 8 8 9 12 18 24 29 46 88 91 82 90 90 93 97 99 100 100 100 100 100 96 100 100 100 100 100 94 96 95 94 79 68 80 98 91 72 71 76 100 100
8 10 10 8 8 8 9 10 14 20 24 28 34 44 86 100 97 93 87 94 98 92 90 98 94 93 89 82 77 84 100 92 95 87 74 75 88 100 93 100 88 76 87 79 100

GFSSW_250_rhum_051.txt.gz
RH
100 98 99 96 75 58 51 35 32 36 42 35 46 34 29 53 53 44 34 25 71 75 63 65 39 50 40 23 17 30 56 56 78 76 74 60 39 36 18 16 18 56 56 68 86
84 79 66 54 48 41 31 28 25 30 27 29 26 34 28 23 33 32 32 49 68 90 68 65 42 53 39 24 22 37 57 71 100 72 65 49 38 29 21 22 21 38 63 52 67
74 63 56 45 40 40 34 28 22 22 19 23 21 30 28 25 31 39 89 100 99 84 69 57 52 56 37 22 33 48 73 95 93 73 64 43 39 36 24 27 25 25 39 51 69
80 66 51 38 42 36 28 23 18 19 18 20 21 26 21 34 47 55 100 100 100 88 66 52 58 56 29 21 38 61 96 100 93 80 63 56 43 30 24 27 24 27 27 83 64
73 58 41 34 36 33 24 19 18 17 20 19 17 22 34 68 90 100 100 100 100 91 73 57 52 52 29 25 26 47 85 99 75 98 81 81 49 29 26 36 28 25 24 29 81
60 67 43 38 33 24 22 20 16 17 18 16 20 44 78 100 96 100 100 100 100 80 85 56 48 61 34 30 26 35 88 100 99 75 91 98 57 36 30 40 52 29 23 23 30
53 54 50 33 25 26 19 16 16 16 18 28 53 100 100 100 100 100 100 100 100 87 94 52 51 68 40 35 32 44 58 80 74 48 62 89 55 52 39 54 58 34 25 22 36
54 59 71 28 27 27 20 16 17 20 28 56 76 100 100 100 100 100 100 100 100 97 87 58 55 69 55 42 42 46 47 60 53 54 56 65 71 45 66 63 42 35 29 23 22
72 61 48 34 33 28 22 18 21 28 56 84 100 96 100 100 100 100 100 100 100 100 97 62 59 85 76 58 59 42 56 49 72 76 60 70 67 50 74 83 51 29 28 28 22
70 68 50 36 32 30 23 20 34 48 96 97 100 100 100 100 100 100 100 100 100 99 77 69 68 93 99 82 71 41 63 51 39 56 42 66 62 53 74 86 86 32 36 27 25
76 61 45 36 30 34 23 30 74 100 100 100 100 100 100 100 100 100 100 66 92 100 100 79 76 100 85 69 70 81 58 62 41 50 44 50 58 49 69 82 82 49 35 28 24
66 57 39 34 26 39 25 44 98 100 100 100 100 100 100 100 100 100 97 99 76 100 100 85 98 100 64 76 100 95 66 67 31 67 49 37 54 46 45 45 76 61 48 37 31
62 52 36 28 30 39 29 44 100 100 100 100 91 100 100 100 100 100 100 82 87 98 100 100 100 100 79 71 100 100 92 39 31 68 67 48 39 41 41 35 75 64 56 45 37
52 43 31 28 36 36 31 45 100 100 100 99 100 100 100 100 100 100 100 100 100 59 100 100 100 100 100 87 100 100 90 50 45 55 93 67 40 36 38 39 60 68 52 56 46
44 36 27 26 36 32 33 54 100 100 100 100 100 89 100 100 100 100 100 100 100 82 78 100 100 100 100 99 78 100 84 73 62 66 73 72 50 49 48 48 56 71 60 58 61
35 28 23 23 28 28 31 51 92 100 100 100 100 86 100 100 100 100 100 100 100 100 84 73 100 100 100 92 83 100 94 86 79 58 58 64 39 72 62 49 77 52 58 69 64
29 22 19 21 21 26 28 46 92 98 100 100 100 100 96 100 100 100 100 100 100 100 100 96 100 100 100 100 99 100 100 100 84 84 79 66 30 88 70 64 48 44 42 77 67
21 18 20 21 23 25 28 38 67 99 100 100 100 100 100 92 100 100 100 100 100 100 100 95 100 100 100 100 98 88 100 68 61 76 52 41 47 100 91 81 59 52 44 54 84
17 20 26 21 21 26 23 24 53 75 100 100 100 100 100 98 100 100 100 100 100 100 100 100 100 100 100 100 98 75 69 68 55 48 35 55 47 100 100 97 80 71 53 49 57
18 23 31 25 21 21 20 26 31 64 87 100 100 100 100 100 99 100 100 100 100 100 100 100 100 100 100 100 91 100 100 81 52 37 27 42 91 100 100 97 92 88 62 52 49
19 23 36 29 21 16 19 24 34 48 55 93 100 100 100 96 100 100 100 100 100 100 100 100 100 100 98 95 93 95 99 84 49 34 29 51 99 100 100 100 98 94 67 56 48
18 22 29 27 20 16 17 24 34 42 43 77 91 100 100 82 85 90 100 79 100 100 100 100 100 100 100 100 96 86 76 60 43 50 50 79 100 100 100 100 100 89 75 68 54
15 18 21 23 19 19 20 20 26 33 36 51 80 80 100 97 91 74 86 98 95 87 98 94 99 100 99 100 98 78 60 47 41 53 64 82 100 100 100 100 100 96 91 90 72
10 13 15 13 14 15 18 19 22 26 29 34 61 70 87 100 80 81 70 79 83 84 70 68 56 87 100 96 96 100 100 100 100 100 100 100 97 98 100 100 100 76 75 92 88
10 13 12 12 12 11 10 12 14 20 25 27 44 70 70 69 95 100 78 83 71 82 100 98 71 100 100 100 100 100 100 92 87 89 84 82 73 76 100 100 100 100 99 85 82
8 10 9 9 9 8 8 10 11 12 18 26 27 40 66 94 87 82 83 72 90 99 77 80 89 93 94 90 97 92 79 80 78 81 64 56 68 80 100 100 100 100 100 79 76
8 9 8 8 7 8 9 10 9 9 13 20 24 25 38 71 78 100 90 80 71 75 85 90 90 82 78 69 77 93 85 77 88 90 76 67 98 100 100 100 100 100 99 93 86

GFSSW_250_rhum_054.txt.gz
RH
100 100 100 100 95 94 80 76 71 60 46 43 40 32 26 33 30 24 25 26 34 31 27 38 39 90 65 58 51 40 29 19 42 47 86 61 63 48 42 24 19 18 17 19 46
100 100 100 100 98 81 67 63 49 44 40 37 33 29 26 29 28 24 24 24 34 31 25 30 66 99 66 56 52 36 25 21 39 81 68 71 61 43 42 25 24 21 20 16 42
100 100 100 98 81 73 56 44 41 32 28 26 25 26 26 24 23 20 21 23 30 28 25 38 81 94 67 59 47 34 27 44 74 80 79 75 63 50 50 28 28 27 22 20 18
99 99 90 79 64 60 54 40 30 24 26 25 26 26 21 20 19 20 21 22 25 26 33 46 100 92 77 62 46 31 34 44 92 83 91 79 63 67 53 30 28 26 23 21 19
61 60 59 59 59 52 50 44 31 24 24 26 24 21 18 16 18 18 20 24 25 33 54 100 100 81 73 63 44 24 36 54 90 74 77 100 69 100 51 31 29 26 25 23 19
73 58 56 59 55 51 45 39 31 25 27 25 20 14 13 15 16 19 21 25 49 61 100 100 100 60 80 60 39 28 36 45 44 100 73 89 100 97 45 52 29 27 27 24 22
78 55 63 61 55 43 43 39 29 26 26 24 15 14 16 17 22 72 65 41 100 97 100 100 100 72 73 58 44 32 28 32 65 89 98 71 45 60 63 54 36 29 30 27 22
55 55 55 53 58 49 42 36 30 27 25 22 17 18 17 20 52 100 100 99 100 100 100 100 100 91 70 62 58 32 33 40 53 55 60 58 64 57 74 57 44 41 42 30 21
68 71 73 70 62 62 50 41 30 25 24 22 21 20 30 68 95 100 100 100 100 100 95 100 100 98 68 59 62 37 36 48 58 62 62 48 53 42 64 56 54 51 43 33 26
58 78 74 66 69 64 53 42 31 27 24 26 31 37 90 100 100 100 100 100 100 86 100 100 100 100 67 57 91 50 34 65 48 52 56 41 38 39 68 59 56 53 38 41 26
99 89 79 77 72 63 56 39 31 27 29 30 45 63 98 100 100 100 100 100 100 77 100 100 100 100 76 56 51 71 56 84 39 51 50 56 51 37 43 55 48 38 42 45 37
89 94 88 82 80 61 43 34 34 29 37 35 84 98 100 100 100 100 100 100 99 82 100 100 100 97 80 58 56 90 100 95 37 54 59 75 55 46 38 44 47 36 51 48 49
89 84 97 94 73 52 43 32 33 31 44 40 77 98 100 100 100 100 100 100 91 76 100 100 100 100 84 55 49 97 100 100 48 55 69 89 89 48 43 38 40 34 49 55 52
81 93 84 84 64 50 35 34 28 37 44 57 98 100 100 100 100 100 100 100 84 76 99 100 100 99 93 67 61 95 100 96 87 52 82 92 96 48 60 50 44 36 50 41 62
85 73 80 88 68 39 36 30 25 38 47 75 100 100 95 100 100 100 100 100 91 76 96 88 100 100 100 95 80 100 100 76 59 88 87 88 88 46 66 59 58 43 42 43 40
76 80 77 66 52 35 31 27 21 32 58 75 100 100 100 100 100 100 100 100 97 88 68 95 100 100 100 99 86 88 100 84 70 100 100 98 60 100 59 76 69 56 50 43 37
77 74 74 59 40 34 26 24 17 27 50 83 100 100 100 100 100 100 100 100 100 92 95 95 100 100 100 100 100 97 100 100 100 90 100 92 38 100 100 100 68 66 67 59 56
59 56 59 41 39 31 22 17 16 24 37 88 100 100 96 100 100 100 100 100 100 76 100 100 100 100 100 100 100 100 100 100 91 78 100 81 62 100 100 100 82 65 83 75 68
42 39 41 32 31 25 18 15 15 23 44 76 99 100 100 100 100 100 100 100 100 100 88 98 100 100 100 100 100 89 90 100 100 88 87 88 84 100 100 100 92 60 89 94 90
30 31 32 29 24 18 15 15 18 22 32 58 92 100 100 100 100 95 100 100 100 100 100 98 94 100 100 100 100 75 69 64 56 55 69 90 100 84 100 100 78 59 78 99 85
21 21 21 21 19 17 17 17 23 20 26 48 84 92 100 100 100 77 99 100 100 100 100 100 99 99 100 100 100 100 92 81 79 72 66 70 81 85 95 100 100 66 96 100 96
14 18 17 17 16 19 26 22 32 23 21 34 71 92 95 100 100 100 64 100 100 100 100 81 100 100 100 100 100 100 100 100 99 88 84 86 76 69 96 100 100 100 100 100 75
13 17 17 16 17 23 28 26 26 31 18 24 37 69 82 90 100 100 80 66 100 100 100 100 100 100 100 100 100 100 100 100 95 80 69 68 71 50 81 100 100 98 88 95 80
11 13 16 15 19 21 24 27 26 29 21 21 23 39 73 76 83 100 100 60 82 100 100 100 100 100 100 99 94 84 82 93 98 93 86 78 76 40 57 69 100 100 100 98 80
7 9 11 12 15 16 18 21 24 27 23 18 23 25 36 61 72 81 100 100 60 82 100 100 100 100 100 100 100 100 100 98 91 76 82 88 76 44 39 55 100 100 100 99 68
6 8 9 10 10 11 13 16 17 16 18 17 19 22 26 34 51 76 77 92 97 65 79 100 100 100 100 100 100 100 100 100 100 93 82 78 71 71 100 100 100 100 100 100 100
6 7 8 9 9 10 11 11 12 11 11 12 14 20 22 27 29 50 89 97 100 78 90 90 99 93 95 96 99 100 100 91 94 100 100 99 100 100 100 98 99 99 96 94 100

GFSSW_250_rhum_057.txt.gz
RH
91 61 88 88 100 100 100 100 100 99 95 95 80 64 49 42 34 30 25 23 22 28 32 25 26 28 26 32 35 86 98 77 45 37 23 38 48 66 76 50 46 29 22 19 16
95 91 100 100 100 100 100 100 100 100 94 82 67 57 40 32 27 22 23 26 24 24 24 24 24 25 24 29 36 100 83 65 48 31 21 36 51 81 65 54 47 31 22 20 18
100 100 100 100 100 100 100 100 85 72 58 49 43 37 31 25 24 24 25 21 22 23 20 21 21 24 28 31 71 100 94 57 44 28 24 60 59 82 72 63 42 29 23 21 19
87 91 86 90 83 75 93 100 79 61 47 36 32 27 24 22 24 25 20 21 18 18 18 18 20 24 37 51 100 100 84 57 36 30 41 57 68 88 77 99 43 31 24 23 20
78 67 62 58 46 47 58 83 90 77 52 48 36 26 25 24 24 19 19 18 17 17 19 22 20 26 35 97 100 100 73 53 33 32 63 56 72 93 100 100 47 41 25 26 20
79 66 67 59 51 47 58 74 55 47 47 44 35 30 26 23 20 18 16 15 17 19 20 23 24 26 40 100 100 93 67 52 28 33 91 51 72 77 100 100 51 38 46 31 24
100 90 92 90 70 60 60 62 52 43 49 40 32 29 25 21 19 15 13 14 18 21 21 23 24 29 88 100 100 99 61 49 28 33 68 51 49 100 57 50 67 45 42 37 26
91 100 100 100 100 90 73 64 49 46 50 35 30 26 25 21 18 17 16 18 25 26 25 26 31 61 100 100 100 93 61 57 31 37 39 97 74 65 49 59 64 60 43 39 34
100 91 76 95 96 91 88 94 74 50 49 42 27 25 24 21 19 22 24 57 76 72 66 53 61 100 100 100 100 94 64 52 32 32 35 46 47 52 50 63 59 59 46 42 41
81 99 77 86 98 100 100 77 60 55 56 42 26 27 23 26 21 50 58 100 99 96 98 99 100 100 100 100 100 100 66 39 31 44 30 34 46 52 34 51 44 53 46 42 46
91 97 65 100 100 90 88 87 66 72 63 46 28 31 24 29 50 87 100 100 100 100 100 100 100 100 100 100 100 85 64 49 39 40 33 30 28 54 36 40 40 45 42 44 50
100 100 97 88 95 100 98 84 75 76 74 44 29 30 26 66 90 97 100 100 100 100 100 87 99 100 100 100 100 83 70 58 42 50 43 36 48 51 42 44 43 41 33 34 32
100 100 100 100 100 98 100 91 84 75 58 45 28 31 31 94 100 100 100 100 100 100 100 93 100 100 100 100 100 85 76 82 54 44 67 56 60 48 37 44 46 39 33 36 33
100 100 96 100 76 98 89 80 79 67 49 36 32 30 46 98 100 100 100 100 100 100 100 91 100 100 100 100 100 84 78 90 78 57 96 56 76 39 36 45 46 46 49 39 38
86 86 94 86 100 88 84 78 73 71 44 39 33 28 45 84 100 100 100 100 100 100 100 86 100 100 100 100 100 94 73 82 97 95 100 100 100 66 30 44 51 54 60 54 46
94 87 83 80 80 77 76 75 70 57 33 35 34 28 40 100 100 100 100 100 100 100 100 70 99 100 100 100 99 95 66 79 58 94 100 100 100 89 46 39 55 53 61 67 61
84 85 71 81 74 82 88 80 66 47 37 34 34 26 46 100 100 100 98 100 100 99 98 65 87 100 100 100 97 98 70 80 69 66 100 100 100 100 70 46 62 96 64 71 79
85 83 84 83 84 77 71 60 48 42 42 34 30 25 45 90 100 100 100 100 100 100 100 65 76 99 100 100 86 95 100 96 96 98 100 100 100 100 100 87 67 100 92 38 89
68 63 65 56 70 56 49 43 55 54 48 31 26 23 56 86 100 100 100 100 100 100 100 98 78 87 100 100 100 91 100 100 100 98 100 100 100 100 100 100 100 100 96 49 60
29 35 40 39 40 36 35 44 62 48 38 30 22 22 43 86 89 100 100 100 100 100 100 100 87 99 100 100 100 98 88 100 100 100 100 100 100 100 100 100 100 100 100 43 41
21 25 26 28 31 30 35 46 44 39 32 28 20 21 33 100 82 93 100 100 100 100 98 80 59 85 88 100 100 100 85 98 100 91 100 100 100 100 100 100 100 100 95 75 54
10 14 18 22 23 26 34 35 34 34 28 24 19 20 30 81 99 86 97 97 100 100 100 100 56 56 88 100 100 100 100 100 89 82 92 99 100 100 97 100 100 100 97 77 52
10 12 14 12 14 19 25 25 27 31 24 21 21 20 24 43 98 93 96 82 100 100 100 100 100 100 74 83 94 100 100 100 100 91 79 86 100 100 96 100 100 100 100 78 56
7 9 12 12 15 18 20 22 23 30 22 17 21 21 24 29 79 100 94 88 92 100 100 100 100 100 96 87 100 100 100 99 99 100 100 100 100 100 90 100 100 100 72 73 59
4 7 8 8 12 15 15 19 21 24 25 17 18 21 22 24 31 89 100 73 86 92 100 92 97 100 82 84 73 90 100 100 100 87 88 99 100 100 93 96 84 87 100 96 74
4 6 6 6 7 10 13 16 19 21 24 18 16 18 22 23 21 36 77 85 68 71 94 100 100 100 100 100 95 82 100 100 100 100 100 90 82 82 100 88 84 99 100 84 79
5 5 5 6 7 8 10 13 16 17 20 17 15 15 20 22 17 19 37 74 99 65 62 81 100 100 100 100 100 100 93 81 92 100 94 78 80 67 62 64 78 100 100 73 61

GFSSW_250_rhum_060.txt.gz
RH
100 100 100 100 100 100 89 70 48 42 97 100 100 100 100 100 90 84 66 51 33 28 26 23 20 24 23 26 22 24 23 32 35 40 56 80 51 39 28 51 58 48 53 32 21
83 67 90 95 100 100 100 100 100 100 99 95 98 100 100 97 86 72 50 39 26 24 24 22 21 19 22 24 23 26 22 36 36 48 64 83 50 36 29 66 58 52 55 32 22
100 99 97 100 99 100 100 100 100 100 91 83 83 72 60 63 58 49 42 32 28 25 25 19 20 19 20 24 27 22 24 34 36 71 89 67 49 30 36 77 61 73 64 36 22
99 99 99 100 100 94 78 81 87 86 88 72 60 48 43 38 41 40 39 29 28 23 18 19 17 17 19 23 28 22 30 36 65 100 100 59 40 30 53 80 69 86 64 33 30
85 81 78 89 97 100 100 90 67 75 88 75 72 68 78 53 36 44 35 33 27 21 17 16 18 20 21 25 24 27 32 39 100 100 98 54 34 32 80 77 71 100 98 39 40
81 98 72 62 56 71 93 84 87 66 64 74 98 82 58 49 47 47 31 29 24 16 15 17 20 21 23 25 24 28 37 83 100 100 88 46 30 63 79 71 56 100 96 44 40
100 67 77 72 88 91 66 72 99 100 100 83 67 80 75 67 52 42 32 28 19 14 16 15 16 21 25 26 25 32 44 100 100 100 74 39 34 82 64 66 99 90 54 52 45
100 96 89 100 100 100 100 100 89 97 86 66 46 97 98 50 50 36 32 26 19 14 16 16 16 22 24 26 32 38 80 100 100 100 63 30 52 72 47 76 82 46 51 54 48
100 100 100 100 100 100 100 100 99 88 71 60 72 56 64 69 59 45 29 22 16 18 17 18 19 21 27 32 36 51 100 100 100 91 55 29 41 78 77 92 49 56 45 48 45
100 100 100 100 100 100 100 89 77 66 64 70 87 67 76 51 54 44 27 20 19 19 28 24 25 26 32 40 74 100 100 100 100 81 51 31 33 55 69 53 52 44 36 48 43
100 100 100 100 100 100 93 74 96 78 91 93 85 64 53 58 48 40 28 23 28 95 87 54 36 37 64 100 100 100 100 100 100 78 56 35 27 41 45 41 41 39 34 41 41
100 93 75 100 99 100 100 100 100 100 95 84 87 64 80 51 45 40 28 38 64 100 100 96 90 96 100 100 100 100 100 100 100 76 56 35 29 52 47 32 39 43 34 32 31
100 100 100 100 97 100 100 100 100 91 100 92 77 60 51 47 47 37 28 59 81 100 100 99 100 100 100 100 100 100 100 100 100 80 61 41 39 40 36 28 48 45 36 33 34
100 100 88 94 87 82 81 71 57 58 80 69 74 70 57 44 47 34 35 98 100 100 100 100 100 100 100 100 100 100 100 100 100 80 72 48 41 30 45 33 44 43 40 42 46
90 86 90 89 90 87 70 65 70 77 82 67 72 70 61 45 43 34 61 92 100 100 100 94 100 100 100 100 100 100 100 100 100 78 80 58 51 57 43 41 45 66 49 44 49
87 80 82 80 74 77 83 81 94 97 94 82 86 76 64 47 40 36 57 100 100 100 100 92 100 100 100 100 100 100 100 100 100 81 78 79 70 83 66 40 46 77 68 55 49
74 90 92 67 63 76 81 89 100 99 98 78 100 75 56 42 36 41 58 100 100 100 100 80 80 95 100 100 100 100 100 100 100 84 82 95 79 100 98 72 51 59 70 57 75
35 40 47 64 63 71 74 85 91 100 100 93 99 70 53 42 32 38 62 100 100 100 100 100 96 100 100 100 100 100 95 100 100 100 85 92 86 100 99 73 75 83 69 48 99
28 31 38 47 44 46 55 60 100 100 100 100 89 48 47 36 30 33 54 100 100 99 100 100 100 100 100 100 100 100 99 100 100 100 92 85 87 99 99 100 75 94 100 88 100
19 23 35 25 29 28 25 40 89 94 92 97 76 52 48 28 35 33 55 89 100 100 100 100 100 100 100 90 99 100 100 100 96 96 96 90 88 98 100 100 92 79 99 100 100
12 12 19 19 21 20 22 36 51 70 71 70 73 40 38 26 37 31 56 93 100 100 100 100 100 88 87 89 89 100 100 93 97 93 100 100 100 100 98 100 100 100 96 95 100
10 11 12 11 11 16 25 35 33 33 36 47 50 47 36 28 32 29 35 78 100 100 100 88 100 100 100 100 96 95 100 100 100 100 100 100 100 100 100 100 100 94 100 81 98
7 8 11 10 10 11 15 20 31 36 38 39 41 46 34 29 30 29 27 80 100 100 94 96 100 100 100 100 100 100 96 100 100 100 96 100 100 100 100 100 100 100 100 90 68
5 6 7 6 7 10 13 15 18 23 26 30 36 40 32 30 28 27 26 57 100 100 85 99 99 100 100 100 100 100 100 100 100 100 100 87 100 100 100 100 100 100 100 100 99
5 6 5 5 6 7 9 12 15 17 19 21 26 33 28 26 25 22 22 37 99 100 100 100 100 100 100 86 87 91 100 100 100 100 100 100 85 100 100 100 99 89 100 100 100
4 4 4 5 4 5 6 9 13 15 17 18 20 25 23 21 20 19 19 47 56 94 100 100 100 94 100 100 100 77 87 100 100 100 100 96 100 100 100 100 98 97 100 100 100
4 4 4 4 5 5 6 8 10 12 14 15 16 18 24 16 16 18 19 25 64 73 92 100 100 100 100 100 100 100 92 100 100 100 99 82 100 95 97 74 89 100 90 67 99

GFSSW_250_rhum_066.txt.gz
RH
100 95 100 87 59 78 86 91 100 100 100 98 100 93 67 97 100 100 99 78 95 100 100 100 100 100 99 92 81 66 33 30 31 26 26 25 24 20 19 31 34 62 93 72 43
100 100 100 100 91 61 81 80 98 100 93 95 100 98 100 100 100 100 100 100 100 100 100 91 84 69 61 53 43 35 30 24 24 23 25 20 19 22 21 39 45 69 100 74 43
100 100 100 100 93 92 80 100 90 90 88 100 100 100 98 90 100 100 100 100 100 94 85 76 68 57 51 45 40 25 22 22 20 22 21 18 18 24 25 49 44 98 98 78 46
100 100 100 100 100 98 100 68 85 87 88 98 90 99 100 96 92 90 76 81 83 84 84 78 64 61 47 39 30 20 22 20 22 20 17 19 20 24 28 50 45 94 100 69 46
88 84 88 100 100 100 100 100 71 86 96 100 100 100 95 84 73 84 86 84 72 85 82 79 62 44 37 26 21 20 19 16 20 17 15 16 18 24 31 43 49 99 95 70 48
79 87 96 87 81 100 100 100 100 84 100 90 100 100 94 66 59 68 94 93 76 83 75 58 55 52 28 26 20 21 16 18 16 14 13 19 22 23 38 38 62 100 73 62 62
61 83 89 80 67 99 100 100 100 100 94 54 84 95 99 98 74 58 97 100 98 93 68 58 70 46 27 22 22 22 18 15 18 19 23 25 25 31 43 46 79 100 73 54 83
97 100 87 94 65 100 100 100 100 100 100 98 80 99 90 58 50 98 96 100 100 100 100 82 66 39 25 26 24 21 17 18 22 23 28 24 37 46 44 82 92 100 62 46 52
100 100 98 99 74 96 100 100 99 100 100 100 100 99 48 58 100 100 100 100 100 88 63 54 34 26 26 26 26 17 18 23 25 25 26 26 46 100 63 100 97 77 57 50 68
100 100 100 100 93 99 100 100 99 94 83 100 100 100 100 100 100 100 100 99 100 89 69 44 37 34 25 30 31 16 20 23 28 26 16 23 48 29 54 100 88 60 54 77 79
100 100 100 100 100 100 100 100 100 100 100 100 100 100 100 100 100 100 100 100 100 81 62 50 60 40 35 30 28 20 25 32 33 26 27 36 61 61 96 100 64 57 68 100 86
100 100 100 100 100 100 100 100 100 100 100 86 100 100 100 100 100 100 91 90 88 100 100 96 85 53 39 35 34 27 40 41 32 29 30 47 57 46 80 100 68 60 70 100 100
100 100 100 100 100 100 100 100 100 100 100 100 100 100 100 100 100 100 99 99 96 84 75 61 46 38 43 40 55 48 43 40 36 30 35 49 70 60 100 100 61 36 45 98 98
82 100 100 100 100 100 100 100 100 100 100 100 100 100 100 100 100 100 100 99 95 80 49 45 30 37 50 56 72 87 54 46 37 24 48 51 69 83 100 84 58 33 37 67 55
52 72 97 100 100 100 100 100 100 100 100 100 100 100 92 93 100 99 88 83 65 49 53 46 39 47 63 84 64 100 78 45 34 29 89 76 87 100 100 89 98 62 44 47 45
33 44 66 100 100 100 100 100 100 100 100 100 100 100 100 100 95 87 86 71 63 54 48 45 53 52 79 79 96 100 85 96 58 57 83 100 100 80 100 92 66 49 41 43 60
33 38 32 46 72 98 100 100 100 100 100 100 100 100 100 91 88 85 76 74 56 53 56 52 55 44 72 97 100 100 100 99 84 76 100 100 100 100 100 94 68 47 49 50 77
28 29 32 32 32 40 61 72 88 100 100 68 82 76 80 80 81 62 56 47 45 48 69 74 50 47 100 100 100 100 100 100 89 91 100 97 100 100 100 97 72 51 46 44 70
24 25 30 26 26 28 30 30 44 58 59 74 61 61 71 66 59 46 42 35 40 61 87 67 56 49 83 100 100 100 100 100 100 78 100 97 100 100 81 98 80 63 51 51 47
13 12 14 14 14 15 20 30 40 43 40 33 30 34 40 33 31 29 35 46 55 73 82 62 69 50 84 100 100 100 100 100 100 66 100 100 100 100 82 78 96 73 61 56 53
12 13 13 12 11 11 11 14 19 30 23 22 21 22 28 30 28 27 40 58 69 74 66 64 70 76 99 96 100 100 100 100 100 98 100 100 94 100 100 72 83 85 70 64 76
15 17 15 12 11 10 12 12 12 16 12 12 14 18 21 23 23 26 31 53 73 76 70 61 72 71 100 94 100 100 100 100 100 83 100 100 97 99 100 100 100 99 80 80 88
10 12 10 10 8 9 8 9 12 16 13 11 12 13 16 17 20 30 29 38 45 60 70 67 70 67 100 72 100 100 100 100 100 83 61 100 100 100 94 87 98 89 98 93 100
9 8 6 6 5 6 6 7 9 10 10 9 11 13 18 14 12 22 26 28 38 43 43 64 67 64 100 97 85 100 100 100 100 100 54 89 100 100 100 99 94 63 54 69 70
6 4 4 4 4 5 5 7 6 6 7 6 8 11 16 13 10 13 19 23 32 52 49 52 71 72 91 100 97 88 100 80 100 100 96 74 100 100 100 100 100 100 77 76 66
4 4 4 3 4 4 4 5 6 5 6 6 7 8 9 11 11 13 15 22 23 36 47 55 65 63 72 93 100 100 98 100 100 100 100 100 100 100 100 100 100 98 100 88 100
3 3 3 3 3 4 4 4 5 6 5 5 6 7 8 10 12 13 14 20 31 31 40 51 56 56 69 92 100 100 100 87 100 100 91 100 100 100 100 100 100 100 100 96 45

GFSSW_250_rhum_069.txt.gz
RH
43 58 89 72 93 78 80 100 100 91 100 91 92 100 100 100 100 79 79 72 80 92 90 81 100 100 98 98 100 100 100 100 91 77 61 56 44 38 30 16 18 19 20 30 36
59 64 95 100 100 90 88 97 100 98 96 100 98 87 100 100 100 100 100 92 75 80 76 98 100 100 100 100 100 91 70 64 53 45 40 35 26 20 18 18 19 21 27 26 34
78 83 73 85 100 100 100 100 80 75 89 95 100 99 78 100 99 100 100 100 100 99 100 100 99 97 95 92 84 73 59 50 45 37 28 23 19 18 18 19 21 27 26 32 34
100 93 69 87 93 84 72 80 70 82 71 74 100 100 100 81 98 93 100 99 100 100 100 100 93 84 77 65 57 46 50 40 39 34 26 24 19 16 21 23 22 32 26 35 34
98 100 79 79 70 54 56 52 72 70 91 76 100 100 100 74 98 94 100 100 100 91 85 75 72 80 81 76 56 36 42 49 47 29 26 19 20 17 17 22 23 26 31 39 50
83 79 64 61 53 47 48 58 50 55 97 93 100 100 100 100 100 100 95 98 100 95 70 71 55 59 60 49 50 46 79 51 29 30 24 18 20 14 16 20 26 27 35 43 79
75 88 70 48 44 42 50 62 66 60 81 100 100 100 100 100 100 100 78 83 100 100 100 66 64 60 74 99 99 100 63 29 28 32 27 16 15 14 18 20 22 30 44 49 87
95 90 69 58 44 49 47 44 65 66 96 100 100 100 100 100 100 100 97 65 77 99 66 48 63 74 100 100 99 80 40 29 34 32 25 13 17 17 18 19 25 31 42 71 100
98 77 58 46 45 49 45 62 84 84 97 100 100 100 96 100 100 100 100 100 100 100 74 84 67 99 100 89 62 49 34 27 31 29 17 10 22 22 18 19 30 37 65 77 96
96 72 48 56 50 55 57 70 75 88 98 100 100 100 100 100 100 99 89 100 100 100 96 100 100 100 92 77 58 35 26 40 36 22 13 14 29 24 18 23 31 38 78 94 100
80 61 68 56 67 72 79 90 73 87 99 100 100 100 100 100 100 82 99 100 100 97 100 100 100 100 91 72 36 39 50 37 25 21 14 21 28 24 25 28 30 43 69 86 93
68 75 64 80 70 85 88 77 77 91 100 100 100 100 100 100 100 100 100 100 100 100 100 100 100 98 83 65 85 67 40 33 23 17 19 28 31 29 35 46 42 75 81 86 61
83 67 70 82 81 83 61 63 73 94 94 100 100 100 100 100 100 100 100 100 100 100 100 100 100 84 95 82 64 39 43 35 31 14 27 34 38 31 36 52 70 68 83 67 49
77 87 83 68 44 52 34 50 76 92 90 99 96 100 100 100 100 100 100 100 100 100 100 100 100 100 76 77 51 42 40 36 25 20 35 43 39 41 85 69 69 87 88 60 42
85 93 60 44 27 31 33 35 63 84 98 100 97 94 100 99 100 100 100 100 100 100 100 100 85 71 60 63 45 52 41 39 38 28 38 46 44 99 72 94 81 93 100 100 100
100 53 41 28 21 24 26 32 45 69 96 100 100 100 100 100 100 100 100 99 99 100 97 74 74 69 48 49 52 48 47 60 49 41 38 46 89 100 80 100 100 100 100 100 100
50 26 20 17 22 29 28 29 31 51 76 95 99 99 100 98 99 100 100 100 100 96 83 79 70 68 58 59 46 48 52 63 46 33 50 50 100 100 100 100 100 80 78 100 100
24 20 18 20 26 31 31 32 30 36 49 71 95 99 100 93 70 88 98 100 96 86 83 69 59 62 63 49 52 51 58 71 56 65 69 92 100 97 89 95 87 64 58 99 100
20 18 21 25 29 26 22 19 25 32 35 36 39 66 83 89 87 83 90 86 80 88 77 74 81 61 48 56 63 56 93 89 73 76 83 100 100 100 65 88 88 95 69 91 90
17 21 23 24 18 14 12 14 17 17 16 16 24 29 36 57 74 91 88 94 93 99 80 74 64 37 44 72 70 71 100 91 81 64 97 100 100 100 63 56 82 97 66 75 100
21 26 15 12 13 12 11 13 14 13 11 10 11 11 21 31 38 53 63 83 72 68 63 54 47 41 68 69 77 97 100 100 98 71 100 100 100 100 62 60 89 100 74 74 100
12 12 11 11 12 15 17 16 16 16 15 13 13 11 11 13 21 26 31 37 42 54 58 50 62 58 71 79 72 100 100 100 100 86 100 100 100 100 81 48 92 100 98 94 100
12 14 10 12 13 12 12 12 11 11 10 10 14 14 14 13 12 13 18 32 39 50 46 49 55 64 85 74 80 100 100 100 100 95 100 100 100 100 100 46 68 99 100 100 100
14 15 9 9 9 8 7 7 7 7 6 7 10 10 13 16 13 13 14 17 28 37 41 58 62 71 74 76 92 100 100 100 100 82 100 100 100 97 100 90 45 66 95 100 100
14 12 7 7 7 5 5 5 5 5 5 5 7 8 10 11 13 14 16 16 18 24 35 48 70 86 63 68 92 94 100 100 100 81 100 100 100 100 100 100 87 49 61 96 100
11 8 7 5 5 4 4 4 4 4 4 5 6 7 8 10 11 12 15 17 18 19 30 39 66 83 60 64 86 85 100 100 100 100 91 100 100 100 100 100 98 65 62 67 93
8 6 5 4 4 4 4 3 3 4 4 4 6 7 8 8 8 9 13 17 19 19 29 35 42 62 74 59 78 94 78 99 100 100 100 73 98 100 100 100 98 56 62 57 69

GFSSW_250_rhum_072.txt.gz
RH
57 68 77 84 86 70 80 62 64 76 80 74 46 50 95 78 91 100 98 87 82 62 71 72 62 61 56 47 44 39 38 58 99 73 72 92 86 86 72 56 50 46 34 33 21
73 90 97 89 99 100 100 97 91 81 73 93 100 97 84 60 74 91 100 100 99 94 79 71 56 55 49 58 88 88 63 85 100 87 96 80 88 81 61 39 28 21 18 16 20
93 81 100 92 99 98 100 90 93 92 80 68 66 82 77 53 40 72 87 100 100 100 92 100 100 98 98 95 93 95 95 100 98 89 90 77 53 43 37 30 21 18 19 18 23
100 95 100 100 89 82 87 100 98 89 80 66 61 56 54 50 40 59 80 100 100 97 100 99 98 100 100 100 100 100 100 100 97 81 65 48 39 33 43 28 32 23 26 26 23
100 100 100 100 100 95 67 79 92 79 87 73 57 49 46 42 38 46 76 87 100 100 88 100 100 100 100 100 79 77 84 73 63 51 44 47 44 70 36 36 36 23 27 25 21
100 100 100 100 100 96 65 64 96 88 75 59 51 47 39 40 34 45 65 89 100 100 100 93 93 94 77 100 88 64 57 51 47 63 64 84 90 33 39 32 29 21 24 26 24
100 100 100 100 100 96 64 59 85 98 85 46 45 47 38 35 32 34 80 97 100 100 100 100 100 100 94 100 100 98 58 44 66 71 95 89 46 38 35 32 20 19 19 22 24
84 94 91 74 72 71 66 96 95 83 48 42 36 39 37 43 55 73 100 82 100 100 100 100 100 100 76 93 100 68 49 57 72 100 100 48 29 38 37 18 16 15 16 18 23
67 67 75 83 68 70 87 68 57 44 40 38 35 36 44 54 95 100 100 100 100 100 100 100 100 100 98 100 100 100 87 78 100 100 83 29 29 57 21 14 13 14 18 20 24
98 99 85 84 71 73 79 56 50 48 37 25 31 36 62 100 100 100 100 100 100 100 100 100 100 100 100 99 100 100 85 98 100 100 59 26 34 38 14 12 14 19 20 22 29
100 91 70 92 96 97 71 48 42 46 26 25 25 35 79 100 100 100 100 100 100 100 100 100 100 100 92 100 84 75 81 100 100 84 40 29 33 30 13 16 20 25 23 26 36
100 96 81 73 87 68 60 48 40 42 31 25 22 36 65 98 100 100 100 100 100 100 100 100 82 87 100 100 83 100 87 98 82 49 36 32 37 26 16 24 29 30 37 38 38
100 96 81 84 74 66 60 52 30 28 26 32 21 36 59 96 100 100 100 100 100 100 100 100 83 85 100 100 96 81 86 90 61 48 54 37 35 23 19 34 40 35 37 40 43
99 98 81 66 54 59 55 58 37 28 20 34 49 29 72 90 99 100 100 100 98 100 69 71 95 100 100 100 100 98 77 75 79 57 43 30 39 31 25 45 37 43 52 48 79
100 97 59 52 82 75 58 37 36 25 20 35 54 61 56 80 100 100 100 100 96 100 100 100 100 100 100 100 100 100 92 89 64 45 37 35 39 48 31 46 44 63 78 97 100
97 68 51 64 51 51 28 27 27 24 21 28 38 46 66 72 73 99 100 100 100 100 100 100 100 100 100 100 100 91 80 60 42 47 37 42 52 42 42 54 86 81 100 100 98
65 59 32 32 27 24 25 21 19 20 22 25 29 31 39 51 66 68 94 100 100 100 100 100 100 93 99 92 88 77 69 56 45 50 48 56 62 64 55 87 100 100 100 100 68
87 58 26 25 23 22 20 19 20 20 22 23 25 26 30 32 52 70 64 81 100 100 100 93 96 96 90 74 70 68 55 56 55 54 53 62 53 50 67 100 100 77 100 96 62
55 29 24 22 22 20 18 18 20 22 20 17 14 11 15 26 33 47 80 82 78 93 99 93 94 87 80 70 60 63 64 69 62 48 60 48 67 57 100 100 100 93 100 98 62
26 27 22 23 21 20 18 16 14 11 12 11 11 10 11 13 20 33 66 88 95 100 100 95 98 89 83 74 65 67 81 66 56 51 67 51 74 64 100 100 75 83 100 100 90
25 23 20 22 21 18 13 12 11 11 11 12 13 12 12 13 14 18 32 54 78 86 99 100 98 86 96 84 80 82 57 50 61 59 72 62 97 95 100 100 100 100 100 87 95
21 19 20 20 15 12 11 13 14 14 11 12 14 13 15 14 14 15 18 30 45 65 84 97 100 88 99 81 88 96 48 80 74 87 78 62 98 100 100 100 100 100 100 95 98
21 19 16 11 11 12 16 15 12 11 9 8 8 10 11 12 16 15 17 20 28 36 44 58 70 97 93 72 75 70 74 98 91 100 75 74 99 100 100 100 69 100 100 100 100
20 13 10 12 15 14 11 9 8 8 7 6 6 7 8 11 12 13 18 21 19 21 24 45 49 78 82 60 62 81 91 99 100 96 72 87 100 100 100 100 71 100 100 100 100
13 12 13 14 12 10 7 6 6 5 5 5 5 5 6 8 10 13 13 18 23 18 19 26 42 52 45 50 61 93 95 100 100 79 66 88 100 100 100 100 83 100 100 100 100
16 16 13 12 10 8 7 5 4 4 4 4 4 4 5 7 8 10 12 14 20 22 20 19 21 35 39 36 61 97 99 94 100 93 64 96 100 100 100 100 98 83 89 99 100
16 15 12 8 8 6 5 4 4 4 4 4 4 4 4 6 7 9 10 11 13 20 21 20 19 27 38 35 61 100 90 89 96 100 61 99 100 100 100 100 100 92 78 73 99

GFSSW_250_rhum_075.txt.gz
RH
100 99 82 98 100 100 100 87 100 92 89 92 85 100 94 91 84 58 72 63 44 42 48 56 63 67 60 55 66 79 81 78 82 76 68 54 43 42 36 34 31 35 43 47 59
99 100 100 100 100 100 100 100 100 100 100 100 100 92 77 90 90 84 68 66 58 52 44 44 95 57 94 82 64 64 74 83 79 75 58 48 64 49 50 67 64 39 59 71 42
100 100 100 100 100 100 100 100 100 100 100 100 100 100 95 92 100 100 93 59 67 60 49 42 37 78 100 100 97 77 44 45 66 64 81 62 59 91 94 72 67 73 65 38 34
77 75 75 89 100 100 100 95 100 100 100 100 100 100 100 83 72 88 91 70 56 50 52 43 41 52 73 99 99 90 84 100 100 100 100 100 100 100 98 90 72 40 36 39 43
100 100 100 67 57 100 100 100 100 100 100 100 100 92 88 85 86 60 74 78 54 52 45 45 42 37 55 100 100 100 100 100 100 100 100 93 80 69 48 46 50 50 40 41 29
74 100 91 60 59 96 100 100 100 87 93 70 76 78 75 93 78 66 70 53 44 40 40 41 38 35 62 89 100 100 100 100 100 87 79 71 62 44 46 42 59 59 36 29 27
92 88 76 91 56 58 90 100 99 72 66 89 70 80 92 92 83 55 53 37 32 36 39 41 37 38 58 100 100 100 100 100 100 99 80 93 60 45 40 64 98 52 39 30 25
100 82 87 47 57 59 88 77 68 93 100 79 91 79 96 81 48 50 44 34 36 36 41 43 40 47 83 83 100 100 100 100 100 100 100 98 61 57 58 95 69 51 47 29 22
72 56 64 52 60 87 84 81 96 100 100 98 98 80 60 49 43 44 29 31 44 55 54 61 59 90 100 99 100 100 100 100 100 100 100 99 86 83 69 89 48 47 36 25 19
72 57 50 76 99 89 84 94 96 92 100 100 88 63 48 30 39 30 30 46 64 81 97 97 92 100 100 100 97 100 100 100 100 100 79 61 47 59 100 51 64 31 28 18 15
74 82 100 100 94 92 98 100 89 100 98 63 37 39 34 21 24 26 39 55 98 100 100 100 100 100 100 87 100 100 100 100 100 67 86 62 46 77 100 51 38 32 21 16 17
100 98 100 100 100 100 100 78 82 80 65 32 29 28 20 22 24 22 49 82 100 100 100 100 100 100 100 99 96 98 97 83 64 65 78 95 71 94 94 53 35 29 18 19 18
93 95 100 100 100 92 94 85 89 47 33 22 19 18 21 24 26 24 32 78 100 100 100 100 100 100 100 100 88 100 100 100 96 91 80 77 63 99 79 53 33 27 22 24 28
99 98 84 99 100 89 89 73 61 39 27 26 23 25 22 27 32 36 42 80 100 100 100 100 100 100 100 100 100 100 100 80 68 95 87 63 70 100 76 48 33 33 30 32 32
95 89 95 100 92 76 65 58 46 30 22 26 31 31 30 22 24 40 43 90 99 100 100 100 100 100 100 100 100 100 94 70 64 75 69 91 72 100 60 52 35 39 40 33 35
100 100 90 93 83 76 67 44 34 23 19 21 26 26 25 24 22 29 43 66 100 100 100 100 100 100 100 100 100 100 89 92 64 77 84 100 66 58 63 49 36 35 45 40 36
100 100 98 93 97 78 60 46 21 20 21 25 23 21 20 22 24 24 27 44 76 100 100 99 100 100 100 96 100 100 100 80 74 74 73 100 64 61 63 43 44 42 48 41 36
100 96 82 90 75 60 45 23 20 20 24 21 19 21 21 25 27 30 32 31 42 81 100 100 100 100 100 100 100 100 100 85 64 61 84 84 66 56 68 44 44 47 61 47 42
100 90 86 64 59 51 23 24 22 22 20 18 19 20 17 20 26 25 31 33 32 51 84 100 100 100 100 100 100 92 88 78 76 78 73 63 63 57 93 51 50 57 100 68 51
98 91 61 45 56 24 21 22 21 19 17 15 13 11 12 12 12 18 16 26 33 34 53 75 98 98 100 100 100 100 94 83 77 70 60 64 75 59 99 51 62 79 100 100 76
54 42 44 46 35 22 23 21 19 16 12 10 10 12 12 12 10 12 17 16 24 31 34 59 72 92 95 98 97 100 93 77 65 56 63 80 74 66 98 53 75 100 100 100 96
45 47 46 31 22 24 22 19 15 10 8 10 13 13 14 13 15 13 17 16 17 22 25 34 80 89 91 86 92 88 82 71 63 64 69 65 70 80 93 71 78 100 100 100 100
62 45 20 23 23 22 19 13 10 10 11 12 11 11 10 10 12 14 18 20 19 17 16 20 40 76 88 83 95 93 78 69 61 74 79 64 90 72 96 76 87 100 100 100 100
32 22 26 25 23 18 13 12 12 11 10 9 9 8 7 7 8 12 14 18 22 20 15 17 23 54 71 78 97 99 88 72 77 88 75 70 100 93 100 100 100 100 100 100 100
25 28 25 20 16 13 14 12 10 8 7 6 7 6 6 6 6 9 10 13 18 22 17 16 18 21 26 40 67 89 81 63 84 69 89 77 100 87 100 100 100 100 100 100 100
27 25 21 14 13 14 12 10 8 7 6 5 4 4 4 4 4 6 8 11 14 18 20 18 18 15 17 31 45 68 61 56 100 94 93 94 100 100 100 100 100 100 100 100 100
24 20 15 14 14 13 9 8 8 5 4 4 4 4 4 4 4 5 6 7 11 14 15 18 14 12 13 16 30 50 43 74 100 97 93 96 100 100 100 100 100 100 100 100 96

GFSSW_250_rhum_078.txt.gz
RH
44 44 60 85 85 100 95 77 93 97 76 86 100 91 92 100 100 100 100 100 100 100 100 100 84 75 60 48 41 48 39 36 57 64 76 92 85 70 68 74 81 68 59 48 38
52 62 62 89 86 92 65 74 84 100 65 44 61 98 100 100 100 100 100 100 100 100 100 100 96 96 78 64 50 50 56 50 37 48 76 82 84 81 82 86 89 86 46 38 33
86 84 99 98 99 100 99 100 100 100 68 65 56 95 100 100 100 100 100 97 91 100 100 100 100 96 96 67 56 60 64 58 54 50 58 65 98 98 81 90 88 54 38 42 61
96 100 88 50 69 77 88 99 98 75 98 75 82 69 99 100 100 100 100 94 66 80 100 100 90 84 84 66 55 55 65 61 58 69 98 82 41 42 75 86 91 100 89 91 94
44 57 57 50 45 37 38 38 54 93 70 95 100 87 98 100 100 97 80 68 59 71 86 98 90 67 57 47 51 48 61 63 57 70 97 81 91 92 80 98 100 100 94 74 45
44 43 47 50 60 56 61 57 76 93 90 92 100 90 75 93 82 67 66 97 88 80 76 74 59 53 46 43 45 47 54 60 91 100 100 96 100 100 100 97 71 63 56 47 38
39 46 69 75 79 75 73 84 81 52 75 65 100 82 87 83 81 91 99 94 89 84 94 51 41 35 35 37 36 45 56 58 94 100 100 91 97 100 99 79 76 83 72 53 44
80 80 78 92 95 94 90 84 97 95 72 54 72 88 76 78 97 94 100 81 45 45 46 38 30 29 35 35 34 48 67 78 93 100 100 90 100 100 100 100 99 86 84 74 58
100 86 70 97 100 100 100 100 83 76 63 93 88 85 95 100 100 96 70 42 33 36 38 32 27 36 33 32 35 53 65 77 77 100 100 100 100 99 94 98 100 100 100 84 52
100 94 88 100 100 100 89 91 85 69 70 82 93 100 90 94 92 70 47 27 27 30 29 26 30 30 33 34 42 56 84 87 100 100 100 100 100 100 100 100 100 86 78 48 40
92 86 100 93 94 85 66 69 61 80 86 100 92 82 85 77 59 42 27 20 22 24 25 28 27 45 73 81 75 81 100 100 100 100 100 100 100 100 100 100 100 73 51 65 42
99 98 100 100 100 93 86 82 72 86 100 90 83 75 79 65 36 25 19 22 27 30 26 31 58 82 100 100 96 100 100 100 100 100 100 100 99 100 100 100 68 82 60 52 40
100 100 100 100 100 98 87 89 100 100 100 96 70 58 55 37 24 18 15 21 30 32 25 30 79 100 100 100 100 98 100 100 100 100 100 100 100 100 96 66 69 70 70 44 35
100 100 100 97 94 96 100 100 100 100 89 91 73 63 44 31 20 20 17 16 23 30 32 56 73 100 100 100 100 100 100 100 100 100 100 100 94 78 72 65 60 57 49 40 41
97 100 100 100 100 92 100 100 85 88 60 68 56 43 28 23 21 21 24 22 19 32 48 63 91 98 100 100 100 100 100 100 100 100 100 100 94 100 82 67 53 51 43 41 45
100 100 100 100 100 98 100 94 83 74 74 66 50 34 22 18 22 23 25 23 21 25 60 79 90 100 100 100 100 100 100 100 100 100 100 100 100 84 68 66 56 54 45 48 40
100 99 96 100 100 92 94 85 70 80 73 54 33 36 23 22 23 25 23 20 22 23 41 89 92 100 100 100 100 100 100 100 100 100 100 100 86 85 80 72 59 51 51 49 39
100 92 89 97 100 99 94 78 61 58 41 27 31 20 21 26 24 22 22 23 21 24 28 58 97 98 100 100 100 100 100 100 100 100 100 100 83 78 75 68 48 61 58 52 45
100 97 89 90 95 67 65 54 45 29 23 28 25 20 22 22 22 22 22 23 26 23 26 34 59 95 98 100 100 100 100 100 100 100 100 100 95 82 79 64 63 59 53 59 51
100 93 90 91 64 46 38 30 26 23 24 29 22 21 20 20 18 17 18 18 20 27 26 31 38 66 95 99 100 100 100 100 91 100 100 100 84 77 73 69 72 57 52 61 48
91 51 59 70 53 31 26 23 22 28 26 22 21 18 16 14 10 10 11 12 13 17 24 29 34 39 74 91 90 100 100 100 100 100 97 96 84 69 63 69 73 55 66 62 47
40 40 46 39 34 30 26 24 30 22 22 21 17 13 9 10 12 13 14 12 18 13 16 19 28 35 48 74 93 97 100 97 95 100 97 88 74 54 64 76 55 55 86 64 52
38 35 32 34 30 28 27 25 23 22 20 16 11 10 11 12 12 14 14 14 18 16 12 13 16 31 40 47 82 100 100 96 100 97 85 80 79 59 71 65 57 62 88 63 71
29 30 32 31 24 25 23 24 23 20 14 11 11 10 10 9 8 10 10 11 15 17 15 12 14 20 28 35 45 71 94 100 100 100 92 80 75 71 88 64 56 84 92 82 100
30 33 31 25 26 31 30 22 20 13 11 12 10 7 6 6 6 6 7 8 12 16 15 15 14 16 20 27 35 51 70 84 94 98 92 71 61 82 90 78 79 90 98 99 100
34 29 34 30 31 31 23 20 14 13 12 10 8 7 6 5 4 4 5 6 8 12 12 15 17 16 18 21 16 28 48 86 90 87 84 67 75 84 72 100 97 93 97 100 100
32 40 32 31 27 23 22 14 14 12 10 10 7 5 4 4 4 4 4 5 7 10 12 14 16 17 16 15 10 21 29 55 92 91 76 65 86 94 89 100 100 100 100 100 100

GFSSW_250_rhum_081.txt.gz
RH
61 60 65 56 37 46 62 69 65 78 68 73 76 98 100 100 100 94 85 81 97 100 100 100 100 100 100 97 100 100 100 100 100 95 58 36 47 44 41 32 37 63 95 99 99
56 59 83 88 77 53 56 95 98 87 69 86 88 72 53 69 99 84 71 100 100 100 100 100 100 100 100 100 91 100 100 100 100 100 63 53 50 65 58 43 34 50 94 100 100
61 58 98 100 100 98 92 88 98 72 57 46 42 40 40 64 84 97 99 100 100 100 100 95 100 100 100 100 97 77 94 100 100 100 85 67 56 65 77 54 43 53 74 99 100
71 78 100 100 100 80 57 52 73 70 56 56 47 42 43 74 95 100 100 100 100 99 100 100 100 96 94 86 74 66 80 100 95 84 78 79 64 69 100 96 82 52 60 72 85
90 70 98 100 100 82 58 55 54 44 54 62 76 60 66 60 100 89 100 100 90 99 100 94 75 74 78 100 85 68 62 90 99 100 87 68 65 76 92 59 97 96 62 66 99
100 88 81 99 93 81 74 53 47 46 69 59 71 93 100 98 70 100 84 81 73 73 76 70 72 73 81 78 69 73 52 53 54 58 93 65 74 64 100 83 98 78 57 98 100
100 94 95 68 80 74 79 51 45 65 88 75 63 93 100 99 92 81 85 79 61 77 70 93 95 93 59 41 34 37 29 30 35 42 56 55 64 71 100 100 99 91 100 100 94
100 100 96 93 82 80 92 76 64 79 100 86 73 75 82 100 100 98 90 59 65 82 84 96 76 51 33 26 19 20 21 26 36 35 41 46 56 72 100 100 96 100 100 100 100
100 100 93 100 100 95 100 100 82 96 100 100 94 58 75 83 88 71 67 77 81 97 90 72 47 34 24 17 15 24 22 23 30 33 41 46 53 74 98 100 100 100 100 100 100
53 64 95 53 94 56 75 100 100 98 100 98 60 70 85 78 59 83 80 81 84 79 75 51 37 27 20 15 17 21 21 25 33 37 47 44 47 63 100 100 100 100 100 100 100
79 61 46 50 43 67 72 81 100 94 55 50 75 97 94 74 71 96 94 81 65 80 57 37 27 21 17 16 17 20 22 24 31 32 35 53 81 100 100 100 100 100 100 100 100
100 86 80 84 100 95 90 93 68 46 65 100 99 96 87 83 77 86 72 70 70 58 32 27 21 19 20 20 21 22 22 37 41 33 50 100 89 97 100 100 100 100 100 100 100
100 100 100 100 100 100 100 94 94 100 99 100 100 98 100 99 84 70 73 64 52 32 22 20 23 24 22 26 24 25 39 70 83 71 70 84 77 100 100 100 100 100 100 97 98
100 100 100 100 100 100 100 100 100 96 100 94 100 100 98 86 66 61 53 45 28 28 18 17 24 26 22 28 32 60 64 93 100 100 93 97 99 100 100 100 100 100 100 100 87
100 100 100 100 100 100 100 100 99 100 100 95 96 90 80 72 58 47 37 25 26 24 18 16 21 26 24 24 44 100 91 100 100 100 98 100 100 100 100 100 100 100 100 96 87
100 100 100 100 100 100 100 100 100 100 90 98 84 92 73 58 33 32 30 27 22 17 19 18 19 24 29 36 57 92 100 100 100 100 100 100 100 100 100 100 100 100 100 90 78
100 100 100 100 100 100 100 100 100 98 100 86 68 59 46 36 26 25 24 29 21 19 20 19 19 22 35 52 69 91 100 100 100 100 100 100 100 100 100 100 100 100 100 87 65
100 100 100 100 100 100 100 100 100 100 98 70 50 42 41 22 26 23 30 21 20 22 22 19 18 20 36 65 73 100 100 100 100 100 100 100 100 100 100 100 100 100 99 74 60
100 100 100 100 100 100 100 100 100 96 74 67 45 36 30 24 26 27 22 23 22 19 24 20 20 21 29 60 73 100 100 100 100 96 100 100 100 100 100 100 100 100 97 78 56
100 100 100 100 100 100 97 92 86 61 48 42 34 28 26 23 20 23 23 19 20 20 19 22 21 20 27 46 72 89 100 100 100 100 100 100 100 100 100 100 99 96 96 70 52
85 91 90 90 92 84 70 64 55 45 35 31 28 26 22 19 16 20 21 18 17 17 16 18 17 22 27 31 51 80 100 100 99 100 100 100 100 100 100 100 100 100 98 70 52
71 71 75 81 74 63 61 57 48 35 31 29 26 21 20 19 17 17 16 15 10 13 13 12 12 16 20 28 36 73 86 100 100 100 100 100 100 100 100 100 100 100 85 60 56
72 71 66 60 58 55 50 44 34 30 24 22 21 22 21 18 14 12 10 11 10 15 13 11 11 12 13 22 31 52 90 95 98 100 100 100 100 97 98 98 96 90 76 65 53
59 53 46 49 51 46 42 36 30 24 21 23 24 22 17 13 9 10 10 10 10 12 11 14 15 13 13 18 26 36 58 98 93 100 100 100 100 100 78 75 87 88 70 58 51
49 49 48 54 51 47 38 30 23 22 25 26 20 15 12 9 9 8 7 6 6 8 12 13 16 15 14 14 23 36 47 86 86 91 100 99 100 93 88 94 84 72 64 51 53
59 51 43 56 50 38 30 31 29 27 23 18 15 11 12 10 8 6 5 6 6 7 8 11 13 12 16 16 16 24 26 47 80 100 100 100 95 88 86 92 81 90 57 62 81
54 54 44 40 40 36 34 38 31 22 18 15 12 13 11 8 7 5 4 4 4 5 7 10 13 13 15 16 17 19 24 37 65 96 99 100 90 96 97 94 90 93 57 90 100

GFSSW_250_rhum_084.txt.gz
RH
78 100 100 100 88 61 56 56 76 86 68 55 61 79 76 74 64 66 50 41 39 40 59 99 100 100 94 100 100 100 100 98 100 100 96 100 100 100 96 100 71 60 45 44 39
46 38 42 56 88 98 71 66 91 100 99 98 91 85 84 75 58 48 56 44 40 42 51 65 82 83 98 100 100 100 100 100 100 96 80 80 81 71 87 100 85 66 64 50 44
47 39 43 42 74 78 81 86 100 100 100 100 100 100 76 77 76 58 60 65 73 79 87 100 100 100 100 83 97 100 100 100 100 100 100 95 70 70 75 86 81 58 63 63 51
47 46 45 52 46 41 56 55 46 80 100 100 98 80 61 59 56 57 63 62 69 97 100 99 88 88 100 100 100 99 100 100 98 89 85 74 71 63 77 97 97 82 65 68 56
61 68 62 71 71 87 90 100 91 83 100 100 100 90 76 74 55 49 58 57 65 53 87 100 100 100 100 100 98 73 74 68 73 87 94 68 70 70 71 80 80 79 66 62 89
72 77 85 99 99 91 81 99 99 64 80 99 100 100 99 98 81 74 62 97 95 82 60 64 80 96 99 99 92 71 66 63 71 74 63 53 50 41 62 100 86 82 78 63 76
99 80 84 99 100 99 100 98 100 100 100 98 92 73 72 100 100 93 50 79 100 100 100 64 78 66 68 77 75 66 56 52 49 42 36 36 29 40 73 100 82 77 62 67 97
100 100 100 100 100 100 100 100 97 100 100 100 100 100 100 96 100 100 100 100 99 100 73 71 86 64 64 58 51 46 43 40 31 27 24 25 19 34 37 63 88 56 55 66 100
100 100 100 100 100 96 70 100 88 42 64 79 82 64 100 63 80 99 100 100 95 58 64 74 60 74 52 53 60 54 33 21 23 21 17 15 17 25 32 38 52 53 62 68 100
100 100 100 100 100 100 89 74 62 44 70 47 75 59 83 72 73 69 47 45 47 63 82 90 98 78 79 64 58 38 22 17 17 16 14 13 20 27 37 39 41 46 58 85 100
91 100 100 97 100 100 87 70 54 55 47 92 50 55 62 55 52 43 38 56 82 90 86 96 77 83 85 60 38 29 20 15 16 14 13 14 20 26 31 37 43 56 58 100 100
100 100 100 100 97 98 88 79 79 90 95 87 91 79 86 80 53 72 94 88 76 88 87 84 99 72 38 38 26 20 17 15 15 15 13 18 22 25 40 52 52 56 88 100 100
100 100 100 100 100 100 99 100 100 100 97 92 100 100 98 98 100 100 95 92 93 97 86 80 57 31 28 28 20 17 15 15 16 18 18 23 22 26 42 54 51 66 80 80 100
100 100 100 100 100 100 100 100 100 100 100 100 98 100 100 100 100 100 92 95 98 76 76 50 36 24 19 19 17 15 16 17 20 20 24 25 33 65 61 66 73 97 98 100 100
100 100 100 100 100 100 100 100 100 100 100 79 100 99 100 97 84 91 96 81 72 79 61 30 27 22 20 16 15 16 17 21 24 22 27 100 45 100 94 98 100 100 100 100 100
100 100 100 100 100 100 100 100 100 100 100 93 96 100 100 100 95 78 92 93 82 66 34 30 23 20 20 18 18 20 21 24 28 37 56 98 64 100 100 100 100 100 100 100 100
87 100 100 100 100 100 100 100 100 100 100 100 87 98 100 100 97 95 72 86 75 47 28 23 22 22 18 17 19 22 24 25 30 64 87 98 100 99 100 100 100 100 100 100 100
63 58 94 83 98 100 100 100 100 100 100 100 100 96 94 98 90 82 83 61 45 31 26 22 23 18 13 25 20 21 24 33 46 86 100 100 84 100 100 99 100 100 100 100 100
44 44 53 58 80 100 100 81 89 80 98 100 100 100 94 87 83 73 52 42 35 29 22 18 18 19 16 23 19 21 27 40 68 88 96 100 100 100 100 98 100 100 100 100 100
75 60 62 59 77 92 90 95 84 92 90 99 100 100 95 85 62 54 49 36 28 22 19 18 16 20 17 19 21 21 28 61 97 100 100 100 100 100 100 100 100 100 100 100 100
100 100 99 100 85 94 94 100 94 99 96 96 90 81 71 69 60 40 31 31 20 18 16 22 18 23 15 20 23 21 30 54 89 98 100 100 100 100 100 100 100 100 100 100 100
100 100 99 100 100 99 100 100 96 100 96 88 75 64 60 49 33 30 30 23 17 15 18 19 19 16 15 16 20 19 28 46 70 100 100 100 100 100 100 100 100 100 100 100 100
100 100 100 95 100 99 83 85 92 89 75 57 51 41 35 31 29 26 21 15 19 19 12 14 13 12 12 12 17 16 30 40 64 100 100 100 100 100 100 99 100 100 100 100 100
100 92 100 97 98 78 65 60 56 46 51 53 40 40 42 41 25 17 17 19 16 13 9 10 12 12 12 15 14 15 26 32 40 83 100 100 100 100 100 100 100 92 100 100 100
99 87 91 89 79 67 61 61 60 54 49 48 48 42 34 25 17 20 18 13 10 9 9 8 9 10 12 12 14 14 17 26 48 81 99 100 100 96 100 100 100 100 100 100 100
96 95 76 64 63 67 64 62 55 57 46 43 40 32 25 23 20 15 12 8 8 6 6 5 6 6 10 12 13 14 19 30 31 94 84 85 86 89 100 100 100 100 100 100 76
74 88 79 62 62 72 73 50 42 40 38 38 36 29 23 18 14 11 10 7 6 5 5 5 6 8 11 9 11 17 24 24 40 73 36 57 82 100 100 100 99 100 100 92 77

GFSSW_250_rhum_087.txt.gz
RH
100 100 93 81 65 66 53 60 91 84 96 85 60 60 94 100 99 86 89 89 84 64 61 59 51 49 47 48 46 56 54 71 99 100 96 78 93 100 87 75 97 100 94 99 77
100 99 99 94 80 58 46 38 42 44 73 96 90 70 78 91 99 100 100 100 100 82 75 70 62 61 55 50 46 60 79 99 88 79 100 100 100 100 100 100 100 100 92 73 61
50 65 60 66 64 75 55 45 42 41 44 78 79 48 47 47 65 97 100 100 91 70 60 65 70 53 58 75 80 66 65 89 100 100 100 100 100 100 94 97 81 78 87 74 55
38 38 44 44 62 64 80 62 56 49 48 53 50 70 96 80 97 100 100 100 100 92 89 99 96 100 96 98 100 100 100 92 77 56 78 78 99 100 90 62 86 92 94 82 75
74 48 51 44 43 63 63 80 60 60 60 74 84 100 89 95 92 75 84 99 100 100 100 100 100 100 100 93 96 100 100 89 68 43 47 46 46 52 76 65 68 74 86 93 73
76 92 56 60 56 79 89 78 83 74 71 87 88 95 85 75 100 99 89 81 79 100 100 100 100 100 100 100 100 100 88 70 46 46 54 56 52 44 46 61 58 53 49 58 54
88 100 100 80 62 77 88 97 100 96 100 100 99 98 100 100 100 98 100 100 100 100 100 100 100 79 89 97 100 85 74 44 70 67 68 47 28 43 45 48 37 42 41 42 42
93 92 96 85 74 87 93 93 95 100 100 95 100 100 100 100 100 76 48 48 54 70 73 62 95 100 80 76 56 44 42 56 88 88 52 34 20 29 30 29 26 27 28 32 36
63 85 83 91 91 100 100 100 96 100 100 96 99 100 100 65 82 82 51 37 62 76 100 69 74 67 45 43 43 51 67 90 96 52 27 22 15 21 23 22 21 23 26 34 38
58 64 77 76 91 98 100 100 98 100 100 100 96 93 93 67 57 62 54 39 56 82 69 60 61 45 41 51 82 82 78 95 63 50 20 16 16 17 15 17 18 17 19 21 22
56 57 71 78 90 100 99 88 100 100 100 100 100 100 100 87 97 71 44 73 56 63 64 75 50 69 97 100 98 79 84 75 46 23 15 16 14 13 13 15 16 15 17 24 26
59 57 86 92 100 91 93 100 100 84 68 82 100 100 100 96 73 52 54 63 86 59 53 75 100 100 94 87 67 74 71 57 24 17 14 14 12 13 15 14 18 19 22 29 34
68 59 70 82 84 100 91 100 100 100 99 92 99 100 98 79 56 80 90 89 80 75 98 99 100 85 65 72 90 84 65 30 17 15 15 11 11 14 18 19 20 27 27 36 36
47 72 83 89 94 74 86 96 100 100 100 99 100 100 87 77 94 100 100 100 100 100 85 84 85 90 93 85 71 66 39 20 15 14 14 12 12 19 21 22 31 38 36 52 48
69 100 91 57 88 99 85 98 100 100 98 86 90 100 100 99 100 100 100 100 100 100 88 70 84 78 82 76 61 39 20 17 15 14 14 14 11 70 32 53 41 52 68 64 50
48 79 83 76 55 96 98 92 100 100 100 100 100 100 100 100 100 100 100 100 100 100 100 96 79 69 68 63 46 29 21 14 14 12 17 15 17 54 54 71 86 72 92 81 80
50 52 65 83 72 85 95 99 91 94 100 100 100 100 100 100 100 100 100 100 100 100 98 76 76 88 67 40 31 22 18 14 17 15 21 23 24 58 100 92 100 100 100 100 100
46 51 48 60 87 81 66 99 100 100 100 100 100 100 100 100 100 86 95 98 96 82 86 84 75 63 47 36 29 22 18 15 17 19 22 29 43 99 100 100 100 100 100 100 100
61 49 47 54 60 53 63 78 89 80 91 97 98 98 97 87 98 88 88 87 59 54 58 53 47 57 37 25 22 20 19 17 20 20 24 34 52 100 100 93 100 100 98 100 100
97 67 62 70 72 66 65 71 81 84 83 74 65 80 100 100 100 100 93 65 59 49 52 52 25 29 26 22 18 20 20 19 20 22 26 46 71 100 100 97 83 100 100 100 100
100 100 99 96 100 100 100 95 100 79 57 53 63 80 87 76 68 60 71 82 54 58 45 24 18 24 28 20 20 21 22 20 20 23 25 62 84 94 100 100 98 100 100 100 100
66 100 100 85 100 93 98 100 99 87 92 99 100 99 82 73 69 74 62 46 44 31 25 20 14 11 23 27 22 22 21 18 20 26 30 77 100 100 100 100 82 100 100 100 100
71 78 94 100 100 93 79 85 98 94 100 100 100 94 86 75 67 60 46 38 40 28 18 17 12 14 20 27 17 16 19 17 20 24 36 82 100 100 99 100 100 70 100 100 100
83 90 100 99 93 100 100 100 100 100 98 100 100 83 77 75 54 50 46 35 24 19 13 13 17 16 16 17 12 13 15 15 19 27 44 83 100 100 97 95 100 100 77 95 100
97 77 79 86 95 100 98 98 98 90 88 86 73 75 73 62 54 48 34 23 19 16 18 15 15 10 10 12 10 10 14 15 15 25 28 66 93 100 100 94 100 96 100 96 100
82 100 100 100 100 100 100 91 86 93 83 78 70 63 56 54 46 31 16 16 24 18 13 10 11 9 9 8 8 11 15 16 15 22 30 46 90 100 100 100 94 98 100 100 100
69 85 91 79 83 82 85 84 78 70 79 70 63 57 48 36 26 19 23 23 17 12 9 10 8 7 7 7 7 10 17 18 17 20 29 52 64 100 95 100 100 85 80 84 99

GFSSW_250_rhum_090.txt.gz
RH
100 92 80 84 93 100 100 100 88 76 65 59 49 39 44 53 81 86 78 57 62 85 97 100 100 100 100 97 69 59 52 56 63 53 52 68 55 74 80 71 83 91 70 74 66
97 97 65 60 42 72 100 100 100 100 89 71 65 45 40 44 36 40 69 50 43 50 43 57 89 99 100 100 85 75 81 88 87 85 93 75 99 100 86 63 47 76 100 100 100
86 73 54 47 41 38 43 51 63 66 50 45 51 67 56 52 42 39 55 60 53 67 54 59 68 100 100 100 100 100 100 100 100 100 100 100 100 100 98 97 74 54 43 39 83
61 65 57 52 52 43 37 50 48 45 45 40 47 66 73 60 54 46 73 80 91 100 100 100 100 100 100 100 100 100 100 100 100 100 100 100 100 100 94 78 59 50 45 47 46
44 42 43 43 40 40 39 41 62 58 44 43 47 66 62 86 67 58 74 99 100 100 97 100 100 98 88 100 100 100 100 100 100 100 95 87 90 85 79 62 47 37 37 57 45
51 44 40 34 39 41 53 57 62 60 75 52 51 55 76 87 82 75 67 84 96 94 100 100 94 98 92 88 85 82 97 95 80 92 89 68 70 63 54 62 56 52 71 57 44
48 39 38 42 41 45 47 59 76 74 69 72 60 59 76 80 83 100 84 86 75 70 97 100 100 100 78 58 43 44 71 98 88 75 76 57 50 49 50 62 47 63 45 46 47
41 39 38 38 55 51 53 73 83 97 82 68 59 65 85 74 80 86 100 100 100 100 100 100 97 81 64 64 42 44 74 85 83 71 53 43 44 73 71 86 65 39 30 24 29
42 37 42 42 49 67 58 82 100 98 97 86 80 73 81 76 97 85 74 92 100 100 100 100 100 85 61 65 42 36 70 96 87 59 44 47 45 69 76 52 29 17 16 19 24
38 40 44 47 43 59 72 64 72 83 89 93 93 89 87 82 80 74 58 59 88 100 100 100 95 80 87 68 41 49 45 51 46 50 69 75 54 63 42 27 16 13 14 14 16
32 37 34 48 51 59 77 66 59 81 74 86 90 93 100 100 100 94 97 83 90 100 100 100 100 100 99 49 41 63 84 93 98 100 79 89 60 63 42 19 14 14 12 13 14
36 45 37 45 51 52 87 84 73 81 79 69 92 99 100 100 100 99 100 97 85 95 99 100 100 83 61 43 56 73 91 100 85 76 79 67 59 57 26 14 12 12 13 12 13
26 32 39 53 71 52 50 83 87 95 88 79 80 100 98 98 100 100 99 92 81 70 78 93 97 78 51 53 66 83 100 100 100 89 70 52 44 30 17 11 12 12 11 14 16
24 27 34 52 47 52 42 49 91 87 98 92 98 89 100 92 100 100 100 100 88 74 64 71 57 48 59 92 94 100 100 100 73 64 54 51 20 28 11 13 12 11 16 18 21
25 22 28 39 50 52 47 55 61 87 85 90 76 81 88 100 93 100 100 100 100 99 88 74 65 74 99 100 100 100 100 100 99 63 42 51 13 21 12 13 13 19 22 27 30
18 22 25 30 40 48 50 45 45 79 99 88 87 97 97 73 79 75 72 86 81 77 69 71 88 99 100 99 92 98 98 80 63 48 44 24 14 16 15 16 20 34 36 45 29
15 19 21 29 29 31 40 45 54 76 94 94 70 83 86 97 83 89 81 83 76 80 95 100 100 92 94 98 84 76 74 59 49 44 25 17 15 16 19 21 35 72 69 61 74
10 11 13 18 27 29 35 49 60 63 53 58 71 74 70 81 82 97 86 81 85 80 90 100 100 100 100 93 81 63 47 45 38 23 18 15 17 19 25 27 60 83 87 95 82
14 16 17 19 28 27 40 50 48 53 54 59 71 76 70 70 77 82 82 100 100 100 100 100 100 100 80 76 71 59 54 43 27 20 16 15 20 25 30 66 93 99 100 100 86
14 14 18 19 25 37 47 40 48 56 59 67 92 94 92 77 76 91 93 87 93 92 91 89 85 74 78 65 61 56 44 29 21 16 16 19 23 30 38 81 87 100 100 100 100
19 19 23 35 42 63 50 59 82 98 89 85 82 83 73 57 70 90 99 89 71 62 61 48 43 45 57 48 40 33 30 23 17 14 20 21 28 40 78 68 97 100 72 100 100
27 25 43 73 100 95 96 93 100 90 88 78 76 66 66 74 81 74 69 57 55 50 41 44 41 36 44 48 39 28 20 21 16 20 22 21 34 83 98 100 94 100 68 98 100
32 44 55 86 98 88 92 92 97 95 85 83 76 84 74 68 80 82 77 68 68 61 57 52 30 18 18 30 44 25 18 21 19 20 21 22 43 68 100 100 100 99 95 90 100
39 51 73 86 95 97 85 100 95 96 91 96 91 86 89 94 91 84 81 73 78 62 47 40 27 13 11 19 27 24 21 21 18 18 18 26 33 56 100 100 100 94 74 86 100
45 80 99 100 100 100 100 100 100 100 100 100 84 83 94 81 82 85 76 78 77 54 29 22 22 14 14 18 21 18 16 16 14 15 17 28 53 66 90 100 100 100 72 70 100
63 68 75 100 100 100 100 100 100 100 100 99 85 85 92 91 88 86 65 59 58 28 14 15 19 18 17 12 11 12 14 14 14 13 18 22 24 45 82 92 100 88 87 65 96
52 60 66 82 90 96 98 95 92 82 84 85 89 91 91 97 75 56 55 42 30 20 17 18 14 10 11 9 10 10 10 11 11 13 17 17 19 49 57 53 86 86 100 72 99

GFSSW_250_rhum_093.txt.gz
RH
91 97 100 100 100 100 100 100 100 89 66 85 94 100 87 78 70 70 64 44 37 39 38 38 58 43 41 57 58 62 65 73 100 100 89 92 91 94 79 83 96 95 99 76 64
88 92 96 100 100 100 100 100 100 80 68 50 79 100 100 100 95 74 58 58 43 47 44 39 31 37 36 40 37 36 39 73 100 100 100 100 96 100 86 80 98 100 98 100 91
100 99 76 73 100 98 92 100 100 81 56 64 44 51 52 67 54 47 39 53 66 60 54 43 39 40 43 41 58 61 83 91 99 100 79 100 100 100 93 100 100 100 99 87 76
76 100 99 88 81 100 100 71 70 75 61 54 49 43 45 82 79 55 46 41 52 69 68 62 54 48 46 65 96 100 84 90 87 100 88 91 85 83 91 95 97 99 98 85 79
66 69 100 92 87 82 82 97 60 58 58 50 45 43 39 44 93 63 58 49 46 45 54 79 70 61 65 90 100 100 100 100 98 94 88 70 61 50 50 90 87 85 81 68 68
52 55 75 88 83 88 78 76 72 62 46 41 42 37 34 38 43 52 54 57 47 49 60 64 71 70 78 89 98 94 93 100 99 100 98 81 60 46 80 91 92 95 77 67 62
62 59 64 90 100 91 80 75 78 71 55 40 37 35 35 57 53 60 71 59 65 50 54 59 65 73 77 100 100 100 100 100 100 94 68 63 56 42 45 88 98 90 74 67 59
71 64 57 49 53 66 56 51 63 67 59 45 41 44 48 62 57 89 84 83 65 64 62 65 70 76 84 93 100 100 100 100 100 100 100 79 60 56 37 51 71 55 60 62 76
61 62 65 50 46 45 45 43 48 50 52 51 45 43 59 66 64 63 100 100 88 78 76 71 69 84 85 90 100 100 100 100 100 100 92 58 64 53 38 68 80 61 75 93 73
46 49 50 57 45 38 34 37 42 40 43 54 50 52 48 68 100 91 99 100 93 89 92 91 74 80 81 63 59 83 100 100 100 100 95 96 73 54 44 61 58 62 59 53 55
26 30 31 33 38 35 36 40 33 37 41 48 56 49 60 64 79 79 93 86 90 100 96 96 100 90 88 63 66 94 100 100 100 87 100 100 81 44 46 96 91 62 63 48 32
23 23 24 27 28 29 30 39 42 31 36 51 49 60 64 72 86 87 94 95 82 99 100 100 100 98 88 99 94 86 87 93 91 74 70 63 47 44 76 87 73 73 46 32 23
22 23 20 19 22 26 34 28 32 36 30 42 43 49 55 66 96 88 89 90 84 99 100 100 100 100 99 94 99 94 85 91 86 72 59 44 40 80 92 75 54 34 27 25 15
16 18 18 21 22 21 23 26 25 31 32 33 42 53 48 68 77 100 99 94 86 91 94 100 99 96 88 100 87 93 91 81 74 64 54 42 48 90 92 52 28 28 23 16 12
8 8 10 13 14 18 24 23 21 26 25 32 42 48 49 57 75 79 88 100 100 94 89 94 86 74 88 94 86 85 71 74 71 55 49 54 37 80 96 36 32 22 16 13 12
7 6 8 10 12 14 16 17 17 24 21 26 40 49 60 65 63 70 69 80 96 89 78 82 80 87 72 71 73 71 69 65 60 57 55 54 50 78 44 43 32 17 14 14 15
8 6 6 6 7 9 12 14 16 17 24 26 33 43 48 57 68 70 67 68 86 93 89 74 71 71 69 66 56 59 64 61 63 58 74 76 43 37 38 30 22 17 17 17 22
9 8 8 8 12 12 9 9 10 14 20 30 41 38 49 58 64 68 66 60 85 100 86 73 72 64 77 72 71 70 58 60 59 74 75 66 48 44 29 24 19 18 21 27 31
13 12 11 10 13 17 16 14 15 16 20 31 37 42 48 59 54 53 52 59 69 73 67 83 86 93 86 74 72 79 78 93 77 74 52 47 42 44 25 22 20 21 31 39 32
15 15 15 15 15 17 18 17 21 22 31 34 40 39 56 52 56 52 56 57 56 67 76 92 100 94 76 72 76 88 87 86 73 55 36 33 35 30 24 19 24 28 44 65 44
18 19 20 19 18 17 17 20 26 35 49 52 39 42 48 58 71 66 61 74 80 85 97 94 94 89 92 87 91 82 73 72 67 49 33 24 33 26 19 24 28 41 54 60 39
17 35 39 35 36 29 26 30 44 47 83 84 69 83 87 74 67 71 81 87 93 100 92 80 76 88 100 92 71 66 66 57 42 26 25 22 28 22 26 29 36 52 74 60 60
22 33 37 37 54 41 60 64 77 100 100 100 100 100 100 99 96 90 87 84 88 84 68 56 54 60 62 62 70 79 70 31 23 21 25 19 28 24 33 33 42 62 73 70 72
23 22 28 36 67 83 84 100 100 100 100 100 100 100 100 96 90 98 93 96 84 59 49 50 53 55 48 54 74 69 39 23 20 18 17 20 33 23 32 52 66 73 57 60 90
23 25 28 60 74 86 90 94 100 100 100 100 100 100 100 100 100 91 75 79 68 61 58 56 59 49 29 29 36 22 21 18 13 19 18 26 28 23 35 75 100 86 72 53 85
26 28 32 56 77 97 100 96 98 100 100 100 100 100 100 100 94 98 88 81 79 66 57 52 46 29 26 19 13 15 28 20 16 19 17 19 25 26 37 67 100 87 78 86 90
25 29 37 52 81 100 100 100 100 100 100 100 100 100 100 100 92 88 90 76 69 49 31 41 24 20 28 21 14 17 17 14 12 13 14 15 21 23 28 69 93 60 60 74 92

GFSSW_250_rhum_096.txt.gz
RH
100 100 100 100 100 100 100 94 91 82 99 100 100 100 100 100 79 79 100 100 98 91 77 65 64 50 44 41 43 34 30 44 76 63 51 70 63 74 67 84 100 99 82 58 64
100 100 100 100 100 100 100 100 100 100 100 100 100 100 100 99 83 56 68 100 100 100 100 91 71 58 48 44 48 45 36 44 62 62 55 57 41 58 46 60 92 64 53 71 79
100 100 100 100 100 100 100 100 93 93 88 100 100 98 100 100 80 71 63 62 78 75 73 61 46 39 44 45 56 48 53 53 59 56 51 48 60 60 51 61 72 91 84 72 68
100 100 100 100 100 100 100 100 98 88 84 86 80 96 84 79 92 79 60 57 55 49 61 54 44 45 39 39 40 51 66 60 54 62 76 87 66 83 84 85 96 95 89 76 56
87 100 100 100 100 100 94 92 92 78 100 87 79 92 91 88 84 66 67 61 49 46 43 41 38 36 36 43 51 53 51 61 74 77 84 89 95 94 99 100 100 98 83 73 67
58 70 97 100 98 76 71 66 68 68 69 98 88 68 100 84 78 70 62 54 50 45 38 34 37 34 40 52 70 52 65 64 67 75 84 99 87 96 100 100 100 99 100 100 82
37 48 60 77 63 92 68 46 60 66 55 58 91 72 62 92 70 71 66 58 49 39 36 33 34 52 60 77 68 83 63 61 68 75 74 62 98 100 100 100 100 100 92 86 90
48 45 47 50 45 45 65 48 56 58 53 60 57 68 55 89 59 54 69 66 52 44 39 42 38 61 78 81 62 65 74 67 60 58 79 100 100 100 100 100 100 92 76 90 100
53 47 50 47 46 52 51 42 52 52 52 57 73 62 56 55 58 48 46 62 66 51 42 40 50 66 62 81 81 89 84 75 79 91 82 79 85 89 90 91 100 92 100 100 97
56 53 58 61 49 47 42 48 47 51 51 44 60 74 57 51 45 44 42 46 48 61 53 58 54 59 90 100 100 93 89 93 89 83 73 72 70 81 100 90 91 100 100 79 62
69 57 43 47 50 39 36 40 34 36 38 38 40 51 60 50 49 42 41 44 51 65 60 63 71 84 94 90 85 91 91 99 86 70 66 76 93 85 96 84 81 91 77 67 53
42 44 36 34 28 26 28 24 24 23 29 30 28 30 46 41 44 44 40 40 43 59 64 54 58 85 82 84 88 90 80 96 88 74 73 68 82 100 100 87 95 80 64 60 56
28 24 22 23 26 25 23 20 22 20 23 24 29 24 30 41 46 50 48 43 43 42 56 61 69 87 86 92 88 94 100 100 95 94 82 70 74 86 85 90 79 62 63 54 49
20 17 20 19 16 14 17 15 14 18 17 23 21 24 25 33 34 39 42 46 46 44 44 52 63 90 100 99 97 95 100 100 100 96 95 77 74 86 89 87 75 66 52 44 38
15 15 14 14 10 11 10 9 9 11 13 16 19 21 24 32 36 41 43 38 44 46 46 64 64 73 79 97 80 85 79 86 89 87 80 76 65 77 80 70 59 50 44 38 31
10 10 9 7 7 6 6 6 5 6 7 9 11 17 22 27 35 38 39 45 44 48 51 62 74 74 81 98 88 84 84 74 68 71 67 70 63 66 63 48 44 42 33 26 22
7 9 8 9 9 8 8 7 7 6 7 8 8 9 12 18 23 31 38 44 47 57 63 70 69 70 76 83 73 68 71 83 77 73 65 53 49 53 53 55 51 46 36 18 19
12 11 11 12 11 10 10 9 8 10 10 8 7 11 13 14 18 23 33 39 45 61 73 77 76 70 81 84 74 64 62 67 75 68 57 57 50 62 64 57 51 56 35 20 20
12 11 11 13 14 13 12 11 13 13 15 14 11 10 10 14 18 21 26 33 45 64 76 74 71 69 71 72 74 70 58 65 62 59 55 61 70 71 58 56 62 47 32 19 18
13 12 13 14 18 14 12 15 20 24 24 22 24 11 13 12 14 20 29 44 55 54 67 72 65 68 69 70 65 63 60 63 62 59 64 72 69 69 79 70 51 53 27 20 20
13 13 15 16 18 17 16 18 21 30 30 24 29 23 26 28 28 24 40 59 62 65 62 65 70 74 74 75 67 68 73 81 83 72 62 67 67 80 61 51 50 43 28 24 21
15 15 16 18 22 26 28 28 24 22 24 34 51 48 40 49 54 63 57 68 78 72 73 75 87 93 95 71 76 87 83 70 72 74 66 62 58 56 49 43 38 33 27 27 22
16 17 18 23 23 36 48 47 45 30 31 42 67 67 79 88 89 94 98 100 89 82 84 91 87 92 91 79 80 81 93 79 61 50 54 33 35 36 36 36 25 25 24 27 29
17 17 21 24 29 53 62 58 65 50 60 94 83 96 94 98 95 95 97 100 100 100 100 97 90 94 92 96 99 98 84 55 43 36 31 31 32 43 26 31 19 23 26 29 40
18 19 23 25 40 51 53 66 86 76 64 84 100 100 100 100 100 100 100 99 99 96 91 92 90 90 84 68 62 52 52 46 39 35 25 36 19 44 24 19 20 25 28 31 42
18 22 26 30 31 41 43 73 92 95 86 96 100 100 100 94 100 99 96 96 98 94 80 79 94 82 68 64 58 39 35 35 33 26 13 13 26 22 19 18 26 25 23 28 38
19 24 28 30 29 33 52 75 92 100 100 99 100 89 100 100 99 96 100 100 79 77 86 93 78 74 63 40 24 26 26 20 16 17 13 18 28 19 21 23 30 26 25 27 39

GFSSW_250_rhum_099.txt.gz
RH
100 100 100 100 100 87 98 100 100 100 100 100 100 100 100 87 90 96 69 100 95 92 84 79 72 89 93 99 76 67 60 46 49 44 44 43 38 42 52 56 62 53 39 42 45
100 95 100 100 100 92 87 100 100 100 100 100 100 100 100 100 100 100 100 100 100 100 88 68 69 99 100 100 93 88 77 68 62 51 48 55 53 48 45 51 54 46 41 44 50
100 100 100 100 100 80 79 94 100 100 100 100 100 100 100 100 100 100 98 100 100 100 96 78 85 73 100 99 86 86 68 48 42 51 53 62 66 55 55 56 59 61 64 56 58
100 100 100 92 95 95 90 100 100 100 100 100 100 100 100 100 100 100 82 79 96 87 82 90 83 75 66 68 56 48 46 41 46 52 52 54 53 59 56 68 64 66 84 74 77
100 100 100 100 100 100 100 100 86 82 91 100 100 100 100 100 100 96 98 100 87 75 79 74 61 59 68 66 57 48 44 40 41 46 54 53 54 58 66 70 70 77 78 83 81
100 100 100 100 100 100 99 97 94 76 48 70 98 100 95 94 88 87 81 100 100 100 70 70 73 47 41 51 56 52 44 40 37 67 61 63 53 61 66 71 71 75 78 74 73
93 100 100 100 100 94 100 99 91 66 48 31 34 94 99 96 77 70 66 72 81 100 100 87 54 50 48 44 46 51 44 40 40 44 49 41 62 89 81 72 69 72 77 92 93
57 70 82 90 99 90 91 83 98 85 55 35 36 40 73 70 86 64 55 54 58 59 73 83 63 60 56 54 58 50 42 42 41 40 42 55 84 88 79 70 70 74 81 91 97
52 49 54 61 59 64 64 60 60 63 57 49 39 34 40 56 54 72 72 54 53 44 48 65 79 85 62 47 48 57 50 42 41 48 64 73 65 78 76 78 74 70 79 82 79
66 50 61 62 62 59 62 66 64 56 50 44 46 36 31 32 36 42 51 55 55 53 54 51 55 59 51 48 45 44 46 51 53 57 58 79 81 71 76 88 84 65 64 76 82
59 86 88 68 54 58 52 50 56 56 50 41 32 35 37 35 27 33 37 37 45 50 49 65 55 50 53 46 44 48 58 71 71 73 63 77 88 86 86 77 70 70 57 59 66
52 59 67 67 61 54 51 46 34 32 30 27 25 23 23 23 27 31 35 39 43 44 48 48 56 76 55 49 45 45 50 65 71 70 67 81 87 95 98 88 76 73 80 86 80
49 41 35 35 33 38 38 31 25 21 19 19 21 19 19 18 18 21 22 27 32 34 32 39 42 55 57 50 55 45 50 61 64 64 71 85 92 98 90 88 81 81 90 88 84
55 42 35 28 24 34 29 24 24 22 19 13 15 14 14 14 14 21 16 18 24 27 31 40 42 44 64 62 54 49 50 49 50 60 84 90 96 94 87 89 82 94 96 88 76
60 57 45 30 34 31 30 24 21 16 10 8 9 10 10 10 13 14 14 15 16 19 26 37 46 45 53 60 63 69 50 50 53 60 72 88 97 100 93 100 89 84 80 70 64
46 44 37 33 38 30 22 16 9 7 7 8 8 7 8 8 8 8 10 12 18 18 18 29 34 39 49 58 57 55 54 56 56 56 63 87 77 81 77 82 74 67 69 72 65
33 39 28 30 34 18 11 8 8 8 9 9 8 8 9 9 8 7 6 10 14 18 23 28 35 41 49 53 53 55 56 59 65 74 72 96 75 84 83 70 63 56 52 58 54
24 23 21 22 16 12 9 10 10 10 11 10 11 11 11 10 10 9 8 7 10 18 22 24 26 31 40 52 61 66 69 66 67 78 72 66 70 88 73 65 62 55 51 46 39
23 20 20 14 14 13 13 12 12 11 12 12 14 14 13 12 11 10 9 9 11 12 16 21 28 34 41 48 51 61 66 75 81 70 69 71 75 73 66 60 52 53 49 44 36
21 19 12 16 15 13 12 13 14 14 13 13 16 14 16 21 29 18 13 15 17 21 22 21 25 32 42 46 54 74 82 78 74 72 77 76 72 77 75 60 60 62 61 53 35
21 13 14 16 14 12 12 14 14 16 17 18 23 20 9 26 30 25 22 24 30 26 30 32 37 42 45 52 71 78 74 71 78 76 72 64 63 70 69 66 78 82 76 58 40
14 13 14 16 13 12 14 15 17 20 20 18 21 19 18 27 32 40 49 27 41 38 41 48 50 54 67 78 76 84 86 78 79 83 72 60 72 81 70 69 64 70 75 55 32
14 13 15 16 14 14 15 17 20 25 21 28 29 20 24 26 49 72 68 66 82 77 72 70 64 62 67 76 76 71 70 72 73 65 68 62 79 75 66 56 56 54 53 47 37
14 15 17 16 15 15 18 20 22 25 29 45 36 30 30 53 79 88 86 74 96 97 96 97 95 98 98 98 94 90 89 72 58 66 72 79 61 80 65 42 44 45 50 42 34
16 17 17 18 16 17 21 25 25 28 43 47 35 39 59 88 97 92 90 100 100 100 100 100 100 100 99 98 99 97 87 76 67 63 64 66 43 60 25 26 34 33 32 27 24
17 18 17 17 18 21 22 26 30 41 47 64 81 85 84 96 96 100 100 100 100 100 100 100 100 100 100 96 96 94 84 81 70 60 49 42 42 26 27 24 26 20 17 19 18
18 18 18 19 21 22 22 26 33 55 54 78 98 99 94 95 100 93 99 99 97 100 100 95 98 94 81 77 73 66 60 56 54 50 34 27 24 16 19 22 18 15 14 15 16

GFSSW_250_rhum_102.txt.gz
RH
100 100 100 100 100 89 87 93 98 99 97 89 90 82 49 75 66 63 86 87 80 73 90 76 52 43 80 98 94 75 68 99 100 100 88 84 77 67 56 50 47 44 45 40 47
99 82 87 96 98 100 100 93 78 96 100 100 98 85 71 87 77 90 97 100 100 100 100 100 100 100 100 99 84 72 85 100 100 100 95 88 87 77 68 70 66 59 54 51 54
100 98 100 99 99 100 100 98 98 100 100 100 98 80 77 93 100 100 100 100 100 100 100 100 100 100 100 100 100 83 75 88 100 100 99 100 97 72 54 44 43 47 54 52 60
100 100 100 99 92 100 100 100 100 100 100 100 100 99 81 58 100 100 100 100 100 100 100 100 97 86 82 86 98 90 99 82 75 83 82 74 60 55 49 49 39 49 57 51 48
100 100 100 76 78 78 98 100 100 100 100 100 100 100 100 100 99 97 98 100 100 100 100 99 100 100 83 72 59 56 45 65 72 73 73 67 60 55 48 46 36 44 51 64 58
100 100 100 100 98 100 98 98 100 100 100 100 100 100 100 100 89 94 59 54 67 100 100 100 95 96 95 100 96 62 56 55 59 48 49 46 50 54 49 42 42 40 53 70 65
100 100 81 68 72 46 43 53 62 63 73 86 98 100 92 100 80 80 76 58 46 40 61 100 97 91 85 81 86 100 86 75 43 45 60 50 45 41 44 45 43 47 51 49 61
84 67 54 55 49 43 39 37 46 71 78 58 58 72 93 100 90 85 91 100 71 41 32 28 77 95 76 68 67 72 75 75 61 51 38 53 46 48 52 48 44 40 43 56 53
98 77 68 72 63 61 51 48 50 48 56 62 50 46 49 68 67 66 65 69 77 64 43 31 28 60 74 77 60 53 52 54 56 59 45 50 55 42 42 46 46 47 44 44 50
74 100 100 90 75 80 73 68 52 44 44 52 50 41 44 46 50 56 53 50 54 54 42 38 31 30 57 61 69 65 56 49 42 50 72 60 48 47 40 41 44 51 62 58 56
84 100 100 96 99 89 88 60 53 46 50 65 54 49 48 47 37 37 38 50 52 45 41 35 35 33 30 46 48 60 60 57 52 41 58 57 50 47 44 42 46 47 60 59 47
89 100 100 100 100 96 84 82 66 59 50 42 41 45 42 33 31 30 27 27 25 30 43 38 29 43 37 36 39 47 47 51 51 49 46 61 58 51 49 50 59 58 56 53 53
100 100 100 100 100 87 93 88 90 80 60 40 30 28 28 25 24 23 20 18 17 20 23 24 28 27 29 40 42 44 42 48 49 50 52 47 64 59 55 48 52 66 61 58 64
97 67 74 100 100 100 98 85 67 60 43 38 34 27 26 26 22 16 14 12 10 10 11 12 18 18 26 30 36 38 42 47 42 45 42 43 54 66 70 62 51 48 50 59 70
70 93 95 99 90 85 99 87 61 60 44 38 31 32 26 19 18 15 8 5 6 6 7 8 14 16 25 24 20 27 34 38 45 49 45 46 50 62 64 64 52 49 53 70 98
98 96 83 80 76 62 63 77 86 66 54 34 29 32 22 14 10 8 8 6 7 7 8 9 13 17 29 24 35 32 29 30 33 36 36 57 59 54 61 67 60 53 58 64 66
71 62 65 73 75 74 63 64 73 52 35 28 25 18 14 10 10 10 9 8 7 7 9 10 10 16 21 26 29 27 25 24 25 30 40 50 49 53 54 61 61 62 63 66 63
71 46 49 60 57 38 34 38 47 45 33 19 15 12 13 13 12 12 11 11 8 8 7 8 11 13 25 25 39 38 36 21 30 41 47 51 48 57 66 65 68 70 69 66 75
75 44 48 50 32 25 34 31 40 37 17 16 11 12 13 12 12 12 12 12 11 11 10 10 10 17 32 27 33 56 70 45 39 38 38 50 58 65 72 70 66 71 84 82 71
73 57 43 48 37 31 38 34 32 20 16 13 12 13 12 14 15 15 16 21 18 17 16 17 14 15 23 32 32 35 53 65 50 42 48 66 71 73 81 79 78 80 89 83 70
73 57 45 44 38 38 35 26 18 15 14 14 13 12 12 13 14 19 20 24 27 26 22 14 16 20 23 22 29 50 71 64 63 52 67 79 83 94 85 87 91 84 82 78 68
50 40 37 33 32 26 19 17 14 13 13 13 12 15 14 13 18 24 22 29 33 34 32 38 22 28 28 28 31 34 40 48 58 67 78 80 82 95 93 91 77 68 71 71 77
25 24 20 19 19 15 14 14 13 13 13 12 13 17 17 17 21 27 29 39 46 62 73 65 51 48 54 58 72 84 79 76 77 76 82 82 86 93 89 73 64 70 74 68 72
16 16 15 15 14 14 15 14 14 14 13 13 17 20 19 19 36 32 39 43 52 66 76 71 69 68 75 79 75 74 80 76 76 77 76 80 92 91 63 53 59 83 75 86 80
13 14 14 15 16 15 15 15 15 15 14 15 20 21 22 42 50 36 44 63 72 79 78 71 66 94 100 97 97 98 85 86 88 74 80 85 90 70 62 63 65 73 73 56 54
12 14 14 15 16 16 17 16 16 15 15 17 22 29 37 55 45 59 82 88 94 88 76 94 100 100 100 100 100 98 96 95 90 89 91 98 90 58 57 53 51 54 51 51 52
12 14 15 16 17 17 17 16 17 16 18 22 39 48 59 51 72 83 97 91 97 97 100 100 99 93 92 92 95 94 89 86 80 78 74 75 71 65 45 36 34 31 26 25 20

GFSSW_250_rhum_105.txt.gz
RH
100 100 100 100 72 73 100 100 100 92 79 100 94 82 100 91 74 59 71 95 87 66 36 34 37 28 52 61 51 76 62 57 100 100 100 88 99 99 86 88 77 70 68 57 58
100 100 100 94 98 81 81 94 100 89 69 68 69 41 66 88 98 100 100 99 90 77 61 42 48 79 75 64 77 80 89 100 95 100 98 92 99 100 76 91 76 97 80 73 55
100 100 100 100 98 88 78 98 100 100 100 93 71 81 68 86 91 79 74 79 89 100 100 92 87 99 95 86 89 85 67 100 100 100 89 88 90 93 100 100 99 95 89 75 60
94 97 89 99 88 94 84 100 100 98 100 97 91 85 69 91 100 100 100 100 100 92 100 100 100 100 100 99 99 88 99 100 99 100 100 100 100 99 85 82 94 87 82 72 65
100 100 96 95 96 98 96 100 100 100 100 100 100 100 98 100 100 100 100 100 100 100 100 98 92 100 100 100 100 100 100 66 52 52 63 74 79 78 69 85 90 83 69 67 66
100 100 100 100 100 100 100 99 100 100 100 100 95 93 100 100 100 100 100 100 100 100 100 100 100 96 64 56 64 80 100 100 99 88 69 51 42 39 50 57 49 70 72 72 65
100 100 92 86 95 82 98 100 92 90 75 56 54 54 51 46 41 39 37 41 44 69 94 98 100 89 76 44 64 41 30 47 100 90 93 100 87 75 58 53 50 43 49 63 64
90 98 92 90 100 86 88 70 59 60 52 51 61 67 68 55 53 41 38 48 53 47 53 55 69 93 89 92 57 44 43 31 36 61 90 91 81 79 61 59 80 57 42 45 52
89 77 74 85 94 90 81 57 34 28 50 86 100 100 100 81 72 64 50 45 47 54 56 49 48 46 57 62 54 51 47 52 43 40 70 87 90 80 60 55 57 44 39 34 36
71 80 87 100 100 92 76 53 32 31 39 44 79 100 100 98 78 73 60 53 50 40 42 50 47 44 42 53 52 65 49 52 44 47 38 41 54 82 79 63 55 52 46 40 41
82 100 99 100 100 100 98 72 58 43 37 56 53 94 95 98 72 80 82 74 59 53 41 40 36 39 52 45 40 47 51 61 48 54 42 37 41 56 76 67 60 53 45 48 47
52 92 100 100 100 100 93 78 65 57 50 55 100 100 100 96 88 100 78 65 56 51 47 41 33 39 39 39 38 39 26 41 51 54 48 43 41 49 53 58 58 56 48 45 50
90 81 87 78 85 85 85 73 68 61 55 56 83 96 91 80 91 86 48 45 42 35 42 34 30 25 21 21 20 24 23 25 34 37 41 42 43 52 52 59 61 57 48 50 47
88 83 65 88 99 96 84 82 68 63 62 57 84 98 88 69 59 71 49 40 32 31 30 23 19 11 10 11 14 12 14 18 17 22 38 36 34 45 55 49 51 53 53 53 48
97 91 98 83 68 85 84 78 75 74 66 57 66 87 99 100 75 51 45 31 33 25 21 18 11 8 6 7 7 9 11 12 14 18 26 30 29 35 44 48 48 46 47 49 48
100 90 100 100 96 93 94 98 88 70 48 83 70 71 72 66 54 38 28 27 24 18 13 12 7 6 7 6 6 8 8 12 17 19 19 30 29 35 36 40 45 44 44 49 52
90 90 78 100 100 98 96 88 88 60 64 70 81 84 81 56 34 24 34 30 25 22 11 9 8 7 8 8 10 13 16 27 30 28 34 56 39 93 41 29 34 38 46 44 44
92 88 77 71 79 74 89 84 82 66 71 81 61 53 60 45 29 34 30 32 21 15 10 9 8 10 11 10 12 13 14 30 68 93 54 91 61 69 46 32 48 47 42 37 32
82 78 70 53 66 65 71 65 72 59 91 91 86 59 43 38 31 35 37 25 16 14 11 9 10 11 14 16 14 16 28 47 96 89 100 100 100 100 80 73 74 58 47 40 39
79 72 57 58 75 84 80 71 76 74 82 92 61 57 54 41 36 37 20 15 15 13 13 13 12 15 15 21 19 21 36 52 100 100 100 100 100 100 85 65 50 54 56 64 61
61 65 59 70 71 67 65 68 77 88 79 57 62 62 39 32 25 18 15 14 16 18 20 18 14 17 26 21 28 27 21 42 82 100 100 100 100 100 100 83 76 81 65 70 74
45 52 48 45 50 57 68 53 76 77 52 52 64 31 28 17 15 15 15 15 20 22 25 28 20 28 29 42 38 24 27 47 76 90 100 100 100 100 100 78 78 69 74 76 70
31 32 37 42 35 46 59 61 66 59 51 42 24 21 15 14 15 16 16 18 28 30 32 37 28 42 44 42 48 37 37 44 50 82 100 100 100 100 100 97 77 66 72 74 77
12 13 14 19 26 36 51 53 55 39 24 19 17 16 14 15 16 16 16 25 32 33 37 36 48 59 66 62 60 42 43 83 95 95 100 100 89 80 74 81 69 70 84 56 70
10 11 12 14 18 26 24 25 22 22 19 16 15 15 14 16 16 18 21 28 35 46 48 54 57 45 59 72 71 77 76 84 93 100 98 90 97 95 80 94 85 77 85 80 78
8 10 11 12 14 16 16 17 18 18 17 16 16 15 17 17 20 24 29 42 51 54 61 54 67 79 90 97 93 82 97 100 100 95 95 100 94 88 100 92 99 89 90 90 81
6 8 10 11 13 14 16 17 17 17 17 18 16 17 18 20 23 36 49 53 59 65 60 89 96 94 97 99 96 99 100 100 99 99 100 100 92 99 96 94 87 85 83 92 97

GFSSW_250_rhum_108.txt.gz
RH
74 94 97 100 100 100 98 77 46 93 99 100 89 47 56 100 100 100 90 58 39 54 34 37 43 70 58 41 33 28 21 19 34 34 50 80 62 97 93 78 95 75 87 74 71
82 100 100 100 76 99 96 94 98 91 100 100 91 79 66 63 93 100 100 98 77 69 58 45 55 53 52 42 40 48 44 31 31 35 39 44 52 58 70 79 94 78 100 80 68
100 100 100 100 100 100 100 100 100 98 74 73 71 63 50 58 45 63 83 87 89 91 86 64 50 33 54 74 98 81 70 90 98 86 54 66 95 83 87 71 53 62 86 100 100
100 100 100 100 100 99 96 100 100 100 92 94 84 62 90 86 86 100 100 100 100 100 97 100 100 100 100 100 100 100 100 100 100 100 100 100 100 100 100 100 89 78 70 60 38
100 100 100 100 97 75 84 91 96 100 100 100 100 100 100 100 100 100 100 100 100 100 100 100 100 100 100 100 100 97 94 100 88 95 100 100 100 99 78 68 44 63 93 79 72
100 100 99 88 91 97 87 100 100 100 100 100 100 98 99 96 100 95 72 62 55 37 32 39 35 62 76 59 90 100 100 97 100 100 100 96 88 79 83 98 91 75 51 51 36
72 82 90 98 97 100 100 100 100 95 98 78 84 65 75 100 97 79 63 60 33 37 31 37 41 43 36 31 27 26 29 26 65 100 90 84 64 60 73 83 61 94 100 97 88
96 93 98 94 80 87 81 84 76 80 94 88 81 80 100 94 78 63 43 31 58 71 75 72 91 86 68 54 40 31 27 26 30 34 44 81 72 72 61 55 48 54 72 78 60
100 100 100 100 96 90 90 96 84 67 51 54 84 82 68 96 99 78 56 43 38 36 48 76 80 100 92 75 58 46 36 36 33 40 44 55 39 67 78 65 72 56 62 67 65
100 100 99 100 100 100 93 71 62 37 62 95 99 93 95 77 95 70 75 71 65 56 54 54 91 100 100 99 60 60 51 49 49 46 39 42 43 48 62 78 66 50 70 60 67
100 100 100 96 86 71 49 44 34 34 40 67 90 100 99 89 89 89 91 69 69 66 54 62 52 99 100 92 65 67 68 66 55 57 54 49 47 44 43 60 55 58 81 61 52
100 98 100 83 83 82 64 57 39 48 48 60 50 42 64 76 71 86 79 78 71 67 60 90 70 99 98 88 83 79 73 58 58 59 62 43 42 43 41 40 46 48 57 70 62
100 100 92 95 90 80 60 59 59 60 70 63 86 86 73 67 78 97 84 86 74 67 76 59 78 86 60 63 67 57 54 62 34 26 24 17 20 30 17 24 33 38 47 59 64
100 96 85 66 70 72 69 80 91 80 70 67 70 78 79 84 76 82 79 86 63 57 58 38 43 39 45 38 44 27 30 21 16 13 9 11 8 12 14 20 24 31 36 30 43
100 94 100 98 100 100 100 98 97 86 70 77 68 80 78 77 87 77 87 73 72 68 50 53 27 32 38 39 27 14 16 11 9 8 8 8 7 12 18 18 19 22 25 19 24
76 83 100 100 100 99 100 100 100 100 70 76 80 85 79 82 85 97 94 75 75 70 50 34 20 37 49 34 20 14 10 8 7 7 5 8 9 13 20 18 26 26 16 17 19
100 98 100 100 100 100 100 100 100 98 100 89 83 74 74 76 70 63 53 66 62 52 43 27 33 47 40 24 20 12 9 9 9 9 8 8 10 12 36 26 45 28 31 27 31
100 100 100 88 100 100 100 100 89 73 99 100 85 75 81 81 74 58 59 62 62 54 37 31 44 56 33 25 16 12 10 12 10 10 10 16 20 46 68 93 64 60 68 52 51
78 84 80 85 94 89 100 100 82 100 100 100 95 92 96 89 83 69 50 52 66 53 36 49 58 34 26 15 13 13 18 13 13 16 13 36 81 100 100 100 100 100 100 85 88
56 80 71 75 86 82 94 61 71 100 89 85 97 96 98 98 78 68 68 58 41 41 47 51 36 22 15 15 12 17 22 21 22 27 22 38 96 100 100 100 100 100 100 100 100
49 51 46 67 69 61 55 66 91 83 82 75 80 74 64 58 65 82 77 50 54 74 54 46 24 18 14 12 12 20 35 27 29 43 34 46 98 100 100 100 100 100 100 100 100
54 45 39 46 51 44 53 53 51 45 48 51 54 54 62 71 80 73 74 55 79 61 31 19 19 17 14 12 14 25 34 46 50 68 47 60 100 100 100 100 100 78 81 100 100
33 31 33 36 32 35 41 45 42 44 44 54 63 67 64 76 61 71 66 61 36 23 19 19 16 15 15 19 19 40 40 45 51 62 65 78 95 100 100 100 60 66 100 100 100
17 16 21 22 29 31 32 38 49 51 48 52 61 71 69 41 56 62 42 27 22 19 20 16 16 16 19 29 31 49 51 64 71 64 62 63 63 86 80 79 94 93 100 100 100
6 8 9 10 14 20 24 26 32 39 41 42 37 37 35 42 41 29 21 20 20 20 18 17 20 20 23 37 46 72 72 86 98 100 83 75 61 41 70 100 100 100 72 72 90
6 8 7 9 11 12 15 18 20 26 23 21 20 23 30 26 24 22 20 20 19 20 18 23 31 36 49 57 79 74 83 100 100 99 100 99 72 59 75 95 91 88 93 89 83
5 7 7 6 7 9 12 15 16 16 15 16 19 22 20 22 21 21 20 18 20 20 23 38 57 52 61 95 82 87 100 94 100 98 100 98 91 96 100 91 100 100 100 100 100

GFSSW_250_rhum_111.txt.gz
RH
51 60 96 86 86 100 85 62 82 91 90 100 89 66 60 79 97 87 95 90 74 53 33 34 27 29 43 32 33 31 24 24 19 18 29 33 29 24 24 25 34 40 29 55 46
71 92 89 99 96 100 100 99 100 100 100 98 96 100 100 95 92 92 70 62 43 38 33 43 41 38 50 47 44 47 39 63 64 74 66 78 57 46 38 44 37 36 41 48 31
100 100 97 100 100 100 100 100 100 77 99 100 100 100 100 100 100 88 79 76 69 65 65 62 64 59 73 75 88 95 100 100 100 100 97 100 99 97 86 73 94 61 54 81 64
100 100 100 100 100 100 100 95 100 100 100 100 99 90 76 99 98 100 100 98 94 96 91 90 100 100 100 100 100 100 100 100 100 100 100 100 100 100 100 100 100 100 100 100 100
99 79 82 94 100 100 100 100 100 100 100 100 90 73 99 100 100 96 100 100 99 98 98 100 100 100 91 65 82 86 76 61 44 43 81 91 91 100 100 100 100 100 100 100 94
99 50 40 41 57 90 100 100 99 100 90 96 100 100 100 100 100 100 86 99 100 100 100 100 98 88 74 50 39 34 29 28 28 25 29 45 46 53 94 100 100 100 95 100 97
83 54 42 50 48 60 78 89 90 89 100 95 92 69 87 100 89 92 82 76 82 94 97 100 100 92 90 69 57 37 41 44 39 43 34 48 32 35 37 58 59 63 78 88 96
81 46 55 63 69 67 94 86 79 75 96 100 100 100 87 100 99 89 81 83 90 93 100 100 100 97 85 81 75 74 62 50 52 50 50 64 34 56 51 36 28 31 35 44 66
73 52 65 75 89 90 96 100 91 92 87 97 100 94 97 100 97 88 92 75 86 77 84 100 99 100 99 93 76 82 63 53 43 55 73 100 67 72 70 61 52 57 52 50 44
80 73 92 71 76 93 100 100 100 98 91 78 80 74 89 78 73 54 44 40 42 48 71 85 80 80 79 70 61 60 57 51 43 65 100 100 100 80 87 88 87 87 73 59 55
84 61 76 80 66 99 100 100 97 100 92 99 86 80 71 78 72 66 45 42 53 53 55 50 43 51 60 53 47 52 48 43 48 55 58 69 78 54 69 100 81 79 88 82 73
100 99 79 79 66 86 84 98 100 100 95 99 85 95 100 81 67 64 56 58 54 54 70 92 74 72 65 57 56 59 55 47 40 41 53 42 42 51 76 87 73 61 60 63 66
75 71 86 71 66 81 100 100 100 100 100 94 100 100 75 64 74 75 54 58 63 61 72 68 72 99 84 74 70 50 45 30 24 25 29 41 26 25 28 30 29 26 28 30 28
92 79 72 78 84 98 100 100 100 100 99 96 96 85 75 82 83 77 71 67 66 72 84 64 87 69 69 77 72 41 36 24 22 21 22 24 14 14 13 12 11 15 20 16 12
100 88 80 83 91 98 100 100 90 94 90 88 76 83 78 98 100 94 88 82 98 99 78 80 76 52 63 70 53 42 28 28 24 21 13 15 16 10 9 8 8 10 14 12 8
96 83 88 74 81 96 96 93 92 87 80 71 70 73 82 82 99 97 100 97 100 92 100 100 76 72 70 56 53 44 38 42 34 15 11 12 12 9 8 7 7 8 10 10 9
88 85 76 88 89 93 92 96 95 61 72 81 92 89 92 87 97 90 98 91 92 93 96 83 87 67 53 49 52 44 53 41 21 18 13 10 9 8 10 8 8 8 8 8 13
90 88 100 98 100 100 100 97 72 68 78 100 100 87 90 98 93 87 96 86 85 95 89 80 73 66 60 54 45 57 69 25 19 18 10 10 11 13 12 13 13 19 25 19 20
99 100 100 100 100 100 100 100 100 100 100 100 100 100 88 76 79 94 94 90 99 77 61 76 54 64 48 71 85 86 48 30 20 14 9 11 20 21 30 53 100 100 76 81 95
87 85 91 100 100 100 100 100 100 100 100 91 69 74 67 73 72 65 73 75 64 64 64 72 49 47 63 91 80 60 34 23 15 14 13 13 35 36 52 100 100 100 100 94 97
48 38 58 75 94 97 59 49 59 42 62 61 62 56 46 48 56 50 47 60 60 61 59 53 41 68 88 62 73 44 23 17 13 14 15 20 40 67 77 100 100 100 100 94 96
47 47 59 77 68 63 65 57 45 42 65 56 51 53 54 50 50 55 47 65 54 55 62 53 55 60 56 59 47 21 19 17 16 18 24 28 33 87 93 78 63 100 100 100 100
29 38 41 40 44 46 47 51 42 44 54 55 53 45 49 45 45 57 51 55 49 56 67 82 66 52 45 39 21 17 17 18 17 34 39 32 41 68 82 81 65 100 95 100 100
28 28 26 25 25 26 27 30 43 51 47 56 57 46 46 54 45 42 47 56 52 77 66 45 50 40 19 18 16 18 17 18 26 40 48 60 42 60 72 86 97 95 91 98 98
18 14 15 18 28 30 34 30 33 34 35 36 36 46 44 48 46 36 43 57 53 56 42 40 37 22 19 17 19 20 21 26 42 55 58 47 49 79 94 94 100 100 100 95 80
8 6 7 9 10 11 16 17 18 22 29 28 27 31 30 33 29 29 35 31 31 35 37 30 21 18 17 17 20 22 40 75 57 58 75 69 78 96 99 89 76 83 95 99 96
6 5 6 6 6 6 7 8 10 11 11 12 14 15 18 21 22 29 30 22 29 33 24 20 20 19 19 22 25 45 97 83 62 74 84 79 92 100 90 87 85 78 81 90 97

GFSSW_250_rhum_114.txt.gz
RH
48 70 86 100 86 56 47 80 80 94 87 74 63 68 98 94 91 100 100 100 81 80 91 78 65 61 50 33 39 27 36 39 22 36 51 38 61 61 67 76 88 61 29 29 26
51 59 89 99 100 100 100 100 91 80 71 74 68 70 99 100 100 100 100 100 99 87 86 89 63 47 56 60 44 35 51 42 38 32 27 49 83 100 60 67 100 98 77 46 32
54 72 97 100 100 100 100 100 97 96 100 100 85 98 100 100 100 100 100 100 85 73 67 60 62 56 64 63 65 57 73 68 69 88 96 98 100 100 97 85 80 96 100 100 80
53 43 52 86 99 86 100 94 100 96 76 100 84 74 100 100 100 100 100 100 94 73 82 98 100 100 83 80 95 92 92 94 100 100 86 96 99 98 76 58 43 77 93 100 100
67 52 43 87 89 97 100 100 100 89 66 58 63 55 100 100 98 96 100 96 84 88 100 100 100 89 98 100 100 100 100 100 100 87 67 48 40 33 31 37 39 33 41 69 92
78 56 54 60 100 100 100 100 100 100 82 52 40 52 64 100 96 91 95 98 100 100 100 88 95 90 89 88 97 91 88 91 94 96 71 57 70 48 48 46 44 42 44 39 64
88 76 58 56 92 100 100 100 100 100 87 60 44 40 69 99 100 100 100 99 74 88 100 97 88 85 72 69 62 96 91 100 93 95 89 72 46 76 70 54 43 47 41 33 71
100 99 92 66 74 83 95 99 100 96 81 61 43 51 82 95 100 100 97 100 99 89 97 92 94 77 83 87 87 59 56 65 96 97 86 70 36 48 50 50 48 50 44 81 100
85 74 86 77 70 80 86 88 89 90 83 70 47 40 54 80 88 91 100 100 100 100 100 100 100 83 64 55 43 39 40 41 42 46 48 44 40 38 41 41 44 52 70 69 95
100 100 100 100 100 96 94 100 83 93 81 70 54 41 40 49 82 99 100 100 100 91 89 100 97 89 72 63 56 51 50 49 45 45 55 50 42 42 37 30 34 42 49 53 87
78 70 82 69 95 86 82 100 89 87 84 96 93 61 52 51 52 78 99 100 100 100 95 82 80 86 74 63 56 53 47 48 61 60 56 62 44 35 44 50 42 33 27 35 50
98 100 97 89 89 92 93 83 94 85 77 81 64 58 56 59 60 90 100 100 100 100 100 96 80 77 79 71 53 51 51 50 52 65 69 62 46 48 49 37 41 27 20 22 28
80 80 83 83 86 89 85 86 80 82 69 66 75 79 74 58 93 100 100 100 100 100 100 97 86 94 88 64 69 65 69 68 60 76 77 56 44 46 37 27 23 18 14 14 14
71 66 82 88 90 89 87 84 92 82 70 68 70 75 83 91 98 100 100 100 100 99 92 73 87 91 90 91 98 84 81 69 65 56 51 51 36 35 28 23 14 10 9 9 11
72 56 63 70 73 87 82 87 88 92 84 85 79 71 80 100 100 95 95 91 90 85 87 77 81 78 69 83 84 77 87 81 67 54 33 46 40 24 20 17 16 11 10 10 10
62 61 62 74 76 88 85 86 78 79 80 87 84 81 88 100 98 96 84 87 100 96 87 92 77 80 90 81 90 82 70 71 63 50 37 37 38 20 16 19 15 10 9 9 8
84 84 88 76 79 81 89 88 80 63 78 78 86 83 85 76 82 84 81 81 99 97 94 93 98 97 92 99 96 80 70 84 57 41 42 37 27 26 22 19 15 11 9 8 9
100 100 100 99 100 99 94 87 80 75 89 95 81 94 77 68 77 62 68 65 66 92 100 92 100 98 100 95 74 76 68 56 38 44 37 37 33 30 21 16 13 11 12 10 10
100 93 85 100 100 93 93 85 77 86 84 85 91 74 85 79 87 89 87 82 93 89 95 85 73 84 82 56 51 57 48 42 41 42 34 35 36 23 20 13 15 25 22 18 18
95 92 84 77 76 77 81 70 60 86 100 86 84 87 88 95 85 84 71 74 100 92 87 81 78 85 80 59 50 48 44 50 52 46 37 36 25 20 18 14 24 46 50 71 62
83 82 86 91 91 72 54 47 61 87 90 93 97 98 91 97 85 66 64 90 100 75 58 48 64 83 56 50 44 50 48 54 66 47 30 32 17 17 17 25 50 63 100 100 100
69 56 76 100 94 74 56 57 62 68 98 99 89 69 73 61 51 55 71 68 64 60 51 41 45 42 50 45 41 56 73 59 47 32 28 18 14 16 22 53 61 83 60 100 100
52 46 47 53 66 60 52 48 42 63 81 69 53 62 69 56 45 48 60 75 54 46 48 47 46 53 50 49 43 50 54 40 39 20 19 16 16 20 43 65 100 94 98 87 99
32 32 29 36 44 45 55 45 42 46 52 40 41 37 34 38 34 34 36 36 36 42 54 53 50 52 58 48 42 36 34 49 24 18 17 18 20 27 52 77 86 100 100 100 100
27 32 34 30 33 45 36 33 29 27 35 38 36 34 33 36 37 34 35 31 39 42 50 47 51 44 50 66 51 30 40 30 18 20 17 21 33 60 50 65 77 81 100 97 98
14 19 20 20 29 32 30 29 33 39 37 38 39 49 43 37 42 38 39 41 44 45 45 43 35 37 37 35 30 38 29 21 20 19 20 29 60 65 60 58 84 100 100 98 89
10 11 10 11 12 14 18 20 25 23 18 18 22 29 22 22 20 27 34 34 31 30 26 28 28 33 27 32 32 23 25 23 20 20 43 71 78 76 62 69 77 86 98 95 88

GFSSW_250_rhum_117.txt.gz
RH
100 100 97 88 73 72 45 45 84 100 100 100 100 100 77 80 72 77 61 42 80 94 82 100 100 100 96 91 79 73 66 52 47 49 51 37 35 32 36 30 23 21 21 28 62
100 100 100 100 87 76 56 54 52 74 96 100 100 100 100 98 77 65 45 48 65 62 92 98 100 100 91 76 63 50 59 60 56 49 50 38 32 43 48 62 70 59 58 58 59
100 100 100 100 98 92 76 57 45 44 78 100 100 100 97 91 68 49 48 49 67 62 61 85 99 99 79 63 48 50 95 83 74 54 43 66 81 74 100 100 100 100 99 79 68
100 100 100 100 100 90 70 61 53 45 51 69 83 83 92 98 82 78 68 65 58 64 76 71 75 82 75 71 55 84 100 79 67 73 85 100 100 100 100 100 98 74 62 58 46
100 100 100 100 100 100 83 78 81 50 46 74 96 100 100 100 85 96 89 76 62 44 51 59 73 72 87 92 98 94 81 78 92 100 90 67 64 78 88 96 74 68 68 64 68
87 83 96 100 100 100 87 81 97 85 53 52 93 100 100 100 99 97 96 79 66 53 58 70 64 70 69 90 87 86 90 96 91 76 70 63 55 41 52 56 60 65 86 78 64
73 73 79 97 80 74 98 88 82 98 86 60 47 76 92 100 100 100 92 81 62 56 56 58 61 72 80 95 94 97 89 72 86 99 82 63 78 58 43 50 63 67 66 59 59
61 68 71 86 94 100 87 83 80 81 69 44 37 53 84 98 98 88 88 83 64 50 44 48 56 64 73 92 100 93 93 100 100 100 89 69 47 40 46 46 45 42 43 51 74
52 55 61 83 81 97 86 92 84 93 72 67 67 66 67 81 94 80 77 85 80 73 72 45 42 58 81 96 77 86 100 100 100 97 84 70 62 58 51 45 48 51 53 53 48
53 77 58 70 88 87 92 86 77 71 83 64 52 58 50 85 88 98 87 89 82 70 68 56 49 62 100 81 78 90 90 91 96 87 74 68 59 53 44 40 40 48 50 50 56
89 98 100 100 100 100 91 100 100 74 89 90 94 78 69 75 81 84 72 76 73 68 69 62 62 94 86 100 94 100 97 91 98 90 76 67 54 52 41 40 41 46 52 44 40
54 50 53 68 70 80 77 93 70 76 71 80 66 68 64 64 68 70 71 79 73 93 95 81 75 93 100 100 100 100 100 100 91 82 72 68 54 52 46 47 58 59 53 44 38
59 49 66 66 72 72 75 81 74 75 69 83 77 74 84 72 77 88 84 87 91 87 99 83 88 100 100 100 100 100 94 90 92 86 81 59 53 60 72 53 55 57 60 48 33
75 83 65 80 90 92 100 87 94 88 79 84 82 70 70 81 79 90 88 92 96 98 95 89 100 100 97 91 96 81 82 80 78 75 75 68 53 77 57 58 60 57 43 33 19
79 72 88 92 99 100 100 100 99 95 85 80 80 68 64 77 85 89 86 92 99 93 82 78 82 100 100 100 89 94 100 91 80 74 72 75 62 48 41 41 34 35 26 18 16
71 83 68 79 76 88 84 89 94 84 74 72 75 70 61 64 75 84 87 86 85 87 94 100 93 93 88 88 94 100 96 81 74 76 56 55 72 51 55 42 27 25 22 17 14
88 88 99 100 100 91 85 85 85 79 82 68 68 71 72 71 78 72 77 89 98 98 100 90 90 92 86 82 77 72 70 66 68 66 67 58 52 75 41 31 24 26 21 17 19
100 98 100 100 100 98 96 95 81 90 88 82 74 89 78 78 83 74 76 84 86 77 86 88 88 90 92 90 85 81 79 82 71 74 65 53 51 54 36 22 24 37 25 23 19
100 92 95 97 100 100 93 82 69 76 83 89 94 89 82 80 72 69 72 67 79 82 88 92 89 98 95 96 88 84 83 83 74 68 65 50 38 32 31 24 31 41 32 20 21
99 100 99 100 100 99 100 87 79 90 92 82 79 83 91 100 83 75 63 60 77 82 82 70 71 77 89 87 92 96 68 78 86 69 56 34 31 38 31 30 37 42 24 20 20
93 94 100 100 100 100 87 78 92 86 95 87 83 87 99 98 82 81 72 72 81 76 82 97 93 82 82 86 84 66 56 61 68 64 37 29 36 40 38 32 41 30 21 39 44
60 97 100 100 100 100 82 91 100 100 96 94 80 82 93 100 90 74 80 86 85 68 69 76 79 70 70 65 64 51 41 42 44 37 33 38 39 53 36 32 25 22 21 44 58
43 74 91 86 80 72 79 72 69 85 100 91 85 95 99 87 78 75 77 74 61 56 52 60 68 53 36 42 42 38 50 46 41 35 45 40 42 36 27 22 22 20 26 31 48
65 67 64 62 62 69 62 58 60 70 69 66 62 54 46 40 48 50 50 47 42 41 39 46 44 42 37 37 41 44 54 50 32 40 51 40 31 29 21 20 20 18 23 29 43
29 29 40 43 58 78 70 54 41 42 45 53 50 48 53 44 47 41 49 52 47 45 38 41 42 44 44 51 48 49 57 56 34 37 31 29 30 22 19 18 18 23 35 39 56
18 19 24 35 38 52 53 41 42 41 36 40 36 40 32 27 37 44 44 44 44 37 40 49 52 53 52 54 50 48 46 41 34 36 25 34 24 22 19 19 28 40 42 56 60
12 12 16 24 32 29 34 44 40 36 32 32 38 41 32 48 48 46 54 42 40 43 42 42 43 42 39 40 39 23 29 31 42 31 36 24 24 21 23 33 54 58 62 62 81

GFSSW_250_rhum_120.txt.gz
RH
100 100 100 100 100 100 100 100 100 100 92 88 83 64 56 87 95 100 93 100 90 70 72 61 46 25 48 44 52 62 65 94 90 82 66 48 40 42 43 45 39 29 34 38 34
100 100 100 100 100 100 100 100 100 100 100 100 92 77 60 52 78 93 97 94 78 70 50 41 37 33 34 48 45 57 85 62 68 69 52 42 45 55 58 47 32 42 44 43 89
81 100 100 100 100 100 100 100 100 100 100 100 100 99 91 67 57 47 75 76 85 68 62 43 62 80 72 63 44 50 62 76 72 62 73 65 53 58 53 51 59 53 56 36 52
90 65 65 98 100 100 100 100 95 100 100 100 100 98 90 74 53 62 78 83 100 100 100 100 96 83 82 72 54 42 47 50 59 74 100 100 82 57 54 100 93 94 100 100 73
100 79 75 62 99 100 100 100 99 98 98 100 100 100 100 90 66 73 86 91 88 84 99 92 85 90 73 66 54 46 48 54 60 87 82 80 74 71 100 95 93 60 43 34 33
76 86 71 62 90 96 97 96 76 95 85 84 96 95 100 97 84 96 84 88 87 95 89 80 77 67 71 65 56 50 53 61 63 68 70 69 100 100 100 100 96 87 93 81 59
67 58 65 52 65 73 71 60 52 67 65 64 77 93 93 79 81 89 96 93 66 54 51 63 68 65 72 71 55 47 44 40 48 52 60 78 98 100 100 100 100 100 98 78 56
47 71 58 55 55 54 62 51 53 60 60 62 71 78 91 98 95 93 100 89 62 54 56 64 54 49 63 72 75 61 47 47 44 50 59 74 98 100 100 100 100 99 86 77 77
59 62 53 64 50 52 47 47 50 57 86 84 84 95 100 100 100 93 90 88 78 74 53 44 70 68 72 71 76 68 56 50 57 73 73 69 94 100 100 100 94 92 88 82 75
44 65 72 62 53 42 43 54 67 78 80 93 100 100 99 100 100 100 100 100 100 80 84 70 73 73 74 54 57 62 63 61 75 92 74 84 100 81 92 96 98 96 86 76 69
67 56 72 67 77 59 67 55 71 100 100 100 100 100 100 100 100 100 90 84 95 87 81 74 67 73 69 67 63 62 62 66 74 91 95 100 100 100 85 84 84 76 84 76 59
60 88 70 63 95 93 100 98 100 54 57 69 64 71 88 88 88 100 84 82 75 85 75 72 65 71 86 86 78 75 69 79 98 100 100 100 100 98 91 88 87 81 72 58 54
51 73 99 89 94 79 100 50 58 39 34 61 42 44 64 75 73 71 72 80 81 84 79 69 78 90 78 85 93 86 83 87 79 84 94 85 87 77 80 84 75 64 58 58 54
44 36 58 82 70 71 54 59 51 76 65 69 69 68 76 88 81 89 84 97 88 96 98 88 100 86 87 100 100 100 100 90 87 84 82 82 77 74 72 77 68 64 59 56 52
60 41 48 79 76 91 74 96 95 84 73 68 73 83 90 97 100 100 98 98 100 100 95 94 96 89 79 87 89 100 100 100 90 83 84 96 93 80 70 72 67 66 69 70 55
77 65 79 77 100 89 85 85 80 78 68 66 65 68 81 91 100 100 100 100 100 97 91 91 81 87 93 99 95 96 96 96 95 90 92 97 85 74 78 73 67 63 56 49 48
100 100 89 78 100 100 100 100 90 76 72 65 66 71 77 92 100 100 100 92 96 100 100 92 89 93 82 87 91 91 88 94 88 80 71 72 77 82 80 70 59 49 44 38 34
100 100 100 100 100 92 99 100 65 67 68 73 79 77 98 96 98 100 99 100 100 98 100 100 100 100 100 85 80 88 96 99 88 68 63 66 66 75 78 69 57 49 45 31 32
100 100 100 100 100 100 100 100 89 93 83 67 66 64 78 80 81 74 68 71 73 77 86 88 84 87 87 92 84 75 93 87 77 58 46 45 50 58 65 68 59 43 29 28 29
100 100 100 100 100 100 100 97 93 84 84 84 80 79 78 82 69 71 63 67 77 92 97 87 78 78 91 94 84 79 69 69 76 70 50 41 33 37 47 39 34 29 27 25 32
100 100 100 100 100 100 100 100 95 86 88 88 88 77 91 92 84 71 72 82 87 93 97 91 95 87 88 87 81 70 76 66 63 56 48 36 33 39 34 30 30 28 31 27 35
100 99 99 95 96 94 85 93 95 84 79 74 78 72 96 100 100 80 78 89 90 99 100 100 100 91 79 71 79 80 60 58 52 52 43 37 32 34 33 36 38 38 34 30 29
75 82 77 74 74 73 74 75 75 79 73 64 72 76 71 92 93 97 87 88 100 92 88 98 99 90 64 61 57 52 57 48 45 49 42 37 33 39 40 44 52 44 32 30 31
56 48 56 53 48 51 52 52 59 80 76 73 77 77 71 72 85 73 91 76 68 82 74 74 73 75 53 48 42 42 38 51 52 52 52 43 38 41 55 58 62 38 34 34 25
40 44 39 31 31 45 63 61 52 61 51 49 48 60 67 68 76 73 94 100 80 71 73 66 54 54 47 37 34 40 59 58 62 67 68 78 54 45 63 51 53 40 37 28 18
14 19 31 48 64 52 38 34 32 50 59 82 83 96 87 53 52 70 92 80 71 50 43 48 50 45 38 45 47 43 52 62 64 74 69 64 59 60 41 41 43 37 28 19 18
7 9 14 21 36 46 48 84 84 60 42 43 50 59 51 66 64 50 55 52 58 61 58 51 44 43 35 47 44 35 64 47 41 46 52 37 41 36 35 35 34 27 21 19 21

GFSSW_250_rhum_123.txt.gz
RH
40 50 100 100 100 100 96 100 100 100 100 100 99 100 100 100 89 95 88 85 86 61 52 80 85 84 66 68 53 40 41 42 59 58 41 34 31 50 65 64 52 42 51 62 59
44 29 49 100 100 100 100 100 100 100 100 100 100 100 100 100 100 98 100 94 98 94 70 59 53 56 54 56 59 80 82 74 87 59 47 37 34 36 54 58 48 54 70 63 54
60 38 30 46 100 100 100 100 93 100 100 100 100 100 100 100 95 100 99 92 99 88 87 72 51 50 90 99 96 88 81 79 68 61 50 44 41 47 56 48 45 55 64 57 50
56 65 34 31 59 89 97 100 99 72 97 100 100 100 100 99 86 91 99 90 89 92 88 93 64 96 98 76 74 64 81 79 65 57 55 50 52 49 53 72 98 65 50 46 48
70 75 57 40 51 44 96 80 71 94 68 58 96 100 100 100 100 100 98 86 93 91 80 86 92 78 64 56 50 63 60 76 71 62 55 48 46 51 67 70 67 55 47 44 49
53 75 66 47 48 42 40 35 42 83 96 81 54 72 98 100 96 71 65 69 83 92 88 79 82 97 90 89 66 57 60 72 73 69 62 59 52 44 41 41 47 50 54 56 87
61 74 70 54 47 45 44 51 41 48 76 95 79 62 75 75 60 57 64 73 76 83 79 96 98 100 98 83 65 54 49 56 54 76 74 64 56 50 56 49 53 78 87 71 82
61 62 64 36 63 45 48 54 46 48 54 84 68 56 64 65 61 62 74 77 90 93 89 100 100 100 100 92 82 77 62 62 86 69 58 51 54 54 49 56 95 100 100 100 100
52 58 51 28 42 54 47 53 55 55 80 73 78 60 60 55 72 82 85 94 99 100 100 100 94 100 98 99 94 93 92 90 78 72 63 52 54 58 51 55 81 98 100 100 98
67 61 82 64 36 75 82 62 70 63 68 100 94 68 60 75 74 81 95 100 100 100 99 100 100 100 100 78 81 91 80 77 69 59 52 54 56 55 54 58 78 90 99 100 100
72 55 66 100 49 56 76 71 78 82 89 86 100 98 100 100 100 100 95 81 83 85 77 76 84 99 90 100 89 68 75 70 63 59 57 65 58 62 62 74 100 100 100 100 100
100 98 76 77 84 41 37 44 60 75 88 100 100 100 100 100 100 100 86 52 58 78 76 73 68 83 93 93 88 78 72 72 69 63 64 73 77 81 99 100 100 100 100 100 100
97 100 97 67 80 61 44 42 47 52 53 100 100 100 98 98 99 72 76 78 80 79 86 68 75 91 84 94 90 75 84 86 69 77 71 71 67 76 100 99 99 100 100 100 100
74 77 95 74 74 78 59 66 44 50 48 68 99 91 96 83 96 100 84 84 75 67 71 80 98 87 94 98 99 93 87 87 87 81 82 85 81 82 86 90 97 91 84 79 79
62 62 94 78 77 64 51 100 77 51 36 56 61 60 84 96 100 100 100 99 87 75 79 78 72 94 100 100 100 100 100 96 91 98 98 98 85 70 74 83 88 100 95 90 77
95 66 83 86 74 80 80 100 81 73 45 47 60 84 84 92 100 100 100 100 89 74 74 80 80 89 100 100 100 99 100 100 99 89 83 81 77 72 73 76 90 88 76 67 58
100 82 60 89 90 85 98 100 97 71 68 51 63 66 82 100 100 100 100 100 100 94 85 79 93 96 100 100 100 100 99 92 80 77 73 77 69 84 91 84 77 71 60 53 53
100 100 100 100 100 100 100 100 99 86 99 86 92 63 75 87 100 100 100 100 100 100 100 82 94 100 100 97 100 97 83 86 75 69 70 72 78 84 84 78 73 64 58 48 39
100 100 100 100 100 100 100 100 100 100 100 90 90 78 100 100 99 100 100 100 99 100 100 93 85 91 93 99 98 98 96 81 76 70 71 74 70 74 79 68 53 47 38 29 26
100 96 96 100 100 100 100 100 100 100 100 99 94 98 84 100 100 100 100 93 97 100 100 90 88 82 80 84 98 95 86 84 91 85 73 68 60 63 56 53 46 34 31 27 26
49 55 80 100 100 100 99 100 100 100 100 100 100 100 100 100 100 100 98 100 99 94 92 90 76 71 69 89 83 76 71 78 86 80 64 49 49 58 51 43 33 31 29 31 30
50 54 69 80 81 73 69 100 100 100 100 100 100 100 100 100 100 100 92 94 100 100 94 89 76 61 60 62 72 89 87 74 72 73 71 52 43 47 39 34 36 34 34 33 31
33 46 61 70 70 69 81 96 84 100 96 100 100 100 100 100 100 100 100 100 99 98 92 96 89 78 63 65 77 82 98 85 76 72 60 54 45 47 50 45 42 43 38 42 55
13 28 62 57 64 69 63 76 91 99 100 100 100 100 100 100 100 100 100 99 100 99 97 94 87 79 74 78 72 67 75 91 77 55 56 45 58 55 59 58 52 36 54 60 53
8 12 27 35 52 46 54 92 96 84 88 94 97 99 100 100 100 100 100 100 88 77 76 83 71 78 77 72 62 72 63 63 60 54 56 58 56 58 72 76 68 40 42 44 48
4 6 11 17 24 28 43 40 53 78 88 95 90 94 90 89 93 93 90 79 71 70 72 71 65 74 76 84 78 64 54 60 56 57 56 77 59 63 54 61 55 38 43 38 42
4 6 8 11 13 16 18 28 55 59 48 60 66 73 69 76 73 72 76 60 53 59 62 80 94 75 55 67 57 26 51 45 48 58 73 54 50 47 51 42 33 33 39 32 33